[[{"header":{"parameterUnit":"m.s-1","parameterCategory":1,"la1":30.6,"la2":28.766,"lo1":-90.7593,"lo2":-88.6598,"dy":0.0162,"dx":0.0183,"nx":116,"ny":114,"refTime":"2023-06-02T12:00:00:Z","depth":0,"parameterNumber":2,"parameterNumberName":"U-component_of_WINDS"},"data":[0.0,0.0,0.0,0.0,0.0,0.0,0.0,0.0,0.0,0.0,0.0,0.0,0.0,0.0,0.0,0.0,0.0,0.0,0.0,0.0,0.0,0.0,0.0,0.0,0.0,0.0,0.0,0.0,0.0,0.0,0.0,0.0,0.0,0.0,0.0,0.0,0.0,0.0,0.0,0.0,0.0,0.0,0.0,0.0,0.0,0.0,0.0,0.0,0.0,0.0,0.0,0.0,0.0,0.0,0.0,0.0,0.0,0.0,0.0,0.0,0.0,0.0,0.0,0.0,0.0,0.0,0.0,0.0,0.0,0.0,0.0,0.0,0.0,0.0,0.0,0.0,0.0,0.0,0.0,0.0,0.0,0.0,0.0,0.0,0.0,0.0,0.0,0.0,0.0,0.0,0.0,0.0,0.0,0.0,0.0,0.0,0.0,0.0,0.0,0.0,0.0,0.0,0.0,0.0,0.0,0.0,0.0,0.0,0.0,0.0,0.0,0.0,0.0,0.0,0.0,0.0,0.0,0.0,0.0,0.0,0.0,0.0,0.0,0.0,0.0,0.0,0.0,0.0,0.0,0.0,0.0,0.0,0.0,0.0,0.0,0.0,0.0,0.0,0.0,0.0,0.0,0.0,0.0,0.0,0.0,0.0,0.0,0.0,0.0,0.0,0.0,0.0,0.0,0.0,0.0,0.0,0.0,0.0,0.0,0.0,0.0,0.0,0.0,0.0,0.0,0.0,0.0,0.0,0.0,0.0,0.0,0.0,0.0,0.0,0.0,0.0,0.0,0.0,0.0,0.0,0.0,0.0,0.0,0.0,0.0,0.0,0.0,0.0,0.0,0.0,0.0,0.0,0.0,0.0,0.0,0.0,0.0,0.0,0.0,0.0,0.0,0.0,0.0,0.0,0.0,0.0,0.0,0.0,0.0,0.0,0.0,0.0,0.0,0.0,0.0,0.0,0.0,0.0,0.0,0.0,0.0,0.0,0.0,0.0,0.0,0.0,0.0,0.0,0.0,0.0,0.0,0.0,0.0,0.0,0.0,0.0,0.0,0.0,0.0,0.0,0.0,0.0,0.0,0.0,0.0,0.0,0.0,0.0,0.0,0.0,0.0,0.0,0.0,0.0,0.0,0.0,0.0,0.0,0.0,0.0,0.0,0.0,0.0,0.0,0.0,0.0,0.0,0.0,0.0,0.0,0.0,0.0,0.0,0.0,0.0,0.0,0.0,0.0,0.0,0.0,0.0,0.0,0.0,0.0,0.0,0.0,0.0,0.0,0.0,0.0,0.0,0.0,0.0,0.0,0.0,0.0,0.0,0.0,0.0,0.0,0.0,0.0,0.0,0.0,0.0,0.0,0.0,0.0,0.0,0.0,0.0,0.0,0.0,0.0,0.0,0.0,0.0,0.0,0.0,0.0,0.0,0.0,0.0,0.0,0.0,0.0,0.0,0.0,0.0,0.0,0.0,0.0,0.0,0.0,0.0,0.0,0.0,0.0,0.0,0.0,0.0,0.0,0.0,0.0,0.0,0.0,0.0,0.0,0.0,0.0,0.0,0.0,0.0,0.0,0.0,0.0,0.0,0.0,0.0,0.0,0.0,0.0,0.0,0.0,0.0,0.0,0.0,0.0,0.0,0.0,0.0,0.0,0.0,0.0,0.0,0.0,0.0,0.0,0.0,0.0,0.0,0.0,0.0,0.0,0.0,0.0,0.0,0.0,0.0,0.0,0.0,0.0,0.0,0.0,0.0,0.0,0.0,0.0,0.0,0.0,0.0,0.0,0.0,0.0,0.0,0.0,0.0,0.0,0.0,0.0,0.0,0.0,0.0,0.0,0.0,0.0,0.0,0.0,0.0,0.0,0.0,0.0,0.0,0.0,0.0,0.0,0.0,0.0,0.0,0.0,0.0,0.0,0.0,0.0,0.0,0.0,0.0,0.0,0.0,0.0,0.0,0.0,0.0,0.0,0.0,0.0,0.0,0.0,0.0,0.0,0.0,0.0,0.0,0.0,0.0,0.0,0.0,0.0,0.0,0.0,0.0,0.0,0.0,0.0,0.0,0.0,0.0,0.0,0.0,0.0,0.0,0.0,0.0,0.0,0.0,0.0,0.0,0.0,0.0,0.0,0.0,0.0,0.0,0.0,0.0,0.0,0.0,0.0,0.0,0.0,0.0,0.0,0.0,0.0,0.0,0.0,0.0,0.0,0.0,0.0,0.0,0.0,0.0,0.0,0.0,0.0,0.0,0.0,0.0,0.0,0.0,0.0,0.0,0.0,0.0,0.0,0.0,0.0,0.0,0.0,0.0,0.0,0.0,0.0,0.0,0.0,0.0,0.0,0.0,0.0,0.0,0.0,0.0,0.0,0.0,0.0,0.0,0.0,0.0,0.0,0.0,0.0,0.0,0.0,0.0,0.0,0.0,0.0,0.0,0.0,0.0,0.0,0.0,0.0,0.0,0.0,0.0,0.0,0.0,0.0,0.0,0.0,0.0,0.0,0.0,0.0,0.0,0.0,0.0,0.0,0.0,0.0,0.0,0.0,0.0,0.0,0.0,0.0,0.0,0.0,0.0,0.0,0.0,0.0,0.0,0.0,0.0,0.0,0.0,0.0,0.0,0.0,0.0,0.0,0.0,0.0,0.0,0.0,0.0,0.0,0.0,0.0,0.0,0.0,0.0,0.0,0.0,0.0,0.0,0.0,0.0,0.0,0.0,0.0,0.0,0.0,0.0,0.0,0.0,0.0,0.0,0.0,0.0,0.0,0.0,0.0,0.0,0.0,0.0,0.0,0.0,0.0,0.0,0.0,0.0,0.0,0.0,0.0,0.0,0.0,0.0,0.0,0.0,0.0,0.0,0.0,0.0,0.0,0.0,0.0,0.0,0.0,0.0,0.0,0.0,0.0,0.0,0.0,0.0,0.0,0.0,0.0,0.0,0.0,0.0,0.0,0.0,0.0,0.0,0.0,0.0,0.0,0.0,0.0,0.0,0.0,0.0,0.0,0.0,0.0,0.0,0.0,0.0,0.0,0.0,0.0,0.0,0.0,0.0,0.0,0.0,0.0,0.0,0.0,0.0,0.0,0.0,0.0,0.0,0.0,0.0,0.0,0.0,0.0,0.0,0.0,0.0,0.0,0.0,0.0,0.0,0.0,0.0,0.0,0.0,0.0,0.0,0.0,0.0,0.0,0.0,0.0,0.0,0.0,0.0,0.0,0.0,0.0,0.0,0.0,0.0,0.0,0.0,0.0,0.0,0.0,0.0,0.0,0.0,0.0,0.0,0.0,0.0,0.0,0.0,0.0,0.0,0.0,0.0,0.0,0.0,0.0,0.0,0.0,0.0,0.0,0.0,0.0,0.0,0.0,0.0,0.0,0.0,0.0,0.0,0.0,0.0,0.0,0.0,0.0,0.0,0.0,0.0,0.0,0.0,0.0,0.0,0.0,0.0,0.0,0.0,0.0,0.0,0.0,0.0,0.0,0.0,0.0,0.0,0.0,0.0,0.0,0.0,0.0,0.0,0.0,0.0,0.0,0.0,0.0,0.0,0.0,0.0,0.0,0.0,0.0,0.0,0.0,0.0,0.0,0.0,0.0,0.0,0.0,0.0,0.0,0.0,0.0,0.0,0.0,0.0,0.0,0.0,0.0,0.0,0.0,0.0,0.0,0.0,0.0,0.0,0.0,0.0,0.0,0.0,0.0,0.0,0.0,0.0,0.0,0.0,0.0,0.0,0.0,0.0,0.0,0.0,0.0,0.0,0.0,0.0,0.0,0.0,0.0,0.0,0.0,0.0,0.0,0.0,0.0,0.0,0.0,0.0,0.0,0.0,0.0,0.0,0.0,0.0,0.0,0.0,0.0,0.0,0.0,0.0,0.0,0.0,0.0,0.0,0.0,0.0,0.0,0.0,0.0,0.0,0.0,0.0,0.0,0.0,0.0,0.0,0.0,0.0,0.0,0.0,0.0,0.0,0.0,0.0,0.0,0.0,0.0,0.0,0.0,0.0,0.0,0.0,0.0,0.0,0.0,0.0,0.0,0.0,0.0,0.0,0.0,0.0,0.0,0.0,0.0,0.0,0.0,0.0,0.0,0.0,0.0,0.0,0.0,0.0,0.0,0.0,0.0,0.0,0.0,0.0,0.0,0.0,0.0,0.0,0.0,0.0,0.0,0.0,0.0,0.0,0.0,0.0,0.0,0.0,0.0,0.0,0.0,0.0,0.0,0.0,0.0,0.0,0.0,0.0,0.0,0.0,0.0,0.0,0.0,0.0,0.0,0.0,0.0,0.0,0.0,0.0,0.0,0.0,0.0,0.0,0.0,0.0,0.0,0.0,0.0,0.0,0.0,0.0,0.0,0.0,0.0,0.0,0.0,0.0,0.0,0.0,0.0,0.0,0.0,0.0,0.0,0.0,0.0,0.0,0.0,0.0,0.0,0.0,0.0,0.0,0.0,0.0,0.0,0.0,0.0,0.0,0.0,0.0,0.0,0.0,0.0,0.0,0.0,0.0,0.0,0.0,0.0,0.0,0.0,0.0,0.0,0.0,0.0,0.0,0.0,0.0,0.0,0.0,0.0,0.0,0.0,0.0,0.0,0.0,0.0,0.0,0.0,0.0,0.0,0.0,0.0,0.0,0.0,0.0,0.0,0.0,0.0,0.0,0.0,0.0,0.0,0.0,0.0,0.0,0.0,0.0,0.0,0.0,0.0,0.0,0.0,0.0,0.0,0.0,0.0,0.0,0.0,0.0,0.0,0.0,0.0,0.0,0.0,0.0,0.0,0.0,0.0,0.0,0.0,0.0,0.0,0.0,0.0,0.0,0.0,0.0,0.0,0.0,0.0,0.0,0.0,0.0,0.0,0.0,0.0,0.0,0.0,0.0,0.0,0.0,0.0,0.0,0.0,0.0,0.0,0.0,0.0,0.0,0.0,0.0,0.0,0.0,0.0,0.0,0.0,0.0,0.0,0.0,0.0,0.0,0.0,0.0,0.0,0.0,0.0,0.0,0.0,0.0,0.0,0.0,0.0,0.0,0.0,0.0,0.0,0.0,0.0,0.0,0.0,0.0,0.0,0.0,0.0,0.0,0.0,0.0,0.0,0.0,0.0,0.0,0.0,0.0,0.0,0.0,0.0,0.0,0.0,0.0,0.0,0.0,0.0,0.0,0.0,0.0,0.0,0.0,0.0,0.0,0.0,0.0,0.0,0.0,0.0,0.0,0.0,0.0,0.0,0.0,0.0,0.0,0.0,0.0,0.0,0.0,0.0,0.0,0.0,0.0,0.0,0.0,0.0,0.0,0.0,0.0,0.0,0.0,0.0,0.0,0.0,0.0,0.0,0.0,0.0,0.0,0.0,0.0,0.0,0.0,0.0,0.0,0.0,0.0,0.0,0.0,0.0,0.0,0.0,0.0,0.0,0.0,0.0,0.0,0.0,0.0,0.0,0.0,0.0,0.0,0.0,0.0,0.0,0.0,0.0,0.0,0.0,0.0,0.0,0.0,0.0,0.0,0.0,0.0,0.0,0.0,0.0,0.0,0.0,0.0,0.0,0.0,0.0,0.0,0.0,0.0,0.0,0.0,0.0,0.0,0.0,0.0,0.0,0.0,0.0,0.0,0.0,0.0,0.0,0.0,0.0,0.0,0.0,0.0,0.0,0.0,0.0,0.0,0.0,0.0,0.0,0.0,0.0,0.0,0.0,0.0,0.0,0.0,0.0,0.0,0.0,0.0,0.0,0.0,0.0,0.0,0.0,0.0,0.0,0.0,0.0,0.0,0.0,0.0,0.0,0.0,0.0,0.0,0.0,0.0,0.0,0.0,0.0,0.0,0.0,0.0,0.0,0.0,0.0,0.0,0.0,0.0,0.0,0.0,0.0,0.0,0.0,0.0,0.0,0.0,0.0,0.0,0.0,0.0,0.0,0.0,0.0,0.0,0.0,0.0,0.0,0.0,0.0,0.0,0.0,0.0,0.0,0.0,0.0,0.0,0.0,0.0,0.0,0.0,0.0,0.0,0.0,0.0,0.0,0.0,0.0,0.0,0.0,0.0,0.0,0.0,0.0,0.0,0.0,0.0,0.0,0.0,0.0,0.0,0.0,0.0,0.0,-3.0056,0.0,0.0,0.0,0.0,0.0,0.0,0.0,0.0,0.0,0.0,0.0,0.0,0.0,0.0,0.0,0.0,0.0,0.0,0.0,0.0,0.0,0.0,0.0,0.0,0.0,0.0,0.0,0.0,0.0,0.0,0.0,0.0,0.0,0.0,0.0,0.0,0.0,0.0,-3.4745,-3.4286,-3.4226,-3.4426,-3.3948,-3.4295,-3.5344,0.0,0.0,0.0,0.0,0.0,0.0,0.0,0.0,0.0,0.0,0.0,0.0,0.0,0.0,0.0,0.0,0.0,0.0,0.0,0.0,0.0,0.0,0.0,0.0,0.0,0.0,0.0,0.0,0.0,0.0,0.0,0.0,0.0,0.0,0.0,0.0,0.0,0.0,0.0,0.0,0.0,0.0,0.0,0.0,0.0,0.0,0.0,0.0,0.0,0.0,0.0,0.0,0.0,0.0,0.0,0.0,0.0,0.0,0.0,0.0,0.0,0.0,0.0,0.0,0.0,0.0,0.0,0.0,0.0,0.0,0.0,-3.0472,0.0,0.0,0.0,0.0,0.0,0.0,0.0,0.0,0.0,0.0,0.0,0.0,0.0,0.0,0.0,0.0,0.0,0.0,0.0,0.0,0.0,0.0,0.0,-2.9572,-2.9766,-2.9705,-2.9837,-3.0054,0.0,0.0,0.0,0.0,0.0,0.0,-3.1257,-3.2483,-3.3358,-3.3797,-3.349,-3.3313,-3.3284,-3.3181,-3.3991,-3.5511,-3.5788,0.0,0.0,0.0,0.0,0.0,0.0,0.0,0.0,0.0,0.0,0.0,0.0,0.0,0.0,0.0,0.0,0.0,0.0,0.0,0.0,0.0,0.0,0.0,0.0,0.0,0.0,0.0,0.0,0.0,0.0,0.0,0.0,0.0,0.0,0.0,0.0,0.0,0.0,0.0,0.0,0.0,0.0,0.0,0.0,0.0,0.0,0.0,0.0,0.0,0.0,0.0,0.0,0.0,0.0,0.0,0.0,0.0,0.0,0.0,0.0,0.0,0.0,0.0,0.0,-3.0866,-3.0866,-3.1022,-3.1031,-3.0934,-3.0827,-3.0723,-3.049,0.0,0.0,0.0,0.0,0.0,0.0,0.0,0.0,0.0,0.0,0.0,0.0,0.0,0.0,0.0,0.0,0.0,0.0,0.0,0.0,0.0,0.0,-2.975,-2.9617,-2.9212,-2.9951,-3.0225,-2.975,0.0,0.0,0.0,0.0,0.0,-3.1123,-3.1559,-3.2188,-3.3026,-3.2821,-3.2777,-3.2864,-3.236,-3.2447,-3.3097,-3.4104,-3.4629,-3.4714,0.0,0.0,0.0,0.0,0.0,0.0,0.0,0.0,0.0,0.0,0.0,0.0,0.0,0.0,0.0,0.0,0.0,0.0,0.0,0.0,0.0,0.0,0.0,0.0,0.0,0.0,0.0,0.0,0.0,0.0,0.0,0.0,0.0,0.0,0.0,0.0,0.0,0.0,0.0,0.0,0.0,-2.8611,-2.9255,0.0,0.0,0.0,0.0,0.0,0.0,0.0,0.0,0.0,0.0,0.0,0.0,0.0,0.0,-3.0774,-3.0794,-3.0774,-3.0791,-3.1532,-3.1903,-3.1923,-3.2684,-3.2628,-3.1909,-3.1903,0.0,-3.0603,-2.9605,0.0,0.0,0.0,0.0,0.0,0.0,0.0,0.0,0.0,0.0,0.0,0.0,0.0,0.0,0.0,0.0,0.0,0.0,0.0,0.0,0.0,-2.6596,-2.4287,-2.3666,-2.074,-2.0479,-2.396,-2.4957,0.0,0.0,0.0,-3.1449,-3.1044,-3.1077,-3.0799,-3.0167,-3.1443,-3.1068,-2.91,-2.9643,-3.0187,-3.0748,-3.1004,-3.2282,-3.4279,-3.4113,0.0,0.0,0.0,0.0,0.0,0.0,0.0,0.0,0.0,0.0,0.0,0.0,0.0,0.0,0.0,0.0,0.0,0.0,0.0,0.0,0.0,0.0,0.0,0.0,0.0,0.0,0.0,0.0,0.0,0.0,0.0,0.0,0.0,0.0,0.0,0.0,0.0,0.0,0.0,-2.9168,-2.87,-2.8115,-2.8466,-2.8583,0.0,0.0,0.0,0.0,0.0,0.0,0.0,0.0,0.0,-3.0193,-3.0721,-3.14,-3.2241,-3.2251,-3.2265,-3.2265,-3.2656,-3.2831,-3.2831,-3.3222,-3.3183,-3.2831,-3.2831,-3.2609,-3.2062,-3.0189,-2.9366,-2.9227,0.0,0.0,0.0,0.0,0.0,0.0,0.0,0.0,0.0,0.0,0.0,0.0,0.0,0.0,0.0,0.0,0.0,0.0,-2.6626,-2.0479,-1.611,-1.545,-1.1238,-1.1255,-1.7319,-1.9355,-2.3125,-2.9361,-3.0942,-3.1411,-3.0861,-3.0382,-2.928,-2.7527,-2.9769,-2.952,-2.7024,-2.7956,-2.8815,-2.9582,-2.8507,-3.0058,-3.3661,-3.3616,-3.3154,-3.2557,0.0,0.0,0.0,0.0,0.0,0.0,0.0,0.0,0.0,0.0,0.0,0.0,0.0,0.0,0.0,0.0,0.0,0.0,0.0,0.0,0.0,0.0,0.0,0.0,0.0,0.0,0.0,0.0,0.0,0.0,0.0,0.0,0.0,0.0,0.0,0.0,0.0,-2.9294,-2.8602,-2.7082,-2.8056,-2.8446,0.0,0.0,0.0,0.0,0.0,0.0,-2.883,-2.9697,-3.0558,-3.1433,-3.2089,-3.285,-3.373,-3.3738,-3.3846,-3.4081,-3.4295,-3.4393,-3.4393,-3.4393,-3.4276,-3.4042,-3.3827,-3.3612,-3.3258,-3.1242,-3.031,-3.0068,-2.9322,-2.8741,0.0,-2.8611,-2.8975,-2.9382,0.0,0.0,0.0,0.0,0.0,0.0,0.0,0.0,0.0,0.0,0.0,-1.9296,-1.8484,-1.0663,-0.5274,-0.4813,-0.49,-0.6852,-1.1263,-1.5877,-2.0439,-2.4947,-2.8854,-3.079,-3.0443,-2.9077,-2.7653,-2.6303,-2.7789,-2.8787,-2.9128,-2.8661,-2.9136,-3.0418,-2.7617,-2.8389,-3.183,-3.1734,-3.135,-3.0844,-3.216,0.0,0.0,0.0,0.0,0.0,0.0,0.0,0.0,0.0,0.0,0.0,0.0,0.0,0.0,0.0,0.0,0.0,0.0,0.0,0.0,0.0,0.0,0.0,0.0,0.0,0.0,0.0,0.0,0.0,0.0,0.0,0.0,0.0,0.0,0.0,0.0,0.0,0.0,-2.7004,-2.9124,0.0,0.0,0.0,0.0,-2.944,-2.9406,-2.9741,-3.0613,-3.1496,-3.2368,-3.323,-3.3318,-3.3749,-3.4628,-3.4636,-3.5057,-3.5874,-3.6716,-3.7106,-3.7106,-3.7106,-3.6657,-3.5815,-3.4998,-3.4159,-3.3398,-3.3258,-3.2674,-3.188,-3.1817,-3.0792,-2.9428,-3.0258,-3.0102,-2.9604,0.0,0.0,0.0,0.0,0.0,0.0,0.0,0.0,-2.9306,-2.7126,-2.1993,-1.7265,-1.3877,-0.4351,0.2502,0.4244,0.6894,0.6823,0.282,-0.6209,-1.3711,-1.8906,-2.6325,-2.9696,-2.8308,-2.7017,-2.5598,-2.4159,-2.5908,-2.5946,-2.4271,-2.4907,-2.5772,-2.6668,-2.5244,-2.6168,-2.8761,-2.9391,-3.007,-3.0791,-3.1514,-3.1942,0.0,0.0,0.0,0.0,0.0,0.0,0.0,0.0,0.0,0.0,0.0,0.0,0.0,0.0,0.0,0.0,0.0,0.0,0.0,0.0,0.0,0.0,0.0,0.0,0.0,0.0,0.0,0.0,0.0,0.0,0.0,0.0,0.0,0.0,0.0,0.0,0.0,-2.8598,-2.9849,0.0,-2.9922,-3.0122,-3.0525,-3.1135,-3.1164,-3.1772,-3.3161,-3.3535,-3.4378,-3.5792,-3.5851,-3.6255,-3.7136,-3.7148,-3.7299,-3.7611,-3.7973,-3.8141,-3.8141,-3.8141,-3.7965,-3.7653,-3.734,-3.6716,-3.5916,-3.5916,-3.4719,-3.2892,-3.2892,-3.2514,-3.2019,-3.2322,-3.19,-3.1217,0.0,0.0,0.0,0.0,0.0,0.0,0.0,0.0,-2.8387,-2.2186,-1.6974,-1.1024,-0.3642,0.6235,1.2965,1.4769,1.757,1.7481,1.3195,0.0796,-0.7978,-1.1592,-2.0973,-2.5981,-2.5716,-2.424,-2.2671,-2.099,-2.3709,-2.3173,-1.9706,-2.135,-2.2688,-2.3651,-2.2304,-2.3663,-2.6976,-2.7175,-2.8203,-2.9837,-3.1182,-3.1832,-3.1999,0.0,0.0,0.0,0.0,0.0,0.0,0.0,0.0,0.0,0.0,0.0,0.0,0.0,0.0,0.0,0.0,0.0,0.0,0.0,0.0,0.0,0.0,0.0,0.0,0.0,0.0,0.0,0.0,0.0,0.0,0.0,0.0,0.0,0.0,0.0,-2.9687,-2.9817,-3.0814,-3.152,-3.1598,-3.1832,-3.2364,-3.3282,-3.3613,-3.4275,-3.5385,-3.5716,-3.6391,-3.7546,-3.759,-3.8005,-3.8863,-3.892,-3.9062,-3.9336,-3.9403,-3.9432,-3.9435,-3.9161,-3.9044,-3.9027,-3.8734,-3.8266,-3.7736,-3.7739,-3.6721,-3.5076,-3.4178,-3.3651,-3.3398,-3.3398,-3.3027,-3.2536,0.0,0.0,0.0,0.0,0.0,0.0,0.0,-2.9597,-2.6926,-1.6391,-0.9156,-0.0217,1.2237,2.0919,2.6014,2.6538,2.6324,2.3948,1.8658,0.4658,-0.3504,-0.3661,-1.3157,-1.9872,-2.2899,-2.0741,-1.8858,-1.7286,-2.128,-2.0757,-1.6118,-1.8497,-2.0406,-2.1624,-1.9016,-2.1034,-2.6367,-2.523,-2.5828,-2.7879,-3.1042,-3.2088,-3.1892,0.0,0.0,0.0,0.0,0.0,0.0,0.0,0.0,0.0,0.0,0.0,0.0,0.0,0.0,0.0,0.0,0.0,0.0,0.0,0.0,0.0,0.0,0.0,0.0,0.0,0.0,0.0,0.0,0.0,0.0,0.0,0.0,0.0,-2.8951,-2.9771,-3.043,-3.0627,-3.2116,-3.318,-3.3339,-3.4124,-3.4964,-3.5806,-3.6669,-3.7155,-3.7175,-3.7972,-3.8424,-3.8373,-3.8432,-3.885,-3.9623,-3.9761,-4.0232,-4.0994,-4.1066,-4.1094,-4.108,-4.0299,-3.9932,-3.9896,-3.9038,-3.8664,-3.8639,-3.8645,-3.8624,-3.8358,-3.5779,-3.4276,-3.3515,-3.3495,-3.3456,-3.3431,0.0,0.0,0.0,0.0,0.0,0.0,-2.7845,-2.9573,-2.597,-1.2391,-0.7085,0.1241,1.642,2.2414,2.6153,2.8219,2.6736,2.2618,1.526,1.08,0.3139,-0.8664,-1.6176,-2.1464,-2.4341,-1.8377,-1.7311,-2.1755,-1.9822,-1.8171,-1.6916,-1.7434,-1.7979,-1.8482,-1.8238,-2.0029,-2.3525,-2.5181,-2.6572,-2.7846,-2.9393,-3.1065,-3.264,0.0,0.0,0.0,0.0,0.0,0.0,0.0,0.0,0.0,0.0,0.0,0.0,0.0,0.0,0.0,0.0,0.0,0.0,0.0,0.0,0.0,0.0,0.0,0.0,0.0,0.0,0.0,0.0,0.0,0.0,0.0,0.0,-3.0411,-2.9979,-3.1149,-3.2538,-3.3901,-3.5056,-3.601,-3.6695,-3.7065,-3.7356,-3.7594,-3.7828,-3.8255,-3.8885,-3.9138,-3.9557,-4.0169,-4.0207,-4.0313,-4.0546,-4.0578,-4.073,-4.0991,-4.1012,-4.1054,-4.1086,-4.0871,-4.0775,-4.0755,-4.0521,-4.0072,-3.9543,-3.9541,-3.9168,-3.8461,-3.7116,-3.6448,-3.615,-3.5525,-3.4881,-3.4256,0.0,0.0,0.0,0.0,0.0,0.0,-2.7809,-3.0069,-2.5386,-0.756,-0.4328,0.3458,2.2272,2.6269,2.8166,2.9716,2.8993,2.4656,1.5699,1.0233,-0.0373,-1.7566,-1.7671,-1.8964,-2.2558,-1.7225,-1.5525,-1.7717,-1.6228,-1.4448,-1.2457,-1.3368,-1.3881,-1.4079,-1.5755,-1.7904,-2.0564,-2.3798,-2.5882,-2.71,-2.8084,-3.0373,-3.3134,-3.2561,-3.2859,-3.3579,-3.3605,-3.3541,-3.3502,-3.3842,0.0,0.0,0.0,0.0,0.0,0.0,0.0,0.0,0.0,0.0,0.0,0.0,0.0,0.0,0.0,0.0,0.0,0.0,0.0,0.0,0.0,0.0,0.0,0.0,-3.1705,-3.2248,-3.2233,-3.3042,-3.4279,-3.6117,-3.6814,-3.7493,-3.8439,-3.8581,-3.8967,-3.9738,-3.9807,-4.0206,-4.114,-4.1198,-4.1401,-4.1884,-4.1903,-4.1903,-4.1903,-4.1926,-4.1602,-4.0928,-4.1308,-4.1158,-4.0524,-4.0898,-4.1074,0.0,-4.1132,-4.0857,-4.0405,-4.0425,-4.0131,0.0,0.0,0.0,0.0,0.0,-3.545,-3.4686,0.0,0.0,0.0,0.0,0.0,0.0,-2.8009,-3.0718,-2.4917,-0.2946,-0.1482,0.6012,2.821,3.0819,3.1001,3.1132,3.1987,2.8428,1.872,0.5002,-0.9367,-2.4193,-1.6881,-1.444,-1.8803,-1.6132,-1.33,-1.0349,-1.1995,-1.0529,-0.6344,-0.85,-0.9468,-0.9723,-1.2847,-1.5605,-1.8145,-2.189,-2.4398,-2.6032,-2.7245,-2.9992,-3.3254,-3.2844,-3.3106,-3.363,-3.339,-3.3232,-3.322,-3.3502,0.0,0.0,0.0,0.0,0.0,0.0,0.0,0.0,0.0,0.0,0.0,0.0,0.0,0.0,0.0,0.0,0.0,0.0,0.0,0.0,0.0,0.0,0.0,0.0,-3.3411,-3.4301,-3.5192,-3.5325,-3.5932,-3.7528,-3.7908,-3.8383,-3.9272,-3.9461,-4.0213,-4.1875,-4.2019,-4.2408,-4.333,0.0,0.0,0.0,0.0,-4.3305,-4.3305,-4.3361,-4.2578,-4.0963,-4.1786,-4.1373,-3.9872,-4.0652,-4.103,-4.1085,-4.1168,-4.1152,-4.1093,-4.1152,-4.1151,-4.0931,-3.9366,-3.8151,-3.7214,-3.6435,-3.5591,0.0,0.0,0.0,0.0,0.0,0.0,0.0,-2.9037,-3.04,-2.3833,-0.2763,-0.0195,0.7788,2.9065,3.127,3.1563,3.2441,3.2196,2.909,2.2133,-0.152,-1.2539,-0.6336,-0.9777,-1.3279,-1.6296,-1.0847,-1.0064,-1.4282,-1.1599,-0.9809,-0.8893,-0.9448,-0.9704,-0.9926,-1.3303,-1.6219,-1.8734,-2.209,-2.4477,-2.6154,-2.7813,-2.9942,-3.2193,-3.2494,-3.2987,-3.3562,-3.3826,-3.3512,-3.3024,-3.3444,-3.3605,-3.3633,-3.3807,-3.3308,0.0,0.0,0.0,0.0,0.0,0.0,0.0,0.0,0.0,0.0,0.0,0.0,0.0,0.0,0.0,0.0,0.0,0.0,0.0,-3.4226,-3.5154,-3.6234,-3.775,-3.7959,-3.8093,-3.8436,-3.9774,-4.073,-4.0941,-4.1647,-4.2219,-4.2598,-4.2775,-4.295,-4.3158,-4.3258,0.0,-4.3305,-4.3305,-4.3305,-4.3305,-4.3312,-4.2823,-4.184,0.0,0.0,-4.0746,-4.0914,-4.1011,-4.1011,-4.1085,-4.1119,-4.1101,-4.1113,-4.1112,-4.0994,-4.0033,-3.8684,-3.7279,-3.7104,-3.6497,-3.5774,0.0,0.0,0.0,0.0,0.0,0.0,-2.9353,-3.0486,-2.3819,-0.2921,-0.0159,0.8016,2.929,3.1606,3.202,3.3033,2.8484,2.4351,2.1535,0.3528,-0.5304,-0.1441,-0.4814,-0.7327,-0.8537,-0.7134,-0.603,-0.525,-0.5,-0.3957,-0.2255,-0.2094,-0.3047,-0.5169,-0.8306,-1.2079,-1.6183,-1.941,-2.1945,-2.4116,-2.6699,-2.8558,-2.9939,-3.2107,-3.3127,-3.3342,-3.3354,-3.309,-3.2834,-3.325,-3.3415,-3.3444,-3.3671,-3.3283,-3.236,0.0,0.0,0.0,0.0,0.0,0.0,0.0,0.0,0.0,0.0,0.0,0.0,0.0,0.0,-3.0937,-3.2398,0.0,-3.3913,-3.5673,-3.6778,-3.7732,-3.8586,-3.9039,-3.9304,-3.9304,-4.0469,-4.1311,-4.1311,-4.2098,-4.281,-4.3311,-4.3446,-4.3712,-4.4207,-4.4295,-4.4395,-4.4457,-4.4457,-4.4486,-4.4543,-4.4156,-4.3312,-4.2047,-4.2047,-4.1421,-4.0276,-4.0746,-4.0957,-4.0937,-4.1011,-4.1057,-4.1042,-4.1082,-4.109,-4.1052,-4.0683,-3.949,-3.7908,-3.7458,-3.6755,-3.5991,0.0,0.0,0.0,0.0,0.0,0.0,0.0,-3.0484,-2.4543,-0.5856,-0.3321,0.4142,2.3613,2.6006,2.7428,3.0561,2.2593,1.8419,2.0861,1.176,0.4536,0.0629,-0.0295,-0.0958,-0.1372,-0.4779,-0.3194,0.3725,0.1156,0.1628,0.5024,0.5408,0.3443,-0.0573,-0.3371,-0.7964,-1.3752,-1.6847,-1.9617,-2.2139,-2.5601,-2.7129,-2.7878,-3.1599,-3.3023,-3.2974,-3.2826,-3.2608,-3.2459,-3.3014,-3.3141,-3.311,-3.3476,-3.3177,-3.2346,-3.0538,-2.9951,0.0,0.0,0.0,0.0,0.0,0.0,0.0,0.0,-2.9439,-3.017,-3.0367,-3.0656,-3.1575,-3.3914,-3.4104,-3.4657,-3.6864,-3.8143,-3.8864,-3.8925,-3.9494,-3.9889,-3.9889,-4.0688,-4.1275,-4.1427,-4.2185,-4.305,-4.4021,-4.4122,-4.4512,-4.5323,-4.5381,-4.5438,-4.5563,-4.558,-4.5645,-4.5752,-4.4993,-4.3808,-4.2241,-4.2086,-4.1216,-3.9777,-4.0546,-4.0878,-4.0888,-4.0957,-4.1,-4.0994,-4.1061,-4.1078,-4.1081,-4.1142,-4.029,-3.8944,-3.793,-3.6893,-3.5993,0.0,0.0,0.0,0.0,0.0,0.0,0.0,0.0,-2.6103,-1.5465,-1.3459,-0.8493,0.3475,0.5386,1.0167,2.1071,1.5225,1.4844,2.4003,1.6719,1.089,0.8157,0.4852,0.1785,-0.1039,-0.4483,-0.4224,-0.0174,-0.0446,0.1259,0.4746,0.465,0.2609,-0.1053,-0.3849,-0.8578,-1.4514,-1.7609,-2.012,-2.2381,-2.6021,-2.7327,-2.733,-3.0752,-3.2177,-3.2422,-3.3134,-3.2596,-3.1682,-3.2816,-3.2868,-3.2611,-3.3368,-3.3671,-3.3254,-3.0709,-2.9857,-2.9375,-2.7759,-2.7176,-2.7361,-2.878,-2.8673,-2.8594,0.0,-3.0704,-3.1164,-3.2104,-3.2956,-3.3894,-3.4969,-3.6318,-3.7452,-3.7989,-3.8831,-3.9491,-3.9716,-3.9832,-3.9889,-3.9889,-4.0688,-4.1484,-4.2204,-4.3057,-4.3891,-4.473,-4.495,-4.5118,-4.5235,-4.5341,-4.5419,-4.5419,-4.5545,-4.5613,-4.5629,-4.4931,-4.4117,-4.315,-4.2376,-4.1525,-4.0655,-4.0757,-4.0815,-4.0808,-4.0878,-4.0949,-4.0994,-4.1019,-4.1006,-4.1006,-4.1011,-4.0894,-4.056,-3.9019,-3.7402,-3.5996,0.0,0.0,0.0,0.0,0.0,0.0,0.0,0.0,0.0,-1.7432,-1.5647,-1.124,-0.0738,0.1417,0.4625,1.0902,1.2745,1.625,2.2575,2.2134,2.1535,2.136,1.3985,0.9262,0.8027,0.0513,-0.1663,0.2075,0.0267,0.2236,0.7753,0.7915,0.5904,0.2148,0.0925,-0.5001,-1.4327,-1.6204,-1.9371,-2.3312,-2.6609,-2.7879,-2.8123,-3.0852,-3.1554,-3.1164,-3.1969,-3.1938,0.0,-3.1999,-3.1937,-3.179,-3.2232,-3.236,-3.1931,-2.9905,-2.9493,-2.934,-2.7607,-2.7754,-2.8459,-2.8655,-2.9494,-3.0433,-3.1166,-3.2116,-3.2865,-3.2857,-3.3964,-3.5064,-3.544,-3.6805,-3.8059,-3.8592,-3.9282,-3.9781,-3.9889,-3.9513,-3.9191,-3.9191,-3.9513,-4.0252,-4.1579,-4.2905,-4.3834,-4.4175,-4.4702,-4.5033,-4.5033,-4.5065,-4.5154,-4.5279,-4.5341,-4.5438,-4.5596,-4.4816,-4.4047,-4.3285,-4.2415,-4.1583,-4.079,-4.079,-4.079,-4.0803,-4.0831,-4.0856,-4.0888,-4.0924,-4.0949,-4.0949,-4.0974,-4.0695,-4.0103,-3.8961,-3.8077,-3.7317,0.0,0.0,0.0,0.0,0.0,0.0,0.0,0.0,0.0,0.0,-2.0528,-1.7452,-0.9563,-0.7026,-0.4243,-0.0182,0.5493,1.0795,1.5418,1.893,2.0536,1.9947,1.313,0.8814,0.7843,0.0748,-0.1134,0.2587,0.0264,0.2302,0.8297,0.9345,0.7344,0.2921,0.2518,-0.3785,-1.4215,-1.6632,-1.9918,-2.3778,-2.7037,-2.8325,-2.8479,-3.0582,-3.0976,-3.0431,-3.1144,-3.1172,-3.0914,-3.1281,-3.1199,-3.1009,-3.1379,-3.1403,-3.1002,-2.957,-2.9275,-2.9132,-2.7718,-2.8389,-2.949,-2.9476,-3.0779,-3.2135,-3.2563,-3.3434,-3.4089,-3.3745,-3.4519,-3.5335,-3.5652,-3.6802,-3.7877,-3.846,-3.9214,-3.9758,-3.9781,-3.9148,-3.87,-3.87,-3.8491,-3.8812,-4.0025,-4.209,-4.3436,-4.3682,-4.4459,-4.4895,-4.4895,-4.4895,-4.4967,-4.5125,-4.517,-4.53,-4.5493,-4.4664,-4.3901,-4.3231,-4.2361,-4.1538,-4.079,-4.079,-4.079,-4.079,-4.079,-4.079,-4.0803,-4.0856,-4.0868,-4.0868,-4.0924,-4.0404,-3.9556,-3.8745,-3.8307,-3.7933,0.0,0.0,0.0,0.0,0.0,0.0,0.0,0.0,0.0,0.0,0.0,0.0,0.0,-2.7111,-2.1605,-1.2472,-1.0471,-0.6538,0.0934,0.2586,0.0639,-0.524,-0.398,-0.5081,-0.9287,-0.7585,-0.4865,-0.1306,-0.1134,0.0782,0.4306,0.6939,0.483,-0.117,-0.2476,-0.7213,-1.462,-2.0368,-2.2903,-2.3375,-2.7168,-2.8264,-2.7786,-2.9502,-3.0362,-3.0751,-3.1225,-3.0482,-2.9501,-3.0917,-3.0913,-3.047,-3.1262,-3.1495,-3.1305,-3.0257,-2.943,-2.8737,-2.8282,-2.89,-3.0188,-3.2232,-3.2827,-3.3241,-3.4757,-3.4579,-3.4345,-3.5259,-3.486,-3.4623,-3.5512,-3.6513,-3.7259,-3.7351,-3.8461,-3.9376,-3.9483,-3.9041,-3.87,-3.87,-3.794,-3.7447,0.0,-4.0498,-4.2791,-4.3644,-4.4459,-4.4895,-4.4895,-4.4895,-4.4895,-4.4895,-4.5103,-4.5192,-4.5213,-4.4479,-4.3766,-4.3096,-4.221,-4.1456,-4.079,-4.079,-4.079,-4.079,-4.079,-4.079,-4.079,-4.0803,-4.0803,-4.0803,-4.0803,-4.0261,-3.9414,-3.8598,-3.7809,-3.7141,0.0,0.0,0.0,0.0,0.0,0.0,0.0,0.0,0.0,0.0,0.0,0.0,0.0,0.0,0.0,0.0,-1.9001,-1.3515,-0.8734,-0.3109,-0.0496,-0.1717,-0.6517,-0.9297,-0.9708,-1.4117,-1.4048,-0.916,-0.9081,-0.5879,0.0261,0.3552,0.2699,-0.159,0.0345,-0.5124,-1.6093,-1.8552,-2.228,-2.6631,-2.8305,-2.9123,-2.9452,-2.9841,-2.9902,-2.9827,0.0,-3.0071,-2.9743,-2.9879,-2.9757,-2.955,-2.9826,-2.9918,-2.9839,-2.9494,-2.949,-2.9628,-2.9863,-3.0848,-3.2102,-3.3398,-3.4472,-3.5346,-3.5882,-3.6221,-3.622,-3.545,-3.559,-3.5603,-3.4828,-3.61,-3.7272,-3.7284,-3.8311,-3.9109,-3.9163,-3.8551,-3.7984,-3.7604,-3.7307,0.0,0.0,0.0,0.0,-4.1977,-4.3322,-4.4345,-4.4876,-4.4895,-4.4895,-4.4895,-4.4986,-4.508,-4.5192,-4.4951,-4.4479,-4.3748,-4.2347,-4.1588,-4.1441,-4.0858,-4.0668,-4.079,-4.079,-4.079,-4.079,-4.079,-4.079,-4.0732,-4.0152,-3.9758,-3.941,-3.8554,-3.7695,-3.6899,0.0,0.0,0.0,0.0,0.0,0.0,0.0,0.0,0.0,0.0,0.0,0.0,0.0,0.0,0.0,0.0,0.0,-2.2144,-2.0908,-1.5351,-1.2274,-1.2644,-1.5951,-1.7451,-1.6674,-1.9696,-1.9361,-1.5438,-1.3982,-1.0684,-0.551,0.0252,0.0599,-0.3563,-0.1807,-0.672,-1.6577,-2.0403,-2.4267,-2.7967,-2.8966,-2.9772,-3.0311,-2.9822,-2.9585,0.0,-2.9612,-2.9709,-2.9724,-2.9363,-2.9218,-2.9197,-2.9112,-2.9044,-2.9053,-2.9324,-2.9887,-3.0547,-3.134,-3.2678,-3.3981,-3.4755,-3.5882,-3.6827,-3.6827,-3.6774,-3.6363,-3.5113,-3.4876,-3.4479,-3.3203,-3.457,-3.5976,-3.6157,-3.7452,-3.8506,-3.8792,-3.8201,-3.7652,-3.7318,-3.7025,-3.7042,0.0,0.0,0.0,-4.1518,-4.3189,-4.4345,-4.4876,-4.4895,-4.4895,-4.4895,-4.4895,-4.4943,-4.5103,-4.5103,-4.4582,-4.3541,-4.2239,-4.1485,-4.1242,-4.0681,-4.0496,-4.0626,-4.0668,-4.07,-4.07,-4.0778,-4.079,-4.0732,-4.0172,-3.9572,-3.8972,-3.8411,-3.7464,-3.6441,0.0,0.0,0.0,0.0,0.0,0.0,0.0,0.0,0.0,0.0,0.0,0.0,0.0,0.0,0.0,0.0,0.0,0.0,-3.453,-3.2938,-3.33,-3.647,-3.1592,-2.9094,-2.9729,-2.4627,-2.1351,-2.0205,-1.6424,-1.4016,-1.2815,-0.331,-0.1973,-0.7571,-0.8743,-1.1817,-1.661,-2.5315,-2.8411,-2.7512,-2.909,-2.9973,-3.0265,-2.9497,-2.9476,-2.9826,-2.9505,-2.939,-2.9386,-2.9344,-2.9384,-2.9421,-2.923,-2.9049,-2.9089,-2.9904,-3.0636,-3.1474,-3.2719,-3.4261,-3.5705,-3.6326,-3.7023,-3.7577,-3.7541,-3.6328,-3.4989,-3.4285,-3.2885,-3.156,-3.0825,-3.2162,-3.3551,-3.406,-3.5945,-3.7613,-3.8295,-3.8007,-3.7711,-3.7757,-3.7126,-3.6951,-3.7682,0.0,0.0,-4.2267,0.0,-4.4857,-4.4895,-4.4895,-4.4895,-4.4895,-4.4895,-4.4895,-4.4895,-4.4895,-4.4132,-4.2633,-4.1973,-4.1185,-4.0341,-4.0302,-4.0281,-4.03,-4.0431,-4.0496,-4.0511,-4.07,-4.0778,-4.079,-4.0752,-3.9688,-3.8199,-3.816,-3.7096,-3.5822,0.0,0.0,0.0,0.0,0.0,0.0,0.0,0.0,0.0,0.0,0.0,0.0,0.0,0.0,0.0,0.0,0.0,0.0,-3.4671,-3.4592,-3.4706,-3.5117,-3.4787,-3.4093,-3.303,-3.2197,-2.9669,-2.5313,-2.3931,-2.1638,-1.8307,-1.2576,-1.1917,-1.5255,-1.2555,-1.4899,-2.0997,-2.3098,-2.5682,-2.843,-2.8668,-2.9074,-2.9561,-2.9225,-2.9227,-2.937,-2.9357,-2.9344,-2.9326,-2.9415,-2.9824,-3.0256,-3.006,-3.0373,-3.0968,-3.1733,-3.2302,-3.2967,-3.4461,-3.548,-3.6344,-3.7113,-3.7434,-3.7434,-3.6827,-3.5917,-3.4829,-3.3505,-3.2416,-3.1469,-3.0701,-3.1948,-3.314,-3.3275,-3.5321,-3.6949,-3.7133,-3.7561,-3.7725,-3.7308,-3.7595,-3.7949,-3.839,-3.9801,0.0,0.0,-4.3382,-4.427,-4.4876,-4.4895,-4.4895,-4.4895,-4.4895,-4.4895,-4.4895,-4.4895,-4.4359,-4.3269,-4.2446,-4.1665,-4.0955,-4.0308,-4.0043,-4.0174,-4.0298,-4.0351,-4.0351,-4.0419,-4.05,-4.0516,-3.9918,-3.9071,-3.8121,-3.7464,-3.6574,-3.5734,0.0,0.0,0.0,0.0,0.0,0.0,0.0,0.0,0.0,0.0,0.0,0.0,0.0,0.0,0.0,0.0,0.0,0.0,0.0,-3.5445,-3.5451,-3.5056,-3.5791,-3.5751,-3.4747,-3.5155,-3.3707,-3.0162,-2.7732,-2.515,-2.2393,-1.6418,-1.5256,-1.8078,-1.5756,-1.7676,-2.2814,-2.4275,-2.6529,0.0,0.0,-2.9223,-2.9737,-2.9297,-2.9197,-2.9262,-2.9351,-2.9353,-2.9328,-2.9638,-3.0039,-3.0498,-3.0619,-3.0986,-3.1565,-3.2575,-3.3277,-3.4029,-3.5495,-3.6397,-3.7023,-3.747,-3.7327,-3.6845,-3.606,-3.5007,-3.374,-3.217,-3.1225,-3.044,-2.9654,-3.0808,-3.2031,-3.2389,-3.4479,-3.6197,-3.659,-3.7308,-3.7827,-3.7959,-3.8355,-3.8948,-3.979,-4.0815,-4.1809,0.0,-4.3297,-4.3914,-4.4465,-4.4511,-4.4557,-4.4719,-4.4719,-4.4719,-4.4719,-4.4719,-4.4082,-4.2862,-4.2354,-4.1537,-4.0424,-3.9951,-3.9772,-3.9842,0.0,-4.0043,-4.0043,-4.01,-4.0173,-4.0166,-3.9413,-3.8631,-3.7844,-3.7128,-3.6323,-3.562,0.0,0.0,0.0,0.0,0.0,0.0,0.0,0.0,0.0,0.0,0.0,0.0,0.0,0.0,0.0,0.0,0.0,0.0,0.0,0.0,-3.5728,-3.5617,-3.5591,-3.5548,-3.5427,-3.5383,-3.4912,-3.4005,-2.9601,-2.6959,-2.5893,-1.8814,-1.6928,-1.9487,-1.9381,-2.0897,-2.3688,-2.7,-2.8716,-2.9263,-2.9293,-2.9671,-3.0134,0.0,-2.9262,-2.9326,-2.9435,-2.9379,-2.9347,-2.9954,-3.0302,-3.0557,-3.1071,-3.1364,-3.1783,-3.3141,-3.4006,-3.4824,-3.6201,-3.7059,-3.7577,-3.7577,-3.6988,-3.6167,-3.5275,-3.3847,-3.2277,-3.0689,-2.9762,-2.903,-2.8352,-2.9387,-3.0618,-3.1403,-3.3437,-3.5256,-3.6254,-3.7076,-3.7864,-3.8798,-3.9085,-3.9732,-4.1079,-4.165,-4.225,-4.2923,-4.3246,-4.3568,-4.3937,-4.3937,-4.4114,-4.4421,-4.4374,-4.4374,-4.4487,-4.4261,-4.3444,-4.1972,-4.186,-4.0978,-3.9458,-3.9458,-3.9458,-3.9483,0.0,0.0,-3.9687,-3.9802,-3.9867,-3.983,-3.9223,-3.8478,-3.7693,-3.7218,-3.6444,-3.563,0.0,0.0,0.0,0.0,0.0,0.0,0.0,0.0,0.0,0.0,-3.3275,-3.3919,0.0,0.0,0.0,0.0,0.0,0.0,0.0,0.0,0.0,-3.5606,-3.5592,-3.5572,-3.5474,-3.5273,-3.474,-3.3925,-3.249,-3.1334,-3.0355,-2.8378,-2.7348,-2.7214,-2.6674,-2.6471,-2.659,-2.7459,-2.7899,-2.8059,-2.8706,-2.9088,-2.9251,-2.9274,0.0,0.0,-2.9409,-2.9307,-2.9314,-3.052,-3.1089,-3.136,-3.1792,-3.2518,-3.3439,-3.4798,-3.5151,-3.5381,-3.6988,-3.747,-3.7577,-3.7577,-3.6988,-3.6024,-3.4615,-3.3045,-3.1474,-2.9904,-2.8976,-2.836,-2.8217,-2.8976,-2.9851,-3.06,-3.217,-3.3794,-3.5221,-3.6149,-3.6934,-3.7774,-3.897,-3.9863,-4.0131,-4.1425,0.0,0.0,0.0,-4.2847,-4.3634,-4.3666,-4.3812,-4.4095,-4.369,-4.3765,-4.4344,-4.3071,-4.2227,-4.1829,-4.1164,-4.0304,-3.935,-3.935,-3.935,-3.935,0.0,0.0,-3.9532,-3.9561,-3.9637,-3.9716,-3.9605,-3.9121,-3.8499,-3.8404,-3.7467,-3.6255,0.0,0.0,0.0,0.0,0.0,0.0,0.0,-2.9553,-3.1499,-3.2362,-3.2979,-3.372,-3.4728,-3.5269,-3.5545,0.0,0.0,0.0,0.0,0.0,0.0,-3.5601,-3.5613,-3.5533,-3.5354,-3.5226,-3.4914,-3.4426,0.0,-3.2195,-3.1634,-3.0332,-2.9455,-2.8981,-2.8553,-2.8198,-2.7926,-2.8047,-2.8166,-2.8324,-2.8821,-2.9089,-2.9218,-2.9197,0.0,0.0,-2.924,-2.9112,-2.9093,-3.0159,-3.0534,-3.0782,-3.2097,-3.2931,-3.3665,-3.5004,-3.5305,-3.556,-3.7148,-3.7577,-3.7487,-3.7077,-3.6363,-3.5257,-3.3294,-3.1938,-3.0636,-2.9101,-2.8477,-2.8182,-2.8182,-2.8869,-2.953,-2.9869,-3.1242,-3.267,-3.383,-3.5025,-3.6238,-3.7434,-3.8968,-4.0075,-4.0485,-4.1591,-4.2287,0.0,0.0,0.0,-4.3123,-4.2896,-4.2831,-4.2963,-4.2477,-4.2363,-4.2693,-4.2089,-4.1568,-4.1073,-4.0663,-4.003,-3.9192,-3.9192,-3.9192,-3.9192,0.0,0.0,-3.9298,-3.9298,-3.9331,-3.9358,-3.8995,-3.8653,-3.8294,-3.7558,-3.6824,-3.6141,0.0,0.0,0.0,0.0,0.0,0.0,0.0,-2.914,-3.0985,-3.1933,-3.267,-3.3524,-3.4563,-3.5143,-3.5468,0.0,0.0,0.0,0.0,0.0,0.0,0.0,0.0,0.0,-3.519,0.0,0.0,-3.4489,-3.2968,0.0,0.0,0.0,0.0,0.0,-2.8569,-2.8484,-2.8458,-2.8466,-2.8594,0.0,0.0,-2.9175,0.0,0.0,0.0,0.0,0.0,-2.8934,-2.8919,-2.9664,-2.9807,-2.9962,-3.1786,-3.266,-3.3196,-3.436,-3.4847,-3.5275,-3.6684,-3.7077,-3.6934,-3.6221,-3.5438,-3.4248,-3.2076,-3.0911,-2.9887,-2.8475,-2.8154,-2.8109,-2.8182,-2.8727,-2.9208,-2.9369,-3.0422,-3.1599,-3.2755,-3.4079,-3.556,-3.7131,-3.8719,-3.9985,-4.077,-4.1573,0.0,0.0,0.0,0.0,-4.2595,-4.2177,-4.1904,-4.1904,-4.1229,-4.0919,-4.1103,-4.104,-4.077,-4.0306,-4.0168,-3.9751,-3.9101,-3.9101,-3.9101,-3.9101,0.0,0.0,0.0,-3.9101,-3.9101,-3.9045,-3.8521,-3.8313,-3.8152,-3.6878,-3.633,-3.609,0.0,0.0,0.0,0.0,0.0,0.0,0.0,-2.8331,-3.0188,-3.1487,-3.2535,-3.3415,-3.3926,-3.4556,-3.5132,0.0,0.0,0.0,0.0,0.0,0.0,0.0,0.0,0.0,0.0,0.0,0.0,-3.3168,-3.2821,0.0,0.0,0.0,0.0,0.0,0.0,-2.8406,-2.8237,-2.8432,0.0,0.0,0.0,0.0,0.0,0.0,0.0,0.0,0.0,-2.8815,-2.8895,-2.9536,-2.9593,-2.9576,-3.044,-3.1404,-3.2306,-3.2943,-3.3633,-3.4383,-3.5204,-3.5435,-3.5349,-3.4958,-3.4233,-3.3231,-3.1526,-3.0347,-2.934,-2.839,-2.7968,-2.7836,-2.8154,-2.8253,-2.8538,-2.928,-2.953,-3.0386,-3.2581,-3.3651,-3.4775,-3.6328,-3.7933,-3.92,-3.995,-4.0753,-4.1502,0.0,0.0,0.0,0.0,-4.1893,-4.163,-4.163,-4.0429,-4.009,-4.0836,-3.9651,-3.9405,-4.0031,-3.948,-3.9175,-3.9101,-3.9101,-3.9101,-3.9101,0.0,0.0,0.0,-3.9101,-3.9101,-3.9082,-3.9036,-3.9017,-3.8906,-3.804,-3.7336,-3.6713,0.0,0.0,0.0,0.0,0.0,0.0,-2.6269,-2.804,-2.9782,-3.1057,-3.2022,-3.2862,-3.3534,-3.3999,-3.4491,-3.5124,0.0,0.0,0.0,0.0,0.0,0.0,0.0,0.0,0.0,0.0,-3.424,-3.3531,-3.249,0.0,0.0,0.0,0.0,0.0,0.0,-2.8291,-2.8227,-2.8291,0.0,0.0,0.0,0.0,0.0,0.0,0.0,0.0,0.0,0.0,-2.8674,-2.8897,-2.8838,-2.8744,-2.9002,-2.973,-3.0801,-3.2398,-3.3116,-3.3633,-3.4882,-3.503,-3.4747,-3.4146,-3.321,-3.2073,-3.0507,-2.9453,-2.867,-2.8035,-2.7789,-2.7789,-2.8154,-2.8182,-2.8289,-2.8637,-2.8691,-2.9333,-3.1189,-3.2152,-3.3419,-3.5435,-3.7095,-3.8558,0.0,0.0,0.0,0.0,0.0,0.0,0.0,-4.0513,-3.9908,-3.9908,-3.9083,-3.8803,-3.9111,-3.8743,-3.8706,-3.9048,-3.8951,-3.8921,-3.8921,-3.9045,-3.9101,-3.9101,0.0,0.0,0.0,-3.9101,-3.9101,-3.9101,-3.9101,-3.9101,-3.9008,-3.8191,-3.74,-3.6652,0.0,0.0,0.0,0.0,0.0,-2.5296,-2.5903,-2.7514,-2.914,-3.0426,-3.1524,-3.2468,-3.3135,-3.3579,-3.4024,-3.4561,-3.504,0.0,0.0,0.0,0.0,0.0,0.0,0.0,0.0,0.0,-3.4269,-3.3807,-3.2438,-3.1425,0.0,0.0,-2.8433,-2.8053,0.0,0.0,0.0,0.0,0.0,0.0,0.0,0.0,0.0,0.0,0.0,0.0,0.0,0.0,0.0,0.0,0.0,-2.8182,-2.8182,-2.8528,-2.926,-3.1155,-3.2107,-3.2727,-3.3596,-3.39,-3.3792,-3.2997,-3.2012,-3.0932,-2.9625,-2.8682,-2.7979,-2.76,-2.7474,-2.7552,-2.795,-2.8053,-2.8081,-2.8182,-2.8294,-2.8852,-3.0285,-3.1182,-3.2464,-3.4462,-3.5919,-3.734,0.0,-4.005,0.0,0.0,0.0,0.0,0.0,-3.9165,-3.8558,-3.8808,-3.8205,-3.788,-3.788,-3.8153,-3.8285,-3.8285,-3.8559,-3.8683,-3.8683,-3.8844,-3.8931,0.0,0.0,0.0,0.0,-3.9101,-3.9101,-3.9101,-3.9101,-3.9101,-3.9008,-3.8191,-3.7541,-3.6928,0.0,0.0,0.0,0.0,0.0,0.0,-2.4878,-2.6572,-2.8174,-2.9443,-3.1124,-3.2369,-3.2763,-3.3405,-3.3825,-3.3887,-3.4519,0.0,0.0,0.0,0.0,0.0,0.0,0.0,0.0,0.0,-3.3998,-3.3605,-3.2785,-3.1727,-3.0493,-2.9395,-2.8469,-2.7701,0.0,0.0,0.0,0.0,0.0,0.0,0.0,0.0,0.0,0.0,0.0,0.0,0.0,0.0,0.0,0.0,0.0,0.0,0.0,-2.7996,-2.7889,-2.8697,-3.0264,-3.1564,-3.0838,-3.1464,-3.2109,-3.1317,-3.0565,-2.982,-2.9073,-2.8092,-2.7303,-2.7208,-2.6956,-2.6906,-2.7565,-2.7701,-2.7818,-2.8154,-2.8547,-2.9185,-3.0345,-3.1199,-3.2154,-3.3353,-3.4233,-3.5342,-3.6893,0.0,0.0,0.0,0.0,0.0,0.0,0.0,-3.7969,-3.8772,-3.8005,-3.7613,-3.7613,-3.788,-3.8018,-3.8018,-3.8285,-3.8415,-3.8415,-3.8415,0.0,0.0,0.0,0.0,0.0,-3.9101,-3.9101,-3.9101,-3.9101,-3.9101,-3.9008,-3.8191,-3.7894,-3.7764,0.0,0.0,0.0,0.0,0.0,0.0,0.0,-2.5869,-2.7195,-2.9041,-3.033,-3.1342,-3.2004,-3.2934,-3.339,-3.3045,-3.4083,0.0,0.0,0.0,0.0,0.0,0.0,0.0,0.0,0.0,-3.3868,-3.3605,-3.2645,-3.1603,-3.0493,-2.9395,-2.8469,-2.7701,-2.7701,-2.7701,0.0,0.0,0.0,0.0,0.0,0.0,0.0,0.0,0.0,0.0,0.0,0.0,0.0,0.0,0.0,0.0,0.0,0.0,0.0,-2.7392,-2.8362,-2.9557,-3.0049,-3.0076,-2.9985,-3.0019,-2.9059,-2.8102,-2.7848,-2.7175,-2.6612,-2.6809,-2.6758,-2.6825,-2.7276,-2.7369,-2.74,-2.7491,-2.7639,-2.8216,-2.96,-3.0439,-3.1629,-3.3592,-3.5005,-3.608,0.0,0.0,0.0,0.0,0.0,0.0,0.0,0.0,-3.7702,-3.7969,-3.7719,-3.7577,-3.7577,-3.7685,-3.7721,-3.7721,-3.7984,-3.8119,-3.8119,-3.8318,0.0,0.0,0.0,0.0,0.0,-3.8833,-3.8892,-3.8836,-3.8311,-3.8393,-3.8799,-3.7776,-3.7492,-3.7599,0.0,0.0,0.0,0.0,0.0,0.0,0.0,-2.5315,-2.6379,-2.8214,-2.9327,-3.0315,-3.1196,-3.2044,-3.2608,-3.2619,-3.357,0.0,0.0,0.0,0.0,0.0,0.0,0.0,-3.4197,-3.3998,-3.3807,-3.3605,-3.2589,-3.1505,-3.0295,-2.9211,-2.8223,-2.7321,-2.7444,-2.7522,0.0,0.0,0.0,0.0,0.0,0.0,-2.7996,0.0,0.0,0.0,0.0,0.0,0.0,0.0,0.0,0.0,0.0,0.0,0.0,0.0,-2.7097,-2.776,-2.8716,-2.8938,-2.8909,-2.9033,-2.8166,-2.7317,-2.7317,-2.6717,-2.6274,-2.6486,-2.6521,-2.6607,-2.6956,-2.7021,-2.7053,-2.7181,-2.7326,-2.7808,-2.8937,-2.9877,-3.1317,-3.3471,0.0,0.0,0.0,0.0,0.0,0.0,0.0,0.0,0.0,0.0,-3.7243,-3.7073,-3.7411,-3.7577,-3.7577,-3.7577,-3.7577,-3.7613,-3.7757,-3.7863,-3.7845,0.0,0.0,0.0,0.0,0.0,0.0,-3.859,-3.8469,-3.8175,-3.7973,-3.801,-3.8157,-3.7802,-3.7741,-3.7833,0.0,0.0,0.0,0.0,0.0,0.0,0.0,-2.4779,-2.567,-2.7097,-2.8149,-2.924,-3.0437,-3.094,-3.1557,-3.2533,0.0,0.0,0.0,0.0,0.0,0.0,0.0,0.0,-3.4173,-3.3972,-3.378,-3.3559,-3.2531,-3.1339,-2.9983,-2.886,-2.7773,-2.6725,-2.7053,-2.7213,-2.7227,-2.7391,-2.7439,-2.7417,-2.7115,-2.7255,0.0,0.0,0.0,0.0,0.0,0.0,0.0,0.0,0.0,0.0,0.0,0.0,0.0,0.0,0.0,0.0,0.0,-2.7942,-2.8648,-2.836,-2.7748,-2.7234,-2.7234,-2.6684,0.0,-2.622,-2.622,-2.631,-2.6607,-2.6657,-2.6758,-2.7085,-2.7453,-2.7843,-2.832,-2.9703,-3.1299,0.0,-3.4006,0.0,0.0,0.0,0.0,0.0,0.0,0.0,0.0,0.0,0.0,-3.6215,-3.7034,-3.7503,-3.754,-3.754,-3.7577,-3.7577,-3.7577,-3.7577,-3.7577,0.0,0.0,0.0,0.0,0.0,0.0,-3.8277,-3.7817,-3.7161,-3.7854,-3.7708,-3.7179,-3.7895,-3.8223,-3.831,0.0,0.0,0.0,0.0,0.0,0.0,0.0,0.0,0.0,0.0,-2.7371,-2.8286,-3.0034,-3.0698,-3.1237,0.0,0.0,0.0,0.0,0.0,0.0,0.0,0.0,0.0,-3.3972,-3.378,-3.3559,-3.328,-3.2045,-3.0917,-2.9966,-2.8629,-2.7556,-2.6725,-2.7053,-2.7289,-2.7422,-2.7206,-2.708,-2.7034,-2.697,-2.7002,0.0,0.0,0.0,0.0,-2.6624,-2.6708,0.0,0.0,0.0,0.0,0.0,0.0,0.0,0.0,-2.6274,-2.6253,-2.6419,0.0,-2.6864,-2.7059,-2.6783,-2.6468,0.0,-2.6336,-2.622,-2.622,-2.622,-2.6203,-2.6293,-2.6329,-2.6329,-2.6434,-2.6514,-2.7014,-2.8243,-3.0567,0.0,-3.3544,-3.3856,0.0,0.0,0.0,0.0,0.0,0.0,0.0,0.0,0.0,0.0,-3.6215,-3.6422,-3.6684,-3.7073,-3.7073,-3.7243,-3.7577,-3.7577,-3.7577,-3.7577,0.0,0.0,0.0,0.0,0.0,0.0,-3.7097,-3.6693,-3.5946,-3.5566,-3.5657,-3.5987,-3.5957,-3.6474,-3.7163,0.0,0.0,0.0,0.0,0.0,0.0,0.0,0.0,0.0,0.0,0.0,0.0,0.0,0.0,0.0,0.0,0.0,0.0,0.0,0.0,0.0,0.0,0.0,-3.3156,-3.2716,-3.2499,-3.2353,-3.2179,-3.0999,-3.0106,-2.9471,-2.8408,-2.7384,-2.6486,-2.6741,-2.6937,-2.7031,-2.674,-2.6607,-2.6556,-2.6402,0.0,0.0,0.0,0.0,0.0,-2.6295,-2.6314,0.0,-2.6243,-2.6208,-2.6227,0.0,0.0,0.0,0.0,-2.6079,-2.6115,-2.6115,-2.6168,-2.6239,-2.6434,-2.6329,-2.622,-2.622,-2.622,-2.622,-2.622,-2.622,-2.622,-2.622,-2.622,-2.622,-2.622,-2.622,-2.6833,-2.8605,-3.0195,-3.1835,-3.3574,-3.3789,0.0,0.0,0.0,0.0,0.0,0.0,0.0,0.0,0.0,0.0,0.0,-3.582,-3.6147,-3.6563,-3.6563,-3.6701,-3.6939,-3.6939,-3.7073,-3.7281,0.0,0.0,0.0,0.0,0.0,-3.5846,-3.6018,-3.5618,-3.4918,-3.4846,-3.4864,-3.4939,-3.5113,-3.5574,-3.6085,0.0,0.0,0.0,0.0,0.0,0.0,0.0,0.0,0.0,0.0,0.0,0.0,0.0,0.0,0.0,0.0,0.0,0.0,0.0,0.0,0.0,0.0,-3.226,-3.2042,-3.1338,-3.1194,-3.1113,-3.0993,-3.0058,-2.9384,-2.9062,-2.8315,-2.7429,-2.6424,-2.6417,-2.6437,-2.642,-2.6229,-2.612,-2.6099,-2.5791,0.0,0.0,0.0,0.0,0.0,0.0,0.0,0.0,-2.586,-2.586,-2.5881,-2.5881,0.0,0.0,0.0,0.0,0.0,-2.5864,-2.5954,-2.6059,-2.6132,-2.625,-2.628,-2.6076,-2.6096,-2.6132,-2.6043,-2.6096,-2.6132,-2.6132,-2.6168,-2.6201,-2.6316,-2.6531,-2.7342,-2.9277,-2.9724,-3.0832,-3.3475,0.0,0.0,0.0,0.0,0.0,0.0,0.0,0.0,0.0,0.0,0.0,0.0,-3.5287,-3.5661,-3.5977,-3.6062,-3.6147,-3.6172,-3.6172,-3.6329,-3.6646,-3.6685,0.0,0.0,0.0,0.0,-3.5043,-3.5043,-3.4597,-3.399,-3.4597,-3.4472,-3.4008,-3.4775,-3.5043,-3.5043,0.0,0.0,0.0,0.0,0.0,0.0,0.0,0.0,0.0,0.0,0.0,0.0,0.0,0.0,0.0,0.0,0.0,0.0,0.0,0.0,0.0,-3.0201,-3.1597,-3.2053,-3.1319,-3.1707,-3.1653,-3.0989,-3.0255,-2.9895,-2.9803,-2.8774,-2.7981,-2.7324,-2.6419,-2.6101,-2.6229,-2.5924,-2.5754,-2.5675,-2.5637,0.0,0.0,0.0,0.0,0.0,0.0,0.0,0.0,-2.5654,-2.5696,-2.5738,-2.5738,0.0,0.0,0.0,0.0,0.0,-2.5307,-2.5346,-2.546,-2.5917,-2.6488,-2.6672,-2.5605,-2.5642,-2.5844,-2.5438,-2.568,-2.5934,-2.5934,-2.599,-2.6224,-2.685,-2.8003,-2.914,0.0,0.0,-3.2446,0.0,0.0,0.0,0.0,0.0,0.0,0.0,0.0,0.0,0.0,0.0,0.0,0.0,0.0,-3.4961,-3.4913,-3.5436,-3.5864,-3.6172,-3.6172,-3.5946,-3.548,-3.5762,-3.5551,0.0,0.0,0.0,-3.4276,-3.4276,-3.3794,-3.308,-3.3205,-3.3169,-3.3169,-3.3972,-3.4276,-3.4276,0.0,0.0,0.0,0.0,0.0,0.0,0.0,0.0,0.0,0.0,0.0,0.0,0.0,0.0,0.0,0.0,0.0,0.0,0.0,0.0,-2.9661,-2.9438,-3.0203,-3.0282,-2.9535,-2.9989,-3.0118,-2.9773,-2.9349,-2.9198,-2.9254,-2.7945,-2.7005,-2.6381,-2.5959,-2.5738,-2.5594,-2.5642,-2.5492,-2.5262,0.0,0.0,0.0,0.0,0.0,0.0,0.0,0.0,0.0,0.0,-2.5454,-2.5307,-2.5567,0.0,0.0,0.0,0.0,0.0,-2.4847,-2.5051,-2.532,-2.5178,-2.5794,-2.6253,-2.5388,-2.5362,-2.54,-2.4958,-2.5036,-2.5269,-2.5476,-2.5551,-2.5891,-2.6852,-2.7541,-2.8549,-3.0018,-3.0833,0.0,0.0,0.0,0.0,0.0,0.0,0.0,0.0,0.0,0.0,0.0,0.0,0.0,0.0,0.0,-3.3491,-3.3444,-3.3752,-3.4236,-3.4901,-3.4496,-3.427,-3.424,-3.4386,-3.4172,0.0,0.0,-3.3688,-3.2949,-3.3087,-3.2908,-3.2573,-3.2573,-3.2573,-3.2608,-3.2979,-3.3121,-3.3121,0.0,0.0,0.0,0.0,0.0,0.0,0.0,0.0,0.0,0.0,0.0,0.0,0.0,0.0,0.0,0.0,0.0,0.0,0.0,-2.8791,-2.8791,-2.8683,-2.8699,-2.8465,-2.8088,-2.8535,-2.8753,-2.8606,-2.8575,-2.8551,-2.8464,-2.7118,-2.6094,-2.5408,-2.5388,-2.5208,-2.495,-2.5201,-2.5068,-2.4799,0.0,0.0,0.0,0.0,0.0,0.0,0.0,0.0,0.0,0.0,0.0,0.0,0.0,0.0,0.0,-2.4902,-2.4839,-2.4679,-2.4323,-2.461,-2.4929,-2.4364,-2.5013,-2.568,-2.5155,-2.514,-2.5147,-2.4854,-2.4901,-2.502,-2.5171,-2.5362,-2.5759,-2.6444,-2.6969,-2.798,-2.9957,0.0,0.0,0.0,0.0,0.0,0.0,0.0,0.0,0.0,0.0,0.0,0.0,0.0,0.0,0.0,0.0,0.0,-3.2338,-3.2204,-3.2574,-3.3449,-3.2871,-3.2729,-3.2891,-3.3018,-3.2802,-3.2423,-3.2651,-3.2433,-3.1896,-3.2091,-3.2162,-3.2091,-3.2179,-3.2162,-3.2091,-3.2179,-3.2179,-3.2091,0.0,0.0,0.0,0.0,0.0,0.0,0.0,0.0,0.0,0.0,0.0,0.0,0.0,0.0,0.0,0.0,0.0,0.0,0.0,-2.7886,-2.7931,-2.7458,-2.7411,-2.7674,-2.8259,-2.881,-2.8856,-2.8323,-2.8794,-2.8661,-2.7955,-2.7083,-2.6233,-2.5446,-2.473,-2.4385,-2.4343,-2.4385,-2.4385,-2.4385,-2.4799,0.0,0.0,0.0,0.0,0.0,0.0,0.0,0.0,0.0,0.0,0.0,0.0,0.0,-2.4426,-2.4784,-2.4338,-2.3681,-2.3681,-2.3726,-2.3741,-2.3653,-2.4591,-2.535,-2.4805,-2.495,-2.5234,-2.5409,-2.5788,-2.592,-2.5302,-2.5849,-2.6228,-2.569,-2.7174,-2.8842,0.0,0.0,0.0,0.0,0.0,0.0,0.0,0.0,0.0,0.0,0.0,0.0,0.0,0.0,0.0,0.0,0.0,0.0,-3.2199,-3.1667,-3.1773,-3.2495,-3.2446,-3.2069,-3.144,-3.1841,-3.1616,-3.0952,-3.1368,-3.1487,-3.1473,-3.1804,-3.1731,-3.149,-3.1804,-3.1731,-3.1511,-3.1804,-3.1731,-3.1473,0.0,0.0,0.0,0.0,0.0,0.0,0.0,0.0,0.0,0.0,0.0,0.0,0.0,0.0,0.0,0.0,0.0,0.0,0.0,-2.5471,-2.5693,-2.5786,-2.5801,-2.6258,-2.721,-2.8136,-2.8496,-2.8288,-2.803,-2.7535,-2.6838,-2.5935,-2.5129,-2.4429,-2.4326,-2.4135,-2.3867,-2.4177,-2.4135,-2.3909,-2.4369,-2.4533,0.0,0.0,0.0,0.0,0.0,0.0,0.0,0.0,-2.4135,-2.3952,-2.441,-2.4245,-2.3894,-2.4048,-2.3837,-2.3566,-2.3231,-2.3142,-2.3142,-2.3142,-2.3526,-2.3985,-2.4477,-2.4416,-2.4401,-2.5014,-2.4619,-2.4149,-2.4173,-2.5374,-2.6255,-2.6022,-2.6933,0.0,0.0,0.0,0.0,0.0,0.0,0.0,0.0,0.0,0.0,0.0,0.0,0.0,0.0,0.0,0.0,0.0,0.0,0.0,0.0,-3.0542,-3.0587,-3.0863,-3.098,-3.0877,-3.0615,-3.0754,-3.0691,-3.0426,-3.074,-3.0845,-3.0845,-3.1106,-3.1145,-3.1027,-3.1184,-3.1145,-3.1027,-3.1184,-3.1145,-3.1027,0.0,0.0,0.0,0.0,0.0,0.0,0.0,0.0,0.0,0.0,0.0,0.0,0.0,0.0,0.0,0.0,0.0,0.0,-2.3745,-2.3921,-2.4195,-2.4578,-2.4721,-2.518,-2.5959,-2.6766,-2.7504,-2.8076,-2.7309,-2.6502,-2.5591,-2.4912,-2.4209,-2.3538,-2.3754,-2.3653,-2.3392,-2.3696,-2.3653,-2.3436,-2.3867,-2.4036,0.0,0.0,0.0,0.0,0.0,0.0,0.0,0.0,-2.3653,-2.348,-2.3909,-2.3739,-2.3392,-2.3566,-2.3523,-2.3304,-2.2978,-2.2888,-2.2888,-2.2888,-2.3047,-2.3443,-2.4456,-2.4295,-2.425,-2.5034,-2.4297,-2.362,-2.3925,-2.5136,-2.6072,0.0,-2.6663,0.0,0.0,0.0,0.0,0.0,0.0,0.0,0.0,0.0,0.0,0.0,0.0,0.0,0.0,0.0,0.0,0.0,0.0,0.0,0.0,-2.9665,-2.971,-2.9918,-3.0033,-3.0119,-3.0119,-3.0119,-3.0119,-3.0119,-3.0231,-3.0316,-3.0316,-3.0559,-3.0625,-3.0625,-3.0625,-3.0601,-3.0535,-3.0601,-3.0601,-3.0535,0.0,0.0,0.0,0.0,0.0,0.0,0.0,0.0,0.0,0.0,0.0,0.0,0.0,0.0,0.0,0.0,0.0,0.0,-2.309,-2.3583,-2.388,-2.388,-2.4325,-2.4582,-2.4582,-2.4802,-2.5756,-2.7545,-2.6788,-2.566,-2.4292,-2.4139,-2.3649,-2.2888,-2.2902,-2.2902,-2.2888,-2.2888,-2.2888,-2.2933,-2.3246,-2.3406,-2.3465,0.0,0.0,0.0,0.0,0.0,0.0,0.0,-2.2888,-2.2978,-2.3436,-2.326,-2.2978,-2.3436,-2.326,-2.2888,-2.2888,-2.2888,-2.2888,-2.2902,-2.3426,-2.4065,-2.4655,-2.4863,-2.5052,-2.5647,-2.5284,-2.48,-2.4785,-2.5357,-2.5792,-2.5778,0.0,0.0,0.0,0.0,0.0,0.0,0.0,0.0,0.0,0.0,0.0,0.0,0.0,0.0,0.0,0.0,0.0,0.0,0.0,0.0,0.0,-2.9074,-2.938,-2.9858,-2.9858,-2.9902,-2.9918,-2.9918,-2.9918,-2.9918,-2.9918,-2.9918,-2.9902,-3.0199,-3.0309,-3.0309,-3.0309,-3.0113,-2.9946,-3.0199,-3.0113,-2.9918,0.0,0.0,0.0,0.0,0.0,0.0,0.0,0.0,0.0,0.0,0.0,0.0,0.0,0.0,0.0,0.0,0.0,0.0,-2.0502,-2.0642,-2.1033,-2.1675,-2.187,-2.2414,-2.3536,-2.4069,-2.4782,-2.5698,-2.483,-2.4334,-2.4292,-2.4092,-2.3603,-2.2917,-2.3397,-2.3354,-2.2888,-2.2888,-2.2857,-2.2841,-2.2962,-2.3163,-2.3482,0.0,0.0,0.0,0.0,0.0,0.0,0.0,0.0,0.0,-2.2873,-2.2783,-2.2706,-2.2873,-2.2783,-2.2706,-2.2706,-2.2766,-2.2942,-2.336,-2.3699,-2.4181,-2.5255,-2.5168,-2.4907,-2.511,-2.572,-2.5923,-2.4959,-2.5734,0.0,0.0,0.0,0.0,0.0,0.0,0.0,0.0,0.0,0.0,0.0,0.0,0.0,0.0,0.0,0.0,0.0,0.0,0.0,0.0,0.0,0.0,0.0,0.0,-2.8638,-2.8779,-2.8779,-2.9182,-2.9918,-2.9918,-2.9918,-2.9918,-2.9918,-2.9918,-2.9918,-2.9989,-3.0017,-3.0017,-3.0017,-2.9989,-2.9902,-2.9973,-2.9989,-2.9918,0.0,0.0,0.0,0.0,0.0,0.0,0.0,0.0,0.0,0.0,-1.9408,-1.9344,0.0,0.0,0.0,0.0,0.0,0.0,0.0,-1.9552,-1.994,-2.0471,-2.072,-2.1162,-2.1907,-2.231,-2.2715,-2.3189,-2.3402,-2.3623,-2.3803,-2.3406,-2.3112,-2.2917,-2.3141,-2.3005,-2.2615,-2.2766,-2.2721,-2.252,-2.2855,-2.3026,-2.3051,0.0,0.0,0.0,0.0,0.0,0.0,0.0,0.0,0.0,-2.2615,-2.2615,-2.2615,-2.2615,-2.2615,-2.2675,-2.2675,-2.2735,-2.2939,-2.3544,-2.3937,-2.4568,-2.5763,-2.5611,-2.5226,-2.5241,-2.585,-2.6141,-2.5357,-2.6083,0.0,0.0,0.0,0.0,0.0,0.0,0.0,0.0,0.0,0.0,0.0,0.0,0.0,0.0,0.0,0.0,0.0,0.0,0.0,0.0,0.0,0.0,0.0,0.0,0.0,-2.8288,-2.8288,-2.8638,-2.9273,-2.9273,-2.938,-2.956,-2.9814,-2.9918,-2.9918,-2.9918,-2.9918,-2.9918,-2.9918,-2.9918,-2.9918,-2.9918,-2.9918,-2.9918,0.0,0.0,0.0,0.0,0.0,0.0,0.0,0.0,0.0,0.0,-1.9028,-1.9028,0.0,0.0,0.0,0.0,0.0,0.0,0.0,-1.9658,-1.994,-1.9991,-2.0468,-2.0518,-2.0042,-2.0042,-2.0194,-2.0508,-2.2325,-2.313,-2.2933,-2.2427,-2.2427,-2.2752,-2.2381,-2.218,-2.2123,-2.2552,-2.2399,-2.1991,-2.2788,-2.2814,-2.2358,-2.2768,0.0,0.0,0.0,0.0,0.0,0.0,0.0,0.0,-2.2509,-2.2509,-2.2555,-2.2509,-2.2629,-2.2749,-2.2704,-2.2747,-2.2979,-2.3583,-2.4321,-2.5142,-2.6199,-2.613,-2.5865,-2.5865,-2.5879,-2.5879,-2.5879,-2.6373,0.0,0.0,0.0,0.0,0.0,0.0,0.0,0.0,0.0,0.0,0.0,0.0,0.0,0.0,0.0,0.0,0.0,0.0,0.0,0.0,0.0,0.0,0.0,0.0,0.0,0.0,-2.8143,-2.8143,-2.8158,-2.8255,-2.8591,-2.9074,-2.956,-2.9814,-2.9814,-2.9874,-2.9918,-2.9918,-2.9918,-2.9918,-2.9918,-2.9918,-2.9918,-2.9918,0.0,0.0,0.0,0.0,0.0,0.0,0.0,0.0,0.0,0.0,0.0,0.0,0.0,0.0,0.0,0.0,0.0,0.0,0.0,-1.8441,-1.8709,-1.9081,-1.9488,-1.9643,-1.9552,-1.9552,-1.9631,-1.9736,-2.0651,-2.1358,-2.1908,-2.2152,-2.2075,-2.1732,-2.2103,-2.2013,-2.1623,-2.1983,-2.1793,-2.1251,-2.1739,-2.1852,-2.1696,-2.1735,-2.1754,0.0,0.0,0.0,0.0,0.0,0.0,0.0,-2.1793,-2.1949,-2.2184,-2.1793,-2.1996,-2.2245,-2.1821,-2.244,-2.3359,-2.3999,-2.5061,-2.5997,-2.6269,-2.6279,-2.6232,-2.6323,-2.6495,-2.6562,-2.6562,-2.6678,0.0,0.0,0.0,0.0,0.0,0.0,0.0,0.0,0.0,0.0,0.0,0.0,0.0,0.0,0.0,0.0,0.0,0.0,0.0,0.0,0.0,0.0,-2.6974,-2.6974,-2.7026,0.0,-2.7115,-2.7115,-2.7167,-2.7913,-2.8336,-2.8496,-2.9028,-2.9273,-2.9319,-2.9726,-2.9918,-2.9918,-2.9918,-2.9918,-2.9918,-2.9918,-2.9918,-2.9918,0.0,0.0,0.0,0.0,0.0,0.0,0.0,0.0,0.0,0.0,0.0,0.0,0.0,0.0,0.0,0.0,0.0,0.0,0.0,0.0,-1.7501,-1.7995,-1.8506,-1.8786,-1.8786,-1.8667,-1.8655,-1.8809,-1.9032,-1.9799,-2.1086,-2.1046,-2.1183,-2.1382,-2.1448,-2.1322,-2.1042,-2.1396,-2.1153,-2.0686,-2.1312,-2.1345,-2.1105,-2.1332,-2.1295,-2.1116,-2.1358,0.0,0.0,0.0,0.0,0.0,0.0,0.0,-2.1396,-2.1104,-2.1251,-2.1541,-2.1506,-2.198,-2.272,-2.3596,-2.4751,-2.5671,-2.5777,-2.6019,-2.6218,-2.6312,-2.6486,-2.6712,-2.6779,0.0,0.0,0.0,0.0,0.0,0.0,0.0,0.0,0.0,0.0,0.0,0.0,0.0,0.0,0.0,0.0,0.0,0.0,0.0,0.0,0.0,-2.6779,0.0,-2.6779,-2.6779,-2.6779,-2.6779,-2.6779,-2.6779,-2.6832,-2.758,-2.7898,-2.7947,-2.8496,-2.8732,-2.8732,-2.9028,-2.9273,-2.9515,-2.9515,-2.9665,-2.9918,-2.9918,-2.9918,-2.9918,0.0,0.0,0.0,0.0,0.0,0.0,0.0,0.0,0.0,0.0,0.0,0.0,0.0,0.0,0.0,0.0,0.0,0.0,0.0,0.0,0.0,-1.7146,-1.7667,-1.7963,-1.8084,-1.7822,-1.781,-1.7941,-1.7667,-1.8417,-2.0042,-1.9709,-2.0092,-2.0979,-2.0597,-2.0459,-2.0459,-2.0746,-2.056,-2.0118,-2.0927,-2.0875,-2.041,-2.0978,-2.0823,-2.0359,-2.051,-2.056,-2.0459,-2.0459,0.0,0.0,0.0,0.0,-2.056,-2.051,-2.061,-2.0858,-2.1202,-2.1429,-2.1855,-2.3,-2.3988,-2.4735,-2.4952,-2.5359,-2.5753,-2.592,-2.6204,-2.6525,0.0,0.0,0.0,0.0,0.0,0.0,0.0,0.0,0.0,0.0,0.0,0.0,0.0,0.0,0.0,0.0,0.0,0.0,0.0,0.0,-2.6779,-2.6779,-2.6779,-2.6779,-2.6779,-2.6779,-2.6779,-2.6779,-2.6779,-2.6779,-2.6832,-2.7188,-2.7378,-2.7429,-2.7947,-2.8143,-2.8143,-2.824,-2.8543,-2.8982,-2.8982,-2.9227,-2.9621,-2.9621,-2.9621,-2.9621,0.0,0.0,0.0,0.0,0.0,0.0,0.0,0.0,0.0,0.0,-1.7335,-1.7213,0.0,0.0,0.0,0.0,0.0,0.0,0.0,0.0,0.0,-1.7146,-1.7257,-1.7556,-1.8084,-1.7822,-1.7601,-1.7434,-1.7088,-1.7386,-1.8249,-1.8844,-1.9186,-1.9344,-1.9747,-1.985,-1.9759,-2.0271,-2.0029,-1.938,-1.9989,-1.9809,-1.9251,-1.9834,-1.9718,-1.9356,-2.0258,-2.0308,-1.9901,-1.9901,-2.0207,0.0,0.0,0.0,-2.051,-2.0055,-2.0258,-2.056,-2.0156,-2.0759,-2.1796,-2.3019,-2.3396,-2.3656,-2.4068,-2.4191,-2.4505,-2.519,-2.5879,-2.6326,0.0,0.0,0.0,0.0,0.0,0.0,0.0,0.0,0.0,0.0,0.0,0.0,0.0,0.0,0.0,0.0,0.0,0.0,0.0,-2.6779,-2.6779,-2.6779,-2.6779,0.0,-2.6779,-2.6779,-2.6779,-2.6779,-2.6779,-2.6779,-2.6779,-2.6884,-2.687,-2.6922,-2.7378,-2.7615,-2.765,-2.8094,-2.8336,-2.84,-2.84,-2.8448,-2.848,-2.848,-2.848,-2.8591,0.0,0.0,0.0,0.0,0.0,0.0,0.0,0.0,0.0,0.0,0.0,-1.6641,0.0,0.0,0.0,0.0,0.0,0.0,0.0,0.0,0.0,-1.6197,-1.6528,-1.6933,-1.7335,-1.7067,-1.6842,-1.6637,-1.6591,-1.6707,-1.6995,-1.7944,-1.8585,-1.8916,-1.9124,-1.9239,-1.9251,-1.9436,-1.9448,-1.9316,-1.9121,-1.9016,-1.8987,-1.891,-1.891,-1.904,-1.954,-1.9552,-1.9344,-1.9344,-1.95,-1.9643,-1.9448,0.0,0.0,0.0,-1.95,-1.9695,-1.9798,-2.0386,-2.1143,-2.1661,-2.2018,-2.2325,-2.2525,-2.3096,-2.3628,-2.4006,-2.4901,0.0,0.0,0.0,0.0,0.0,0.0,0.0,0.0,0.0,0.0,0.0,0.0,0.0,0.0,0.0,0.0,0.0,0.0,0.0,-2.6779,-2.6712,-2.6712,-2.6779,-2.6621,0.0,-2.6779,-2.6712,-2.6645,-2.6645,-2.6645,-2.6645,-2.6645,-2.6553,-2.6621,-2.6832,-2.7011,-2.71,-2.71,-2.7342,-2.758,-2.7735,-2.7735,-2.7898,-2.8094,-2.8094,-2.8094,-2.8094,0.0,0.0,0.0,0.0,0.0,0.0,0.0,0.0,0.0,0.0,0.0,0.0,0.0,0.0,0.0,0.0,0.0,0.0,0.0,0.0,0.0,-1.541,-1.5806,-1.6197,-1.6595,-1.6255,-1.6036,-1.5931,-1.6246,-1.6414,-1.6526,-1.7525,-1.8175,-1.8519,-1.8691,-1.8823,-1.891,-1.8703,-1.875,-1.8869,-1.8321,-1.8333,-1.8483,-1.8038,-1.8147,-1.8536,-1.8536,-1.8536,-1.8536,-1.8536,-1.8655,-1.8762,-1.8762,-1.8881,0.0,0.0,0.0,-1.9093,-1.95,-1.9901,-2.0207,-2.0359,-2.0733,-2.1121,-2.1212,-2.2014,-2.2765,0.0,0.0,0.0,0.0,0.0,0.0,0.0,0.0,0.0,0.0,0.0,0.0,0.0,0.0,0.0,0.0,0.0,0.0,0.0,0.0,0.0,-2.6204,-2.6244,-2.6297,-2.6433,-2.634,-2.6394,-2.6674,-2.6539,-2.6472,-2.6472,-2.6472,-2.6472,-2.6472,-2.6326,-2.6447,-2.6674,-2.6674,-2.6674,-2.6674,-2.6674,-2.6841,-2.7056,-2.7056,-2.721,-2.7515,-2.7515,-2.7515,-2.7515,0.0,0.0,0.0,0.0,0.0,0.0,0.0,0.0,0.0,0.0,0.0,0.0,-1.541,-1.4902,-1.4515,-1.4515,-1.4515,-1.4515,-1.4515,-1.4515,-1.4793,-1.5362,-1.5294,0.0,-1.613,-1.569,-1.5468,-1.541,-1.6009,-1.6546,-1.6974,-1.7902,-1.8117,-1.769,-1.8456,-1.8737,-1.8589,-1.8244,-1.7875,-1.749,-1.7667,-1.7545,-1.7313,-1.7257,-1.7257,-1.7313,-1.7313,-1.7313,-1.7313,-1.7313,-1.7644,-1.8147,-1.8147,-1.8548,-1.8987,0.0,0.0,0.0,-1.904,-1.904,-1.9198,-1.9695,-1.9875,-2.0039,-2.0555,-2.1079,-2.1644,-2.2216,0.0,0.0,0.0,0.0,0.0,0.0,0.0,0.0,0.0,0.0,0.0,0.0,0.0,0.0,0.0,0.0,0.0,0.0,0.0,0.0,-2.4641,-2.5161,-2.5453,-2.5453,-2.5988,-2.6286,-2.634,-2.634,-2.6326,-2.6326,-2.6326,-2.6326,-2.6326,-2.6286,-2.6286,-2.634,-2.634,-2.634,-2.634,-2.634,-2.634,-2.6326,-2.6326,-2.6379,-2.6379,-2.6379,-2.6379,-2.6433,0.0,0.0,0.0,0.0,0.0,0.0,0.0,0.0,0.0,0.0,0.0,0.0,0.0,-1.5186,-1.4902,-1.4515,-1.4396,-1.4387,-1.4387,-1.4258,-1.4249,-1.4478,-1.4478,-1.4708,-1.5381,-1.5219,-1.5237,-1.5383,-1.5908,-1.6256,-1.6393,-1.7079,-1.7632,-1.8078,-1.8417,-1.8384,-1.8072,-1.7994,-1.7956,-1.7923,-1.7333,-1.7157,-1.7146,-1.6754,-1.6866,-1.7202,-1.7202,-1.7202,0.0,0.0,0.0,0.0,0.0,-1.7644,-1.7875,-1.8224,-1.8278,-1.8278,-1.8278,-1.8387,-1.8483,-1.8685,-1.9016,-1.9352,-1.9536,-2.0269,-2.0954,-2.1162,0.0,0.0,0.0,0.0,0.0,0.0,0.0,0.0,0.0,0.0,0.0,0.0,0.0,0.0,0.0,0.0,0.0,0.0,0.0,0.0,-2.4526,-2.461,-2.4724,-2.4811,-2.5258,-2.5674,-2.6179,-2.6286,-2.6286,-2.6179,-2.577,-2.5577,-2.5591,-2.5495,-2.5495,-2.5591,-2.5879,-2.6111,-2.6286,-2.6286,-2.6233,-2.6179,-2.6179,-2.6111,-2.6056,-2.6056,-2.6056,-2.6056,0.0,0.0,0.0,0.0,0.0,0.0,0.0,0.0,-1.569,-1.569,0.0,0.0,0.0,0.0,-1.4961,-1.4515,-1.4505,-1.4457,-1.4457,-1.439,-1.44,-1.44,-1.4338,-1.4515,-1.4962,-1.4774,-1.4845,-1.5189,-1.5633,-1.5965,-1.6026,-1.671,-1.7389,-1.7988,-1.8019,-1.8029,-1.7999,-1.7853,-1.7793,-1.7658,-1.7011,-1.6675,-1.6528,-1.614,-1.6255,-1.6585,0.0,0.0,0.0,0.0,0.0,0.0,-1.6922,-1.7034,-1.7257,-1.7501,-1.7623,-1.7623,-1.7623,-1.7667,-1.771,-1.771,-1.8213,-1.8709,-1.8667,-1.9495,-2.0358,-2.0562,0.0,0.0,0.0,0.0,0.0,0.0,0.0,0.0,0.0,0.0,0.0,0.0,0.0,0.0,0.0,0.0,0.0,0.0,0.0,0.0,-2.3728,-2.3859,-2.4034,-2.4297,-2.4567,-2.4921,-2.5412,-2.5467,-2.5467,-2.5412,-2.5007,-2.4781,-2.4768,-2.4681,-2.4681,-2.4824,-2.5133,-2.5591,-2.6179,-2.6179,-2.6111,-2.6002,-2.6002,-2.6002,-2.5893,-2.5893,-2.5893,-2.5893,0.0,0.0,0.0,0.0,0.0,0.0,0.0,0.0,-1.4515,-1.4515,0.0,0.0,0.0,0.0,0.0,-1.4423,-1.4637,-1.472,-1.472,-1.4886,-1.5033,-1.5033,-1.4902,-1.4846,-1.4854,-1.4307,-1.426,-1.4718,-1.5216,-1.5665,-1.5986,-1.6912,-1.7373,-1.7373,-1.7373,-1.7754,-1.8371,-1.7874,-1.7298,-1.6638,-1.6628,-1.6128,-1.5449,-1.5439,-1.543,-1.543,-1.543,-1.542,0.0,-1.543,0.0,0.0,-1.6255,-1.6698,-1.7146,-1.7,-1.6955,-1.6955,0.0,0.0,0.0,-1.7011,-1.7545,-1.8038,-1.7952,0.0,-1.9925,0.0,0.0,0.0,0.0,0.0,0.0,0.0,0.0,0.0,0.0,0.0,0.0,0.0,0.0,0.0,0.0,0.0,0.0,0.0,0.0,-2.2197,-2.2197,-2.275,-2.3327,-2.3962,-2.3962,-2.3962,-2.4021,-2.4021,-2.4021,-2.4021,-2.3962,-2.3962,-2.3962,-2.3962,-2.3962,-2.3962,-2.3962,-2.4724,-2.5839,-2.5839,-2.5839,-2.5893,-2.5893,-2.5893,-2.5893,-2.5893,-2.5893,-2.5893,0.0,0.0,0.0,0.0,0.0,-1.4515,-1.4515,-1.4515,-1.4515,0.0,0.0,0.0,-1.4396,-1.3943,-1.3575,-1.3324,-1.3231,-1.3228,-1.3228,-1.3107,-1.3094,-1.3094,-1.3027,-1.3149,-1.347,-1.3317,-1.3707,-1.4611,-1.4813,-1.5219,-1.5852,-1.6097,-1.6482,-1.6811,-1.7235,-1.7726,-1.8261,-1.769,-1.7496,-1.7526,-1.7099,-1.6661,-1.6328,-1.6006,-1.5889,0.0,0.0,-1.5684,-1.5459,0.0,-1.5792,-1.5633,0.0,-1.5979,-1.6389,-1.6332,-1.6332,-1.6332,-1.6332,0.0,0.0,0.0,0.0,0.0,0.0,0.0,0.0,0.0,0.0,0.0,0.0,0.0,0.0,0.0,0.0,0.0,0.0,0.0,0.0,0.0,0.0,0.0,0.0,0.0,0.0,0.0,-2.2197,-2.2197,-2.2197,-2.2359,-2.2763,-2.3327,-2.3327,-2.3551,-2.4021,-2.4021,-2.4021,-2.4021,-2.3551,-2.3327,-2.3327,-2.3327,-2.3327,-2.3374,-2.3787,-2.4195,-2.4553,-2.4553,-2.4794,-2.523,-2.523,-2.5508,-2.5893,-2.5893,-2.5619,-2.523,0.0,0.0,0.0,0.0,0.0,-1.4455,-1.4455,-1.4396,-1.445,0.0,0.0,0.0,-1.4169,-1.3525,-1.3076,-1.2811,-1.2818,-1.2824,-1.2824,-1.2819,-1.2829,-1.2829,-1.2829,-1.2917,-1.3113,-1.2989,-1.3424,-1.4601,-1.4466,-1.4836,-1.5805,-1.5805,-1.607,-1.6603,-1.6682,-1.7176,-1.791,-1.7331,-1.7444,-1.7835,-1.753,-1.7129,-1.6636,-1.6445,-1.6338,0.0,0.0,0.0,-1.5693,-1.5762,-1.5625,0.0,0.0,-1.5584,-1.5826,-1.571,-1.572,-1.572,-1.572,-1.5768,-1.5816,-1.5758,0.0,0.0,-1.7424,-1.8035,0.0,0.0,0.0,0.0,0.0,0.0,0.0,0.0,0.0,0.0,0.0,0.0,0.0,0.0,0.0,0.0,0.0,0.0,0.0,0.0,-2.2197,-2.2197,-2.2197,-2.2197,-2.2359,-2.2689,-2.2689,-2.2871,-2.322,-2.322,-2.322,-2.322,-2.2871,-2.2689,-2.2689,-2.2689,-2.2689,-2.275,-2.31,-2.322,-2.322,-2.322,-2.3754,-2.4567,-2.4567,-2.4794,-2.5133,-2.5133,-2.4908,-2.4567,0.0,0.0,-1.5303,-1.5303,-1.4881,-1.4519,-1.4339,-1.4366,-1.4468,0.0,-1.4621,-1.4435,-1.3924,-1.3222,-1.2766,-1.2592,-1.2778,-1.2868,-1.2868,-1.3071,-1.3237,-1.3237,-1.3237,-1.3237,-1.3237,-1.2899,-1.3248,-1.4394,-1.4167,-1.4611,-1.5726,-1.5805,-1.607,-1.6473,-1.607,-1.6412,-1.7373,-1.7107,-1.7369,-1.7936,-1.7936,-1.7457,-1.6875,0.0,-1.6807,-1.6748,-1.6348,-1.6243,-1.6074,-1.5693,-1.5557,0.0,0.0,0.0,0.0,0.0,-1.5321,-1.5292,-1.534,-1.5321,-1.5282,-1.5096,0.0,0.0,-1.6595,-1.7257,-1.8176,0.0,0.0,0.0,0.0,0.0,0.0,0.0,0.0,0.0,0.0,0.0,0.0,0.0,0.0,0.0,0.0,0.0,-2.2197,-2.2197,-2.2197,-2.2197,-2.2197,-2.2197,-2.2197,-2.2197,-2.2197,-2.2197,-2.2197,-2.2197,-2.2197,-2.2197,-2.2197,-2.2197,-2.2197,-2.2197,-2.2197,-2.2197,-2.2197,-2.2197,-2.2197,-2.2197,-2.2884,-2.3904,-2.3904,-2.3962,-2.4021,-2.4021,-2.3962,-2.3904,0.0,-1.4734,-1.4625,-1.4556,-1.4641,-1.4727,-1.456,-1.4755,-1.4967,-1.4983,-1.4927,-1.4469,-1.3378,-1.3023,-1.2501,-1.1516,-1.1439,-1.1464,-1.1464,-1.152,-1.1552,-1.1552,-1.1552,-1.1552,-1.1552,-1.1501,-1.2018,-1.3251,-1.3476,-1.4196,-1.5346,-1.5655,-1.5876,-1.6,-1.6272,-1.6751,-1.7235,-1.7657,-1.7959,-1.8208,-1.8073,-1.7899,-1.7725,-1.7383,-1.7256,-1.7246,-1.7158,-1.6894,-1.6592,-1.6504,-1.6475,-1.6475,0.0,0.0,0.0,-1.6422,0.0,-1.6025,-1.6325,-1.6159,0.0,0.0,0.0,0.0,-1.6185,-1.6389,-1.674,0.0,0.0,0.0,0.0,0.0,0.0,0.0,0.0,0.0,0.0,0.0,0.0,0.0,0.0,0.0,0.0,0.0,-2.2197,-2.2197,-2.2197,-2.2197,-2.2197,-2.2197,-2.2197,-2.2197,-2.2197,-2.2197,-2.2197,-2.2197,-2.2197,-2.2197,-2.2197,-2.2197,-2.2197,-2.2197,-2.2197,-2.2197,-2.2197,-2.2197,-2.2197,-2.2197,-2.2641,-2.3267,-2.3267,-2.3551,-2.4021,-2.4021,-2.3669,-2.3267,-1.4378,-1.443,-1.4513,-1.4443,-1.4756,-1.4879,-1.476,-1.4918,-1.4906,-1.4631,-1.405,-1.3382,-1.2763,-1.2288,-1.1767,-1.1174,-1.1111,-1.1111,-1.1111,-1.1111,-1.1111,-1.1111,-1.1037,-1.0962,-1.0962,-1.0887,-1.126,-1.2305,-1.2813,-1.3535,-1.4474,-1.4999,-1.5221,-1.5221,-1.5903,-1.6324,-1.6533,-1.7382,-1.7803,-1.794,-1.8076,0.0,-1.7988,-1.7773,-1.7695,-1.7666,-1.7461,-1.7109,-1.6665,-1.6665,-1.6665,0.0,0.0,-1.6665,-1.6665,0.0,-1.6572,-1.6445,0.0,0.0,0.0,-1.6076,0.0,0.0,0.0,-1.6206,-1.6417,-1.6853,0.0,0.0,0.0,0.0,0.0,0.0,0.0,0.0,0.0,0.0,0.0,0.0,0.0,0.0,0.0,0.0,-2.2197,-2.2197,-2.2197,-2.2197,-2.2197,-2.2197,-2.2197,-2.2197,-2.2197,-2.2197,-2.2197,-2.2197,-2.2197,-2.2197,-2.2197,-2.2197,-2.2197,-2.2197,-2.2197,-2.2197,-2.2197,-2.2197,-2.2197,-2.2197,-2.2359,-2.2641,-2.2641,-2.2811,-2.3113,-2.3113,-2.2932,-2.2641,-1.4194,-1.4453,-1.4665,-1.4665,-1.4974,-1.5147,-1.495,-1.5019,-1.4841,-1.4242,-1.323,-1.2445,-1.2298,-1.1706,-1.126,-1.1111,-1.1111,-1.1111,-1.1037,-1.1037,-1.1037,-1.0962,-1.0812,-1.0738,-1.0738,-1.0588,-1.0887,-1.1558,-1.2305,-1.2959,-1.36,-1.4274,-1.4569,-1.4641,-1.5275,-1.5692,-1.5965,-1.689,-1.7392,-1.7598,0.0,-1.7998,-1.8008,-1.7862,-1.7872,-1.7969,-1.7627,-1.7275,-1.6973,-1.6973,-1.6973,-1.6973,-1.6973,-1.6973,0.0,0.0,0.0,0.0,0.0,0.0,0.0,0.0,0.0,-1.6465,0.0,0.0,0.0,-1.6519,-1.6618,0.0,0.0,0.0,0.0,0.0,0.0,0.0,0.0,0.0,0.0,0.0,0.0,0.0,0.0,0.0,-2.18,-2.18,-2.18,-2.18,-2.18,-2.1925,-2.1987,-2.1987,-2.2123,-2.2123,-2.1987,-2.1987,-2.1925,-2.18,-2.1925,-2.1987,-2.1987,-2.1987,-2.1987,-2.1987,-2.1788,-2.1726,-2.1726,-2.1726,-2.1663,-2.1726,-2.1987,-2.2123,-2.2123,-2.2135,-2.2073,-2.2073,-1.4613,-1.4789,-1.5036,-1.4906,-1.5172,-1.5366,-1.5222,-1.5446,-1.5387,-1.4617,-1.3867,-1.3098,-1.2378,-1.2231,-1.1855,-1.1186,-1.1111,-1.1037,-1.0887,-1.0812,-1.0738,-1.0588,-1.0513,-1.0513,-1.0513,-1.0519,-1.0738,-1.1186,-1.2157,-1.2813,-1.331,-1.4194,-1.4569,-1.4569,-1.4713,-1.5338,-1.6237,-1.6376,-1.7019,0.0,-1.7295,-1.7432,0.0,-1.7295,-1.7432,-1.8008,-1.7959,-1.791,-1.7861,0.0,-1.7861,-1.7861,0.0,-1.7861,-1.7861,-1.7861,0.0,0.0,0.0,0.0,0.0,0.0,-1.6901,0.0,0.0,0.0,-1.5949,-1.5901,0.0,-1.5638,-1.5263,0.0,0.0,0.0,0.0,0.0,0.0,0.0,0.0,0.0,0.0,0.0,0.0,0.0,0.0,-2.0366,-2.0366,-2.0366,-2.0366,-2.088,-2.1198,-2.1198,-2.1862,-2.1862,-2.1262,-2.1198,-2.0944,-2.0366,-2.0944,-2.1198,-2.1198,-2.1198,-2.1198,-2.1198,-2.0398,-2.0063,-2.0063,-1.9868,-1.9803,-1.9933,-2.14,-2.1925,-2.1937,-2.1824,-2.1761,-2.1761,-1.4707,-1.4932,-1.5109,-1.5109,-1.5437,-1.5627,-1.5557,-1.5325,-1.4974,-1.4609,-1.3528,-1.2666,-1.2372,-1.1855,-1.1409,-1.0962,-1.0962,-1.0812,0.0,0.0,-1.0588,-1.0513,-1.0368,-1.0293,-1.0293,-1.0218,-1.0443,-1.0962,-1.1706,-1.2372,-1.2886,-1.3622,-1.3928,-1.3992,-1.441,-1.5108,-1.5948,-1.5948,-1.6733,0.0,0.0,0.0,0.0,-1.7148,-1.7364,-1.8008,-1.8008,-1.8008,-1.8008,0.0,-1.7725,0.0,0.0,0.0,0.0,0.0,0.0,0.0,0.0,0.0,0.0,0.0,0.0,0.0,-1.6609,0.0,-1.6402,0.0,0.0,0.0,0.0,0.0,0.0,0.0,-1.5614,0.0,0.0,0.0,0.0,0.0,0.0,0.0,0.0,0.0,0.0,0.0,0.0,-2.0096,-2.0096,-2.0355,-2.0549,-2.0549,-2.0816,-2.0816,-2.0549,-2.0549,-2.0355,-2.0096,-2.0355,-2.0473,-2.0322,-2.0322,-2.0268,-2.0128,-1.9792,-1.9596,-1.9596,-1.953,-1.9465,-1.9541,-2.015,-2.0677,-2.1198,-2.1561,-2.1698,-2.1698,-1.4698,-1.4985,-1.5231,-1.5377,-1.5539,-1.5647,-1.5647,-1.484,-1.4322,-1.4322,-1.3018,-1.2077,-1.2157,-1.1477,-1.097,-1.0818,-1.0808,-1.0744,0.0,0.0,-1.0368,-1.0368,-1.0218,-1.0143,-1.0143,-0.9997,-1.0218,-1.0812,-1.1409,-1.2003,-1.2599,-1.3193,-1.3492,-1.3492,-1.4049,-1.4681,-1.5392,-1.5392,-1.6306,-1.751,-1.5455,-1.5737,-1.7373,-1.7226,-1.7432,-1.7725,-1.794,-1.8008,-1.8008,-1.8008,-1.751,0.0,-1.7794,0.0,0.0,0.0,0.0,0.0,-1.7725,0.0,0.0,0.0,0.0,0.0,0.0,0.0,0.0,0.0,0.0,0.0,0.0,0.0,-1.5817,-1.5817,0.0,-1.551,0.0,0.0,0.0,0.0,0.0,0.0,0.0,0.0,0.0,0.0,-1.9375,0.0,-1.9431,-1.9562,-1.9704,-1.977,-1.989,-1.989,-1.977,-1.9704,-1.9573,-1.9375,-1.9573,-1.9552,-1.9475,-1.9475,-1.9344,-1.9212,-1.8946,-1.888,-1.888,-1.8813,-1.8813,-1.8813,-1.889,-1.9354,-1.9944,-2.0688,-2.0967,-2.0967,-1.4609,-1.4895,-1.533,-1.5709,-1.5488,-1.5204,-1.5204,-1.4258,-1.3535,-1.3535,-1.2285,-1.1484,0.0,0.0,0.0,0.0,0.0,-1.0716,-1.0235,0.0,-1.0143,-0.9922,-0.9922,-0.9922,0.0,-0.9922,-1.0218,-1.0812,-1.1409,-1.2003,-1.2599,-1.3193,-1.3492,-1.3492,-1.3492,-1.3912,-1.4673,-1.4673,-1.5525,-1.6793,-1.5242,-1.51,-1.5956,0.0,-1.751,-1.701,-1.7725,0.0,0.0,-1.8008,-1.751,0.0,0.0,0.0,0.0,0.0,0.0,0.0,0.0,0.0,0.0,-1.6724,0.0,0.0,0.0,0.0,-1.5143,0.0,0.0,0.0,0.0,-1.5431,-1.5689,-1.5689,-1.568,0.0,0.0,0.0,0.0,0.0,0.0,0.0,0.0,0.0,0.0,0.0,-1.7657,0.0,-1.7774,-1.824,-1.8633,-1.8834,-1.9278,-1.9278,-1.8834,-1.8633,-1.825,-1.7608,-1.825,-1.8576,-1.8566,-1.8566,-1.8566,-1.8509,-1.7638,-1.7304,-1.7235,-1.7038,-1.6968,-1.7038,-1.7765,-1.8037,-1.8162,-1.8834,-1.911,-1.911,-1.4274,-1.4346,-1.4561,-1.4927,-1.4856,-1.4776,-1.4776,-1.4122,-1.3835,0.0,-1.2948,0.0,0.0,-1.18,-1.0971,0.0,0.0,-1.0495,-1.0008,-0.9997,0.0,0.0,-0.9922,-0.9922,0.0,-0.9922,-1.0368,-1.1409,-1.1632,-1.2224,-1.32,-1.3419,-1.3492,-1.3492,-1.3492,-1.3912,-1.4609,-1.4049,0.0,0.0,0.0,-1.5392,-1.4482,0.0,0.0,-1.7579,-1.7364,-1.7295,0.0,-1.6664,-1.6018,-1.5525,-1.6237,-1.5948,-1.5525,-1.6237,-1.6306,0.0,0.0,0.0,-1.5171,-1.5956,0.0,0.0,0.0,0.0,0.0,0.0,0.0,0.0,0.0,-1.4955,-1.4947,-1.4947,-1.4747,-1.4555,0.0,0.0,0.0,0.0,0.0,0.0,0.0,0.0,0.0,-1.7706,-1.7794,-1.7794,0.0,-1.7833,-1.7978,-1.792,-1.8124,-1.8114,-1.792,-1.7862,-1.7725,-1.747,-1.7735,-1.7784,-1.7638,-1.7638,-1.7569,-1.7442,-1.7107,-1.6968,-1.6978,-1.6908,-1.6908,-1.6899,-1.7176,-1.7304,-1.7442,-1.8576,-1.8977,-1.8977,-1.392,-1.392,-1.4065,-1.4497,-1.4497,0.0,0.0,0.0,0.0,0.0,-1.3439,0.0,-1.3468,0.0,-1.1623,0.0,-1.1038,-1.0695,-1.0067,-1.0122,0.0,-0.9922,-1.0143,0.0,-1.0218,-1.0218,-1.0812,-1.2003,-1.2003,-1.2526,-1.3492,-1.3492,-1.3492,-1.3492,-1.3492,-1.3775,-1.4186,-1.3702,-1.4194,0.0,0.0,-1.5171,0.0,0.0,-1.6376,0.0,0.0,-1.6446,-1.6376,-1.5877,-1.5242,-1.4744,-1.5463,-1.5171,-1.4744,-1.5455,-1.5525,-1.5313,-1.5313,-1.4752,0.0,0.0,-1.4752,0.0,-1.5037,0.0,0.0,0.0,0.0,0.0,0.0,0.0,-1.4601,-1.4601,-1.4348,-1.4166,0.0,-1.4024,0.0,0.0,0.0,0.0,0.0,0.0,-1.7442,-1.7501,-1.7588,-1.7588,0.0,0.0,-1.7382,-1.7392,-1.7323,-1.7323,-1.7392,-1.7323,-1.7263,-1.7263,-1.7263,-1.7254,-1.7107,-1.7107,-1.7038,-1.6908,-1.6908,-1.6908,-1.6908,-1.6908,-1.6908,-1.6908,-1.6908,-1.6908,-1.7038,-1.791,-1.824,-1.824,-1.3492,-1.3492,-1.371,0.0,-1.4274,0.0,0.0,0.0,-1.3989,0.0,-1.374,-1.3615,-1.3873,-1.3305,-1.2701,-1.2024,-1.176,-1.1255,-1.0388,-1.0602,0.0,0.0,-1.0443,-1.0738,-1.0738,-1.0812,-1.1409,-1.2526,-1.2599,-1.29,-1.3492,-1.3492,-1.3492,-1.3492,-1.3492,-1.3492,-1.3492,-1.3492,-1.3912,-1.4537,-1.4601,-1.4601,-1.4537,-1.4601,0.0,-1.4609,-1.5392,-1.5675,-1.5675,-1.5604,-1.5108,-1.4673,-1.5384,-1.51,-1.4673,-1.5392,-1.51,-1.4537,-1.4537,-1.4049,-1.371,-1.4322,0.0,0.0,0.0,0.0,-1.3141,0.0,0.0,0.0,0.0,0.0,-1.4458,-1.4458,-1.4458,-1.4348,-1.3956,-1.3909,0.0,0.0,0.0,0.0,0.0,-1.6403,-1.6899,-1.7097,-1.7038,-1.7038,0.0,0.0,0.0,-1.7166,-1.6968,-1.6968,-1.7166,-1.6978,-1.6908,-1.6908,-1.6908,-1.6908,-1.6908,-1.6908,-1.6908,-1.6908,-1.6908,-1.6908,-1.6908,-1.6908,-1.6908,-1.6908,-1.6908,-1.6908,-1.6908,-1.6908,-1.6908,-1.6908,-1.3492,-1.3492,-1.3564,0.0,-1.371,-1.3637,0.0,0.0,0.0,0.0,-1.3253,-1.27,-1.3489,-1.2481,-1.1578,-1.1244,-1.1222,0.0,0.0,0.0,0.0,-0.9927,-1.0067,-1.0143,-1.0143,-1.0594,-1.1186,-1.1929,-1.2378,-1.29,-1.3492,-1.3492,-1.3492,-1.3492,-1.3492,-1.3492,-1.3492,-1.3492,-1.3637,-1.384,-1.4394,-1.4258,0.0,0.0,-1.4258,-1.3912,-1.4609,-1.4887,-1.4824,-1.4266,-1.3912,-1.3848,-1.3985,-1.3912,-1.3848,-1.3985,-1.3912,-1.3775,-1.3775,-1.363,-1.3492,-1.355,-1.3586,-1.3554,0.0,0.0,0.0,0.0,0.0,0.0,0.0,0.0,0.0,-1.2879,-1.2879,-1.2851,-1.2774,0.0,0.0,-1.2767,0.0,0.0,-1.4895,-1.5683,-1.6254,-1.6324,-1.6968,-1.7323,0.0,0.0,0.0,-1.6968,-1.6908,-1.6899,-1.6968,-1.6908,-1.6908,-1.6908,-1.6908,-1.6908,-1.6908,-1.6908,-1.6908,-1.6908,-1.6908,-1.6908,-1.6908,-1.6908,-1.6908,-1.6908,-1.6908,-1.6908,-1.6908,-1.6908,-1.6908,-1.6908,-1.3499,-1.3492,0.0,-1.3492,0.0,0.0,-1.3704,0.0,0.0,-1.4428,-1.3769,0.0,-1.4027,-1.3374,-1.272,-1.2312,-1.2089,0.0,-1.1152,0.0,0.0,-1.0674,-1.0962,-1.1111,-1.1111,-1.1409,0.0,-1.2526,-1.282,-1.3193,-1.3492,-1.3492,-1.3492,-1.3492,-1.3492,-1.3492,-1.3492,-1.3492,-1.3492,-1.3564,-1.3977,0.0,0.0,-1.3985,-1.384,-1.3564,-1.3977,-1.4122,-1.4049,-1.363,-1.3492,-1.3492,-1.3492,-1.3492,-1.3492,-1.3492,-1.3594,-1.3704,-1.3704,-1.3814,-1.3848,-1.3683,-1.3737,-1.3669,-1.3258,-1.3279,-1.3278,0.0,0.0,0.0,0.0,0.0,0.0,-1.2325,-1.2305,-1.2305,0.0,0.0,0.0,0.0,-1.3098,0.0,0.0,-1.5321,-1.6114,-1.5463,-1.6254,0.0,0.0,0.0,0.0,0.0,-1.5895,-1.6044,-1.6403,-1.6403,-1.6551,-1.6908,-1.6908,-1.6908,-1.6908,-1.6908,-1.6908,-1.6908,-1.6551,-1.6403,-1.6403,-1.6044,-1.6114,-1.6403,-1.6403,-1.6184,-1.5895,-1.5895,-1.6324,-1.6908,-1.3492,-1.3492,0.0,0.0,0.0,0.0,0.0,-1.4084,0.0,-1.4494,0.0,-1.4837,-1.4837,-1.472,-1.436,-1.3784,0.0,-1.2786,-1.212,-1.2348,-1.2264,-1.1706,-1.2224,-1.2452,-1.2452,-1.2526,-1.2893,0.0,-1.3492,-1.3492,-1.3492,-1.3492,-1.3492,-1.3492,-1.3492,-1.3492,-1.3492,-1.3492,-1.3492,-1.3492,-1.3492,-1.3492,-1.3492,-1.3492,-1.3492,-1.3492,-1.3492,-1.3492,-1.3492,-1.3492,-1.3492,-1.3492,-1.3492,-1.3492,-1.3492,-1.3492,-1.3726,-1.3982,-1.3982,-1.4223,-1.4465,-1.4137,-1.4088,-1.403,-1.3588,-1.345,-1.3478,-1.3213,-1.3213,0.0,0.0,0.0,0.0,-1.2465,0.0,0.0,0.0,0.0,0.0,0.0,0.0,0.0,0.0,-1.4824,-1.5903,-1.453,-1.518,0.0,0.0,0.0,0.0,0.0,-1.4601,0.0,-1.5621,0.0,-1.5974,-1.6621,-1.6621,-1.6621,-1.6621,-1.6621,-1.6621,-1.6551,-1.5903,-1.5621,-1.5613,-1.4895,-1.5037,-1.5621,-1.5621,-1.5251,-1.4601,-1.4601,-1.5463,-1.6621,-1.3492,0.0,0.0,0.0,0.0,-1.407,-1.434,-1.4604,-1.4794,-1.4853,-1.4632,-1.449,-1.449,-1.3768,-1.3218,-1.3054,-1.2747,0.0,0.0,0.0,0.0,-1.1719,-1.1781,-1.1855,-1.1855,-1.2378,-1.2673,0.0,-1.3273,-1.3492,-1.3492,-1.3492,-1.3492,-1.3492,-1.3492,-1.3492,-1.3492,-1.3492,0.0,-1.3492,-1.3492,-1.3492,-1.3492,-1.3492,-1.3492,-1.3492,-1.3492,-1.3492,-1.3492,-1.3492,-1.3492,-1.3492,-1.3492,-1.3492,-1.3492,-1.3492,-1.3726,-1.3982,-1.3982,-1.4223,-1.4387,-1.3981,-1.4092,-1.4058,-1.3419,-1.3394,-1.3494,-1.326,-1.3213,-1.3193,-1.314,0.0,0.0,0.0,0.0,0.0,0.0,0.0,0.0,0.0,0.0,0.0,0.0,0.0,-1.3962,-1.3745,0.0,0.0,0.0,0.0,0.0,0.0,0.0,0.0,0.0,0.0,0.0,-1.5029,-1.5029,-1.5029,-1.5029,-1.5029,-1.5029,-1.5037,-1.4895,-1.4816,-1.4824,-1.4681,-1.4673,-1.4816,-1.4816,-1.4744,-1.4601,-1.4601,-1.4752,-1.5029,-1.3711,0.0,0.0,0.0,0.0,0.0,0.0,-1.4992,0.0,-1.4881,-1.4603,-1.4434,-1.4434,-1.3833,-1.3488,-1.3488,-1.3138,-1.2893,-1.2825,-1.2818,-1.275,-1.2606,-1.2599,0.0,-1.2599,-1.29,-1.3046,-1.3046,0.0,-1.3492,-1.3492,-1.3492,-1.3492,-1.3492,-1.3492,-1.3492,0.0,0.0,0.0,-1.3492,-1.3492,-1.3492,-1.3492,-1.3492,-1.3492,-1.3492,-1.3492,-1.3492,-1.3492,-1.3492,-1.3609,-1.3748,-1.3748,-1.3865,-1.3996,-1.3838,-1.407,-1.4316,-1.4159,-1.4388,-1.4543,-1.4211,-1.4241,-1.4234,-1.3776,-1.3774,-1.3834,-1.3694,-1.3667,-1.3621,-1.3467,-1.3313,0.0,0.0,0.0,0.0,0.0,0.0,0.0,0.0,0.0,0.0,0.0,0.0,0.0,0.0,0.0,0.0,0.0,0.0,0.0,0.0,0.0,0.0,0.0,0.0,0.0,-1.4601,-1.4601,-1.4601,-1.4601,-1.4601,-1.4601,-1.4601,-1.4171,-1.4034,-1.4034,-1.4034,-1.3818,-1.3455,-1.389,-1.3745,-1.323,-1.323,-1.3157,-1.323,0.0,-1.3621,0.0,0.0,-1.4355,0.0,-1.4904,-1.5218,-1.5313,-1.4903,-1.4787,-1.4618,-1.4487,-1.4238,-1.4062,-1.3989,-1.3682,-1.3492,-1.3492,-1.3492,-1.3492,-1.3492,-1.3492,-1.3492,-1.3492,-1.3492,-1.3492,0.0,0.0,-1.3492,-1.3492,-1.3492,-1.3492,-1.3492,0.0,0.0,0.0,0.0,-1.3492,-1.3492,-1.3419,-1.3419,-1.3419,-1.3419,-1.3346,-1.3346,-1.3346,-1.3346,-1.3346,-1.3346,-1.3637,-1.3899,-1.3899,-1.4125,-1.4301,-1.4059,-1.428,-1.4529,-1.4367,-1.4503,-1.465,-1.4482,-1.4398,-1.4321,-1.4166,-1.4088,-1.4088,-1.4088,-1.4088,-1.4015,-1.3781,-1.3554,0.0,0.0,0.0,0.0,0.0,0.0,0.0,0.0,0.0,0.0,0.0,0.0,0.0,0.0,0.0,-1.2952,-1.2305,-1.2305,0.0,0.0,0.0,0.0,-1.3244,0.0,-1.3528,0.0,-1.4099,-1.4099,-1.4099,-1.4099,-1.4099,-1.4099,-1.3528,-1.3244,-1.3244,-1.3171,-1.2806,-1.2298,-1.2879,-1.2659,-1.1929,-1.1929,-1.1855,-1.1935,0.0,0.0,0.0,0.0,0.0,0.0,0.0,-1.5218,-1.5313,-1.4903,-1.5174,-1.5116,-1.4531,-1.4443,-1.4304,-1.4004,-1.3682,-1.3492,-1.3492,-1.3492,-1.3492,-1.3492,-1.3492,-1.3492,-1.3492,-1.3492,-1.3492,0.0,0.0,-1.3492,-1.3492,-1.3492,-1.3492,0.0,0.0,0.0,0.0,-1.3492,-1.3492,-1.3499,-1.3273,-1.32,-1.32,-1.3046,-1.2973,-1.2973,-1.2973,-1.2973,-1.2973,-1.2973,-1.3252,-1.3658,-1.3658,-1.3719,-1.3895,-1.3817,-1.4041,-1.4279,-1.4286,-1.4503,-1.465,-1.4482,-1.4398,-1.4321,-1.4166,-1.4088,-1.4088,-1.4088,-1.4088,-1.4082,-1.4048,-1.4021,-1.4008,0.0,0.0,0.0,0.0,0.0,0.0,0.0,0.0,0.0,0.0,0.0,0.0,0.0,0.0,-1.2378,-1.2305,-1.2305,0.0,-1.2305,0.0,-1.2372,-1.2445,-1.2445,0.0,-1.2519,-1.2519,-1.2519,-1.2519,-1.2519,-1.2519,-1.2519,-1.2445,-1.2445,-1.2372,-1.2224,-1.2077,-1.2003,-1.1929,-1.1781,-1.1706,-1.1706,-1.1706,-1.1745,0.0,0.0,0.0,0.0,0.0,0.0,0.0,-1.5343,-1.5313,-1.4903,-1.5057,-1.5035,-1.4779,-1.4582,-1.434,-1.4011,-1.3865,-1.3704,-1.3506,-1.3492,-1.3492,-1.3492,-1.3492,-1.3492,-1.3492,-1.3492,-1.3419,0.0,0.0,0.0,0.0,-1.3119,0.0,0.0,0.0,-1.3046,-1.3119,-1.3119,-1.3119,-1.3119,-1.3046,-1.3046,-1.3046,-1.29,-1.29,-1.29,-1.29,-1.3012,-1.3173,-1.3173,-1.3376,-1.3712,-1.3712,-1.3971,-1.4288,-1.4206,-1.4289,-1.4303,-1.4234,-1.4239,-1.4328,-1.4243,-1.4243,-1.4159,-1.4088,-1.4088,-1.4088,-1.4088,-1.4088,-1.4088,-1.4088,-1.4088,-1.3913,0.0,0.0,0.0,0.0,0.0,0.0,0.0,0.0,0.0,0.0,0.0,-1.2305,0.0,0.0,-1.2305,-1.2305,-1.2472,0.0,-1.2565,0.0,-1.2846,-1.2846,-1.2846,-1.2846,-1.2846,-1.2846,-1.2846,-1.2839,-1.2652,-1.2397,-1.2157,-1.2231,-1.2157,-1.1929,-1.2003,-1.1929,-1.1781,-1.1706,-1.1632,-1.1502,-1.1677,-1.167,-1.163,-1.4633,0.0,-1.4468,0.0,-1.5087,-1.516,-1.5394,-1.5431,-1.535,-1.5116,-1.5087,-1.5013,-1.4823,-1.4684,-1.4435,-1.4018,-1.3982,-1.3843,-1.3514,-1.3492,-1.3492,-1.3492,-1.3492,0.0,-1.3419,-1.3419,-1.3346,-1.3119,-1.3119,0.0,0.0,0.0,0.0,0.0,-1.2826,-1.2826,-1.29,-1.29,-1.29,-1.29,-1.2826,-1.2826,-1.2826,-1.2746,-1.2808,-1.2885,-1.2885,-1.3003,-1.3264,-1.3264,-1.3471,-1.3718,-1.3798,-1.4158,-1.4489,-1.4321,-1.4321,-1.4237,-1.4166,-1.4088,-1.4088,-1.4088,-1.4088,-1.4088,-1.4088,-1.4088,-1.4088,-1.4088,-1.4088,-1.4088,-1.4088,-1.3913,-1.3483,0.0,0.0,0.0,0.0,0.0,0.0,0.0,0.0,0.0,0.0,0.0,0.0,0.0,0.0,0.0,0.0,0.0,0.0,0.0,0.0,0.0,0.0,0.0,-1.3048,-1.2969,-1.3127,-1.3127,-1.2962,-1.2824,-1.2536,-1.2181,-1.2339,-1.2136,-1.1834,-1.1909,-1.184,-1.1684,-1.1684,-1.1583,-1.16,-1.1731,-1.1721,-1.1685,-1.4465,-1.461,-1.4792,-1.5282,-1.5423,-1.5423,-1.5431,-1.5431,-1.5431,-1.5423,-1.5423,-1.5182,-1.4545,-1.475,-1.4677,-1.404,-1.3982,-1.3843,-1.3514,-1.3492,-1.3492,0.0,0.0,-1.3419,-1.32,-1.32,-1.3119,-1.29,0.0,0.0,-1.29,0.0,0.0,-1.29,-1.2673,-1.2673,-1.29,-1.29,-1.29,-1.29,-1.2673,-1.2599,-1.2599,-1.2378,-1.2485,-1.2815,-1.2815,-1.2939,-1.3206,-1.3206,-1.34,-1.3641,-1.3804,-1.4014,-1.4088,-1.4088,-1.4088,-1.4088,-1.4088,-1.4088,-1.4088,-1.4088,-1.4088,-1.4088,-1.4088,-1.4088,-1.4088,-1.4088,-1.4088,-1.4088,-1.4088,-1.3313,-1.2705,-1.2705,0.0,0.0,0.0,0.0,0.0,0.0,0.0,0.0,-1.0449,0.0,0.0,0.0,0.0,0.0,0.0,0.0,0.0,-1.1816,-1.1588,0.0,-1.2889,-1.2889,-1.2803,-1.2485,-1.2969,-1.2969,-1.2485,-1.2479,-1.2473,-1.2473,-1.2473,-1.2315,-1.2068,-1.1908,-1.1837,-1.176,-1.1605,-1.1685,-1.1914,-1.1914,-1.1914,-1.1956,-1.4828,-1.4939,-1.5051,-1.5325,-1.5431,-1.5431,-1.5431,-1.5431,-1.5431,-1.5431,-1.5431,-1.535,-1.5145,-1.5211,-1.5101,0.0,-1.464,-1.4501,0.0,-1.3953,-1.3828,-1.3828,-1.3616,-1.3419,-1.32,-1.32,-1.3046,-1.2673,0.0,0.0,0.0,-1.2452,-1.2452,-1.2526,-1.2452,-1.2452,-1.2526,-1.2526,-1.2526,-1.2526,-1.2452,-1.2378,-1.2399,-1.26,-1.2741,-1.2849,-1.2986,-1.3253,-1.3507,-1.3507,-1.3701,-1.3941,-1.4032,-1.4099,-1.4088,-1.4088,-1.4088,-1.4088,-1.4088,-1.4088,-1.4088,-1.4088,-1.4088,-1.4088,-1.4088,-1.4088,-1.4088,-1.4088,-1.3568,-1.3137,-1.3137,-1.2357,-1.1585,-1.0895,0.0,0.0,0.0,0.0,0.0,0.0,0.0,0.0,0.0,-0.9953,0.0,0.0,0.0,0.0,0.0,0.0,0.0,0.0,-1.0915,0.0,-1.1337,-1.1337,-1.1253,-1.1248,-1.1337,-1.1249,-1.093,-1.093,-1.1083,-1.133,-1.149,-1.1694,-1.1952,-1.1379,-1.1385,-1.1793,-1.1061,-1.1278,-1.1944,-1.2125,-1.2192,-1.2228,-1.4831,-1.4915,-1.4915,-1.5257,-1.5264,-1.5347,-1.5431,-1.5431,-1.5347,-1.5257,-1.5264,-1.5257,-1.5166,-1.5173,0.0,-1.4889,-1.486,0.0,-1.4401,-1.4113,-1.3928,-1.3928,-1.3733,-1.355,-1.3325,0.0,0.0,-1.2696,-1.258,-1.2452,-1.2305,-1.2305,-1.2305,-1.2305,-1.2305,-1.2305,-1.2305,-1.2305,-1.2305,-1.2311,-1.2425,-1.2472,-1.2498,-1.2806,-1.2986,-1.3106,-1.3307,-1.3561,-1.3808,-1.3808,-1.3935,-1.4088,-1.4088,-1.4088,-1.4088,-1.4088,-1.4088,-1.4088,-1.4088,-1.4088,-1.4088,-1.4088,-1.4088,-1.4088,-1.4088,-1.4088,-1.4004,-1.3652,-1.3137,-1.2619,-1.2272,-1.1413,-1.0549,-1.0033,0.0,0.0,0.0,0.0,0.0,0.0,0.0,0.0,0.0,-0.9126,0.0,0.0,0.0,0.0,0.0,0.0,0.0,-0.9979,-0.9938,0.0,-1.0438,-1.0524,-1.0438,-1.0351,-1.0351,-1.0282,-1.0239,-1.0154,-1.0243,-1.045,-1.0611,-1.0816,-1.0991,-1.049,-1.0571,-1.0914,-1.0326,-1.0547,-1.1145,-1.1377,-1.1433,-1.1455,-1.4573,-1.4566,0.0,0.0,-1.509,0.0,-1.534,-1.534,-1.5257,-1.509,-1.509,-1.4999,-1.4734,-1.4734,-1.4788,-1.4918,0.0,0.0,0.0,-1.3944,-1.3845,-1.3845,-1.3831,0.0,-1.3495,-1.3222,-1.3002,-1.2856,-1.2498,-1.2351,-1.2331,-1.2358,-1.2351,-1.2331,-1.2331,-1.2331,-1.2331,-1.2311,-1.2311,-1.2358,-1.2632,-1.2835,-1.2889,-1.312,-1.3407,-1.3566,-1.3667,-1.3854,-1.4088,-1.4088,-1.4088,-1.4088,-1.4088,-1.4088,-1.4088,-1.4088,-1.4088,-1.4088,-1.4088,-1.4082,-1.4004,-1.4004,-1.4004,-1.3997,-1.4088,-1.4082,-1.3743,-1.2875,-1.2619,-1.2272,-1.1322,-1.0463,-0.9772,-0.9772,-0.9082,-0.8568,-0.8568,0.0,0.0,0.0,0.0,0.0,0.0,-0.8201,-0.796,0.0,0.0,0.0,0.0,0.0,0.0,-0.9056,-0.889,-0.9235,-1.0096,-1.0096,-0.9923,-0.9749,-0.9749,-0.9836,-1.0096,-0.9836,-0.9749,-0.9836,-0.9836,-0.9728,-0.9555,-0.947,-0.947,-0.9555,-0.947,-0.9586,-0.9923,-0.9923,-0.9923,-0.9923,0.0,0.0,-1.4482,-1.4741,-1.4824,-1.4824,-1.4824,-1.4908,-1.4824,-1.4824,-1.4824,-1.4741,-1.4734,-1.4734,-1.4706,-1.4719,-1.4712,-1.4677,-1.4524,-1.43,-1.4174,-1.4174,-1.3943,-1.3738,-1.3495,-1.3427,-1.3321,-1.31,-1.3033,-1.2872,-1.2721,-1.2886,-1.2866,-1.2721,-1.2721,-1.2721,-1.2625,-1.2398,-1.2432,-1.2721,-1.2795,-1.2886,-1.3133,-1.3427,-1.3499,-1.3592,-1.3901,-1.4028,-1.4088,-1.4088,-1.4088,-1.4088,-1.4088,-1.4088,-1.4088,-1.4088,-1.4088,-1.4088,-1.4088,-1.3568,-1.3052,-1.3052,-1.3052,-1.3222,-1.3913,-1.3568,-1.296,-1.279,-1.1585,-1.0463,-1.0289,-0.9515,-0.8915,-0.8915,-0.8556,-0.8292,-0.8292,0.0,0.0,0.0,-0.8032,-0.8032,-0.794,-0.7768,-0.7661,0.0,0.0,0.0,0.0,0.0,-0.7629,-0.7852,-0.7669,-0.7665,-0.7837,-0.7837,-0.7837,-0.7749,-0.7749,-0.7837,-0.7837,-0.7749,-0.8189,-0.8803,-0.8803,-0.9209,-0.9765,-0.8996,-0.9165,-0.9765,-0.8992,-0.9191,-0.9923,-0.9923,-0.9923,-0.9923,-1.4243,-1.4237,-1.4321,-1.4566,-1.4566,-1.4566,-1.465,-1.4734,-1.465,-1.4566,-1.4566,-1.4566,-1.4412,-1.4412,-1.4412,-1.4412,-1.4489,-1.4566,-1.4566,-1.4338,-1.4172,-1.4172,-1.4015,-1.3919,-1.3757,-1.3622,-1.3413,-1.3213,-1.3213,-1.3126,-1.2959,-1.3133,-1.312,-1.2959,-1.2959,-1.2959,-1.2946,-1.2786,-1.2812,-1.2973,-1.31,-1.326,-1.344,-1.3734,-1.3848,-1.3868,-1.4028,-1.4088,-1.4088,-1.4088,-1.4088,-1.4088,-1.4088,-1.4088,-1.3997,-1.3568,-1.3483,-1.3483,-1.3483,-1.279,-1.21,-1.21,-1.21,-1.2186,-1.2705,-1.2448,-1.1929,-1.1499,-1.0636,-0.9772,-0.9345,-0.8911,-0.8564,-0.8472,-0.8292,-0.8201,-0.8113,-0.794,0.0,-0.7944,-0.7944,-0.7856,-0.7768,-0.7595,-0.7415,-0.7323,0.0,0.0,-0.7139,-0.7139,-0.7143,-0.7323,-0.7143,-0.7139,-0.7139,-0.7139,-0.7139,-0.7139,-0.7139,-0.7139,-0.7139,-0.7139,-0.7404,-0.7841,-0.7841,-0.8189,-0.8619,-0.8101,-0.8189,-0.8532,-0.8101,-0.8189,-0.8619,-0.8619,-0.8619,-0.8619,-1.4088,-1.4088,-1.4166,-1.4321,-1.4314,-1.4398,-1.4566,-1.4573,-1.4573,-1.4398,-1.4314,-1.4321,-1.4088,-1.4088,-1.4088,-1.4088,-1.4243,-1.4314,-1.4314,-1.4166,-1.4088,-1.4088,-1.4088,-1.4088,-1.4088,-1.3841,-1.3587,-1.334,-1.334,-1.332,-1.3273,-1.332,-1.332,-1.3273,-1.3273,-1.3273,-1.3273,-1.3068,-1.3074,-1.3293,-1.3378,-1.3421,-1.3487,-1.382,-1.3828,-1.3652,-1.3652,-1.3652,-1.3652,-1.3652,-1.3652,-1.3652,-1.3652,-1.3652,-1.3483,-1.2705,-1.2357,-1.2272,-1.2443,-1.1843,-1.1068,-1.1068,-1.1068,-1.1154,-1.1241,-1.1149,-1.089,-1.0028,-0.9772,-0.9515,-0.874,-0.8564,-0.8472,-0.8201,-0.8113,-0.8025,-0.7856,0.0,-0.7764,-0.7764,-0.7764,-0.768,-0.7503,-0.7415,-0.7323,-0.7139,-0.7139,0.0,0.0,-0.7139,-0.7139,-0.7139,-0.7139,-0.7139,-0.7139,-0.7139,-0.7139,-0.7139,-0.7139,-0.7139,-0.7139,-0.7139,-0.7139,-0.7139,-0.7139,-0.7139,-0.7139,-0.7139,-0.7139,-0.7139,-0.7139,-0.7139,-0.7139,-0.7139,-0.7139,-0.7139,-1.4088,-1.4088,-1.4088,-1.4166,-1.4166,-1.4166,-1.4173,-1.4166,-1.4166,-1.4166,-1.4166,-1.4166,-1.4088,-1.4088,-1.4088,-1.4088,-1.4166,-1.4166,-1.4166,-1.4088,-1.4088,-1.4088,-1.4088,-1.4088,-1.4088,-1.4041,-1.3995,-1.3955,-1.3955,-1.3821,-1.3499,-1.3834,-1.3814,-1.3574,-1.3574,-1.3574,-1.3479,-1.2419,-1.2618,-1.3499,-1.2795,-1.2618,-1.282,-1.2863,-1.2443,-1.1757,-1.1757,-1.1757,-1.1757,-1.1757,-1.1757,-1.1757,-1.1757,-1.1757,-1.1671,-1.1585,-1.0982,-1.0549,-1.1327,-1.0804,-1.012,-1.012,-1.012,-1.0289,-1.1149,-1.0722,-1.012,-0.9946,-0.9345,-0.874,-0.8656,-0.8384,-0.8288,-0.8201,-0.7852,-0.7591,0.0,0.0,-0.7228,-0.7228,-0.7228,-0.7231,-0.7143,-0.7143,-0.7143,-0.7139,-0.7139,-0.7139,-0.7139,-0.7139,-0.7139,-0.7139,-0.7139,-0.7139,-0.7139,-0.7139,-0.7139,-0.7139,-0.7139,-0.7139,-0.7139,-0.7139,-0.7139,-0.7139,-0.7139,-0.7139,-0.7139,-0.7139,-0.7139,-0.7139,-0.7139,-0.7139,-0.7139,-0.7139,-0.7139,-0.7139,-1.4088,-1.4088,-1.4088,-1.4088,-1.4088,-1.4088,-1.4088,-1.4088,-1.4088,-1.4088,-1.4088,-1.4088,-1.4088,-1.4088,-1.4088,-1.4088,-1.4088,-1.4088,-1.4088,-1.4088,-1.4088,-1.4088,-1.4088,-1.4088,-1.4088,-1.4088,-1.4088,-1.4088,-1.4088,-1.4015,-1.3881,-1.4021,-1.4015,-1.3881,-1.3881,-1.3625,-1.3111,-1.2557,-1.2326,-1.2349,-1.1928,-1.1827,-1.1929,-1.1929,-1.1671,-1.1327,-1.1327,-1.1327,-1.1327,-1.1327,-1.1327,-1.1327,-1.1327,-1.1327,-1.1241,-1.0722,-1.0202,-0.9859,-0.9864,-0.9515,-0.917,-0.917,-0.917,-0.9345,-0.9777,-0.9519,-0.917,-0.8986,-0.864,-0.8384,-0.8212,-0.8116,-0.8028,-0.7852,-0.768,0.0,0.0,-0.7143,-0.7139,-0.7139,-0.7139,-0.7139,-0.7139,-0.7139,-0.7139,-0.7139,-0.7139,-0.7139,-0.7139,-0.7139,-0.7139,-0.7139,-0.7139,-0.7139,-0.7139,-0.7139,-0.7139,-0.7139,-0.7139,-0.7139,-0.7139,-0.7139,-0.7139,-0.7139,-0.7139,-0.7139,-0.7139,-0.7139,-0.7139,-0.7139,-0.7139,-0.7139,-0.7139,-0.7139,-0.7139,-0.7139,-1.4088,-1.4088,-1.4088,-1.4088,-1.4088,-1.4088,-1.4088,-1.4088,-1.4088,-1.4088,-1.4088,-1.4088,-1.4088,-1.4088,-1.4088,-1.4088,-1.4088,-1.4088,-1.4088,-1.4088,-1.4088,-1.4088,-1.4088,-1.4088,-1.4088,-1.4088,-1.4088,-1.4088,-1.4088,-1.4088,-1.4088,-1.4088,-1.4088,-1.4088,-1.3828,-1.3398,-1.2705,-1.2272,-1.1757,-1.1241,-1.1068,-1.0977,-1.0977,-1.0977,-1.0809,-1.0636,-1.0636,-1.0636,-1.0636,-1.0636,-1.0636,-1.0636,-1.0636,-1.0636,-1.0549,-0.9772,-0.9602,-0.9428,-0.874,-0.8568,-0.8568,-0.8568,-0.8568,-0.8568,-0.8568,-0.8564,-0.8472,-0.8201,-0.8201,-0.8113,-0.794,-0.7856,-0.7768,-0.7507,0.0,0.0,0.0,-0.7139,-0.7139,-0.7139,-0.7139,-0.7139,-0.7139,-0.7139,-0.7139,-0.7139,-0.7139,-0.7139,-0.7139,-0.7139,-0.7139,-0.7139,-0.7139,-0.7139,-0.7139,-0.7139,-0.7139,-0.7139,-0.7139,-0.7139,-0.7139,-0.7139,-0.7139,-0.7139,-0.7139,-0.7139,-0.7139,-0.7139,-0.7139,-0.7139,-0.7139,-0.7139,-0.7139,-0.7139,-0.7139,-0.7139,-1.4088,-1.4088,-1.4088,-1.4088,-1.4088,-1.4088,-1.4088,-1.4088,-1.4088,-1.4088,-1.4088,-1.4088,-1.4088,-1.4088,-1.4088,-1.4088,-1.4088,-1.4088,-1.4088,-1.4088,-1.4088,-1.4088,-1.4088,-1.4088,-1.4088,-1.4088,-1.4088,-1.4088,-1.4088,-1.4088,-1.4088,-1.4088,-1.4088,-1.4088,-1.3222,-1.279,-1.2619,-1.0809,-1.0549,-1.1235,-1.0376,-1.0033,-1.0033,-1.0033,-0.9515,-0.8828,-0.8828,-0.8828,-0.8828,-0.8828,-0.8828,-0.8828,-0.8828,-0.8828,-0.8828,-0.874,-0.8652,-0.8652,-0.8656,-0.8568,-0.8568,-0.8568,-0.8568,-0.8568,-0.8568,-0.8384,-0.8201,-0.8201,-0.8028,-0.794,-0.7944,-0.768,-0.7507,-0.7507,0.0,0.0,-0.7139,-0.7139,-0.7139,-0.7139,-0.7139,-0.7139,-0.7139,-0.7139,-0.7139,-0.7139,-0.7139,-0.7139,-0.7139,-0.7139,-0.7139,-0.7139,-0.7139,-0.7139,-0.7139,-0.7139,-0.7139,-0.7139,-0.7139,-0.7139,-0.7139,-0.7139,-0.7139,-0.7139,-0.7139,-0.7139,-0.7139,-0.7139,-0.7139,-0.7139,-0.7139,-0.7139,-0.7139,-0.7139,-0.7139,-0.7139,-1.4088,-1.4088,-1.4088,-1.4088,-1.4088,-1.4088,-1.4088,-1.4088,-1.4088,-1.4088,-1.4088,-1.4088,-1.4088,-1.4088,-1.4088,-1.4088,-1.4088,-1.4088,-1.4088,-1.4088,-1.4088,-1.4088,-1.4088,-1.4088,-1.4088,-1.4088,-1.4088,-1.4088,-1.4088,-1.4088,-1.4088,-1.4088,-1.3828,-1.3222,-1.2875,-1.2015,-1.0895,-1.0202,-0.9777,-0.9607,-0.9257,-0.9087,-0.9087,-0.9087,-0.8911,-0.8568,-0.8568,-0.8568,-0.8568,-0.8568,-0.8568,-0.8568,-0.8568,-0.8476,-0.8292,-0.8208,-0.8208,-0.8208,-0.8208,-0.8388,-0.8564,-0.8384,-0.838,-0.8292,-0.8208,-0.812,-0.794,-0.7768,-0.768,-0.7591,-0.7408,-0.7319,-0.7234,-0.7234,0.0,-0.7139,-0.7139,-0.7139,-0.7139,-0.7139,-0.7139,-0.7139,-0.7139,-0.7139,-0.7139,-0.7139,-0.7139,-0.7139,-0.7139,-0.7139,-0.7139,-0.7139,-0.7139,-0.7139,-0.7139,-0.7139,-0.7139,-0.7139,-0.7139,-0.7139,-0.7139,-0.7139,-0.7139,-0.7139,-0.7139,-0.7139,-0.7139,-0.7139,-0.7139,-0.7139,-0.7139,-0.7139,-0.7139,-0.7139,-0.7139,-0.7139,-1.4088,-1.4088,-1.4088,-1.4088,-1.4088,-1.4088,-1.4088,-1.4088,-1.4088,-1.4088,-1.4088,-1.4088,-1.4088,-1.4088,-1.4088,-1.4088,-1.4088,-1.4088,-1.4088,-1.4088,-1.4088,-1.4088,-1.4088,-1.4088,-1.4088,-1.4088,-1.3997,-1.3659,-1.3659,-1.3483,-1.3222,-1.3222,-1.2875,-1.2272,-1.1929,-1.1068,-0.9859,-0.9602,-0.917,-0.8568,-0.8568,-0.8568,-0.8568,-0.8476,-0.8472,-0.8472,-0.8388,-0.8388,-0.8388,-0.8388,-0.8388,-0.8388,-0.8388,-0.8296,-0.8113,-0.7944,-0.7944,-0.7944,-0.7944,-0.812,-0.83,-0.8116,-0.8113,-0.8113,-0.794,-0.7856,-0.768,-0.7507,-0.7415,-0.7323,-0.7143,-0.7139,-0.7139,-0.7139,-0.7139,-0.7139,-0.7139,-0.7139,-0.7139,-0.7139,-0.7139,-0.7139,-0.7139,-0.7139,-0.7139,-0.7139,-0.7139,-0.7139,-0.7139,-0.7139,-0.7139,-0.7139,-0.7139,-0.7139,-0.7139,-0.7139,-0.7139,-0.7139,-0.7139,-0.7139,-0.7139,-0.7139,-0.7139,-0.7139,-0.7139,-0.7139,-0.7139,-0.7139,-0.7139,-0.7139,-0.7139,-0.7139,-0.7139,-0.7139,-0.7139,-0.7139,-1.4088,-1.4088,-1.4088,-1.4088,-1.4088,-1.4088,-1.4088,-1.4088,-1.4088,-1.4088,-1.4088,-1.4088,-1.4088,-1.4088,-1.4088,-1.4088,-1.4088,-1.4088,-1.4088,-1.4088,-1.4088,-1.4088,-1.4088,-1.4088,-1.4088,-1.4088,-1.3652,-1.2705,-1.2705,-1.2186,-1.1327,-1.1327,-1.1327,-1.1235,-1.0289,-0.9859,-0.9859,-0.8999,-0.8568,-0.8568,-0.8568,-0.8568,-0.8564,-0.8292,-0.8201,-0.8201,-0.794,-0.7944,-0.7944,-0.7944,-0.7944,-0.7944,-0.7856,-0.7856,-0.7856,-0.7856,-0.7856,-0.7856,-0.7856,-0.7856,-0.7856,-0.7856,-0.7856,-0.7856,-0.7856,-0.768,-0.7507,-0.7507,-0.7323,-0.7139,-0.7139,-0.7139,-0.7139,-0.7139,-0.7139,-0.7139,-0.7139,-0.7139,-0.7139,-0.7139,-0.7139,-0.7139,-0.7139,-0.7139,-0.7139,-0.7139,-0.7139,-0.7139,-0.7139,-0.7139,-0.7139,-0.7139,-0.7139,-0.7139,-0.7139,-0.7139,-0.7139,-0.7139,-0.7139,-0.7139,-0.7139,-0.7139,-0.7139,-0.7139,-0.7139,-0.7139,-0.7139,-0.7139,-0.7139,-0.7139,-0.7139,-0.7139,-0.7139,-0.7139,-0.7139,-0.7139,-1.4088,-1.4088,-1.4088,-1.4088,-1.4088,-1.4088,-1.4088,-1.4088,-1.4088,-1.4088,-1.4088,-1.4088,-1.4088,-1.4088,-1.4088,-1.4088,-1.4088,-1.4088,-1.4088,-1.4088,-1.4088,-1.4088,-1.4088,-1.4088,-1.4088,-1.4088,-1.3652,-1.2705,-1.2705,-1.2186,-1.1327,-1.1327,-1.0982,-1.0289,-1.0028,-0.9602,-0.8999,-0.8468,-0.8292,-0.8292,-0.8208,-0.812,-0.812,-0.8028,-0.8028,-0.794,-0.794,-0.7944,-0.7944,-0.7944,-0.7944,-0.7856,-0.7683,-0.7591,-0.7591,-0.7408,-0.7319,-0.7319,-0.7319,-0.7319,-0.7408,-0.7591,-0.7591,-0.7591,-0.7408,-0.7319,-0.7231,-0.7231,-0.7143,-0.7139,-0.7139,-0.7139,-0.7139,-0.7139,-0.7139,-0.7139,-0.7139,-0.7139,-0.7139,-0.7139,-0.7139,-0.7139,-0.7139,-0.7139,-0.7139,-0.7139,-0.7139,-0.7139,-0.7139,-0.7139,-0.7139,-0.7139,-0.7139,-0.7139,-0.7139,-0.7139,-0.7139,-0.7139,-0.7139,-0.7139,-0.7139,-0.7139,-0.7139,-0.7139,-0.7139,-0.7139,-0.7139,-0.7139,-0.7139,-0.7139,-0.7139,-0.7139,-0.7139,-0.7139,-0.7139,-0.7139,-1.4088,-1.4088,-1.4088,-1.4088,-1.4088,-1.4088,-1.4088,-1.4088,-1.4088,-1.4088,-1.4088,-1.4088,-1.4088,-1.4088,-1.4088,-1.4088,-1.4088,-1.4088,-1.4088,-1.4088,-1.3913,-1.3568,-1.3568,-1.3568,-1.3568,-1.3222,-1.2534,-1.1585,-1.1585,-1.1154,-1.0207,-1.0207,-0.9854,-0.9248,-0.9248,-0.8903,-0.83,-0.8116,-0.8113,-0.8113,-0.794,-0.7944,-0.7856,-0.7768,-0.7768,-0.7768,-0.7588,-0.7588,-0.7588,-0.7588,-0.7588,-0.7588,-0.7411,-0.7323,-0.7323,-0.7143,-0.7139,-0.7139,-0.7139,-0.7139,-0.7143,-0.7323,-0.7323,-0.7323,-0.7143,-0.7139,-0.7139,-0.7139,-0.7139,-0.7139,-0.7139,-0.7139,-0.7139,-0.7139,-0.7139,-0.7139,-0.7139,-0.7139,-0.7139,-0.7139,-0.7139,-0.7139,-0.7139,-0.7139,-0.7139,-0.7139,-0.7139,-0.7139,-0.7139,-0.7139,-0.7139,-0.7139,-0.7139,-0.7139,-0.7139,-0.7139,-0.7139,-0.7139,-0.7139,-0.7139,-0.7139,-0.7139,-0.7139,-0.7139,-0.7139,-0.7139,-0.7139,-0.7139,-0.7139,-0.7139,-0.7139,-0.7139,-0.7139,-0.7139,-0.7139,-0.7051,-1.4088,-1.4004,-1.4004,-1.4004,-1.4004,-1.4004,-1.4004,-1.4088,-1.4088,-1.4088,-1.4088,-1.4088,-1.4088,-1.4088,-1.4088,-1.4088,-1.4088,-1.4088,-1.4088,-1.3997,-1.3561,-1.2699,-1.2528,-1.2357,-1.2357,-1.1666,-1.0804,-0.9854,-0.9859,-0.9428,-0.8568,-0.8568,-0.8384,-0.8201,-0.8201,-0.8113,-0.7856,-0.7856,-0.7856,-0.7856,-0.7856,-0.7852,-0.7768,-0.7591,-0.7507,-0.7415,-0.7231,-0.7139,-0.7139,-0.7139,-0.7139,-0.7139,-0.7139,-0.7139,-0.7139,-0.7139,-0.7139,-0.7139,-0.7139,-0.7139,-0.7139,-0.7139,-0.7139,-0.7139,-0.7139,-0.7139,-0.7139,-0.7139,-0.7139,-0.7139,-0.7139,-0.7139,-0.7139,-0.7139,-0.7139,-0.7139,-0.7139,-0.7139,-0.7139,-0.7139,-0.7139,-0.7139,-0.7139,-0.7139,-0.7139,-0.7139,-0.7139,-0.7139,-0.7139,-0.7139,-0.7139,-0.7139,-0.7139,-0.7139,-0.7139,-0.7139,-0.7139,-0.7139,-0.7139,-0.7139,-0.7139,-0.7139,-0.7139,-0.7139,-0.7139,-0.7139,-0.7139,-0.7139,-0.7139,-0.7139,-0.7139,-0.7051,-0.7051,-0.7051,-0.7051,-0.7051,-1.4088,-1.3483,-1.296,-1.296,-1.296,-1.296,-1.296,-1.3652,-1.4088,-1.4088,-1.4088,-1.4088,-1.4088,-1.4088,-1.4088,-1.4088,-1.4088,-1.4088,-1.4088,-1.3209,-1.2589,-1.2419,-1.0875,-0.9927,-0.9927,-1.0702,-1.0621,-0.9671,-0.9497,-0.8894,-0.8032,-0.8032,-0.8032,-0.794,-0.794,-0.7944,-0.7856,-0.7683,-0.7595,-0.7591,-0.7323,-0.7231,-0.7231,-0.7231,-0.7231,-0.7143,-0.7139,-0.7139,-0.7139,-0.7139,-0.7139,-0.7139,-0.7139,-0.7139,-0.7139,-0.7139,-0.7139,-0.7139,-0.7139,-0.7139,-0.7139,-0.7139,-0.7139,-0.7139,-0.7139,-0.7139,-0.7139,-0.7139,-0.7139,-0.7139,-0.7139,-0.7139,-0.7139,-0.7139,-0.7139,-0.7139,-0.7139,-0.7139,-0.7139,-0.7139,-0.7139,-0.7139,-0.7139,-0.7139,-0.7139,-0.7139,-0.7139,-0.7139,-0.7139,-0.7139,-0.7139,-0.7139,-0.7139,-0.7139,-0.7139,-0.7139,-0.7139,-0.7139,-0.7139,-0.7139,-0.7139,-0.7139,-0.7139,-0.7139,-0.7139,-0.7139,-0.7139,-0.7139,-0.7139,-0.7139,-0.7139,-0.6966,-0.6881,-0.6881,-0.67,-0.652,-1.2862,-1.2539,-1.2226,-1.2263,-1.228,-1.228,-1.228,-1.2616,-1.2886,-1.2886,-1.2777,-1.279,-1.279,-1.279,-1.2699,-1.2607,-1.2607,-1.2607,-1.2431,-1.1821,-1.1295,-1.0864,-0.9749,-0.8973,-0.8632,-0.9065,-0.9148,-0.8807,-0.8632,-0.8372,-0.7944,-0.7944,-0.7856,-0.768,-0.768,-0.768,-0.7496,-0.7411,-0.7323,-0.7323,-0.7143,-0.7139,-0.7139,-0.7139,-0.7139,-0.7139,-0.7139,-0.7139,-0.7139,-0.7139,-0.7139,-0.7139,-0.7139,-0.7139,-0.7139,-0.7139,-0.7139,-0.7139,-0.7139,-0.7139,-0.7139,-0.7139,-0.7139,-0.7139,-0.7139,-0.7139,-0.7139,-0.7139,-0.7139,-0.7139,-0.7139,-0.7139,-0.7139,-0.7139,-0.7139,-0.7139,-0.7139,-0.7139,-0.7139,-0.7139,-0.7139,-0.7139,-0.7139,-0.7139,-0.6874,-0.6428,-0.6874,-0.6874,-0.6428,-0.6874,-0.7139,-0.7139,-0.6697,-0.6605,-0.7139,-0.6694,-0.6432,-0.6428,-0.6874,-0.7139,-0.7139,-0.7139,-0.7139,-0.7139,-0.7139,-0.7139,-0.7139,-0.7139,-0.7139,-0.7051,-0.6966,-0.6881,-0.6795,-0.6612,-0.6435,-0.6257,-1.1604,-1.1552,-1.1436,-1.1629,-1.1666,-1.1666,-1.1666,-1.1679,-1.1636,-1.1636,-1.1438,-1.1386,-1.1386,-1.1257,-1.1144,-1.1042,-1.0956,-1.0869,-1.0611,-1.0438,-0.9923,-0.9148,-0.8973,-0.854,-0.7764,-0.7503,-0.7591,-0.7856,-0.7768,-0.7764,-0.7764,-0.7764,-0.768,-0.7415,-0.7415,-0.7323,-0.7139,-0.7139,-0.7139,-0.7139,-0.7139,-0.7139,-0.7139,-0.7139,-0.7139,-0.7139,-0.7139,-0.7139,-0.7139,-0.7139,-0.7139,-0.7139,-0.7139,-0.7139,-0.7139,-0.7139,-0.7139,-0.7139,-0.7139,-0.7139,-0.7139,-0.7139,-0.7139,-0.7139,-0.7139,-0.7139,-0.7139,-0.7139,-0.7139,-0.7139,-0.7139,-0.7139,-0.7139,-0.7139,-0.7139,-0.7139,-0.7139,-0.7139,-0.7139,-0.7139,-0.7139,-0.7139,-0.7139,-0.6962,-0.6517,-0.5719,-0.6251,-0.6248,-0.5539,-0.616,-0.6605,-0.6605,-0.5894,-0.5805,-0.6605,-0.5805,-0.5453,-0.5453,-0.6248,-0.6605,-0.6605,-0.6605,-0.6694,-0.6874,-0.6874,-0.6962,-0.7051,-0.6871,-0.6782,-0.6786,-0.6612,-0.6435,-0.6435,-0.6166,-0.5899,-0.5727,-1.1882,-1.1253,-1.0624,-1.0653,-1.0658,-1.0658,-1.0658,-1.1365,-1.1893,-1.1893,-1.1679,-1.1529,-1.1529,-1.1261,-1.1047,-1.0956,-1.0783,-1.0611,-1.0611,-0.9666,-0.9065,-0.8978,-0.7929,-0.7316,-0.7231,-0.7143,-0.7323,-0.7595,-0.7323,-0.7231,-0.7231,-0.7231,-0.7231,-0.7143,-0.7143,-0.7143,-0.7139,-0.7139,-0.7139,-0.7139,-0.7139,-0.7139,-0.7139,-0.7139,-0.7139,-0.7139,-0.7139,-0.7139,-0.7139,-0.7139,-0.7139,-0.7139,-0.7139,-0.7139,-0.7139,-0.7139,-0.7139,-0.7139,-0.7139,-0.7139,-0.7139,-0.7139,-0.7139,-0.7139,-0.7139,-0.7139,-0.7139,-0.7139,-0.7139,-0.7139,-0.7139,-0.7139,-0.7139,-0.7139,-0.7139,-0.7139,-0.7139,-0.7139,-0.7139,-0.7139,-0.7139,-0.7139,-0.7139,-0.634,-0.5808,-0.5719,-0.5092,-0.4645,-0.4467,-0.4645,-0.4645,-0.4645,-0.4556,-0.4556,-0.4645,-0.4556,-0.4467,-0.4467,-0.4645,-0.4645,-0.4645,-0.4645,-0.5092,-0.5897,-0.5897,-0.634,-0.7051,-0.6071,-0.5625,-0.5625,-0.5356,-0.5179,-0.4917,-0.4654,-0.4567,-0.4387,-1.0529,-1.0175,-0.9931,-0.9944,-0.9962,-0.9962,-0.9769,-1.0057,-1.0269,-1.0076,-0.9904,-0.9775,-0.9775,-0.9516,-0.9309,-0.9216,-0.8945,-0.8798,-0.8615,-0.8185,-0.7929,-0.7929,-0.7404,-0.7139,-0.7139,-0.7139,-0.7143,-0.7234,-0.7143,-0.7139,-0.7139,-0.7139,-0.7139,-0.7139,-0.7139,-0.7139,-0.7139,-0.7139,-0.7139,-0.7139,-0.7139,-0.7139,-0.7139,-0.7139,-0.7139,-0.7139,-0.7139,-0.7139,-0.7139,-0.7139,-0.7139,-0.7139,-0.7139,-0.7139,-0.7139,-0.7139,-0.7139,-0.7139,-0.7139,-0.7139,-0.7139,-0.7139,-0.7139,-0.7139,-0.7139,-0.7139,-0.7139,-0.7139,-0.7139,-0.7139,-0.7139,-0.7139,-0.7139,-0.7139,-0.7214,-0.7272,-0.7272,-0.7343,-0.7397,-0.7397,-0.7397,-0.7119,-0.6557,-0.6098,-0.5363,-0.426,-0.4258,-0.4166,-0.3613,-0.4072,-0.4348,-0.4348,-0.3889,-0.3796,-0.4348,-0.3796,-0.3519,-0.3333,-0.3333,-0.3565,-0.4107,-0.4107,-0.4196,-0.4554,-0.4554,-0.473,-0.5085,-0.4641,-0.4374,-0.4374,-0.4107,-0.3844,-0.3671,-0.3582,-0.3494,-0.3494]},{"header":{"parameterUnit":"m.s-1","parameterCategory":1,"la1":30.6,"la2":28.766,"lo1":-90.7593,"lo2":-88.6598,"dy":0.0162,"dx":0.0183,"nx":116,"ny":114,"refTime":"2023-06-02T12:00:00:Z","depth":0,"parameterNumber":3,"parameterNumberName":"V-component_of_WINDS"},"data":[0.0,0.0,0.0,0.0,0.0,0.0,0.0,0.0,0.0,0.0,0.0,0.0,0.0,0.0,0.0,0.0,0.0,0.0,0.0,0.0,0.0,0.0,0.0,0.0,0.0,0.0,0.0,0.0,0.0,0.0,0.0,0.0,0.0,0.0,0.0,0.0,0.0,0.0,0.0,0.0,0.0,0.0,0.0,0.0,0.0,0.0,0.0,0.0,0.0,0.0,0.0,0.0,0.0,0.0,0.0,0.0,0.0,0.0,0.0,0.0,0.0,0.0,0.0,0.0,0.0,0.0,0.0,0.0,0.0,0.0,0.0,0.0,0.0,0.0,0.0,0.0,0.0,0.0,0.0,0.0,0.0,0.0,0.0,0.0,0.0,0.0,0.0,0.0,0.0,0.0,0.0,0.0,0.0,0.0,0.0,0.0,0.0,0.0,0.0,0.0,0.0,0.0,0.0,0.0,0.0,0.0,0.0,0.0,0.0,0.0,0.0,0.0,0.0,0.0,0.0,0.0,0.0,0.0,0.0,0.0,0.0,0.0,0.0,0.0,0.0,0.0,0.0,0.0,0.0,0.0,0.0,0.0,0.0,0.0,0.0,0.0,0.0,0.0,0.0,0.0,0.0,0.0,0.0,0.0,0.0,0.0,0.0,0.0,0.0,0.0,0.0,0.0,0.0,0.0,0.0,0.0,0.0,0.0,0.0,0.0,0.0,0.0,0.0,0.0,0.0,0.0,0.0,0.0,0.0,0.0,0.0,0.0,0.0,0.0,0.0,0.0,0.0,0.0,0.0,0.0,0.0,0.0,0.0,0.0,0.0,0.0,0.0,0.0,0.0,0.0,0.0,0.0,0.0,0.0,0.0,0.0,0.0,0.0,0.0,0.0,0.0,0.0,0.0,0.0,0.0,0.0,0.0,0.0,0.0,0.0,0.0,0.0,0.0,0.0,0.0,0.0,0.0,0.0,0.0,0.0,0.0,0.0,0.0,0.0,0.0,0.0,0.0,0.0,0.0,0.0,0.0,0.0,0.0,0.0,0.0,0.0,0.0,0.0,0.0,0.0,0.0,0.0,0.0,0.0,0.0,0.0,0.0,0.0,0.0,0.0,0.0,0.0,0.0,0.0,0.0,0.0,0.0,0.0,0.0,0.0,0.0,0.0,0.0,0.0,0.0,0.0,0.0,0.0,0.0,0.0,0.0,0.0,0.0,0.0,0.0,0.0,0.0,0.0,0.0,0.0,0.0,0.0,0.0,0.0,0.0,0.0,0.0,0.0,0.0,0.0,0.0,0.0,0.0,0.0,0.0,0.0,0.0,0.0,0.0,0.0,0.0,0.0,0.0,0.0,0.0,0.0,0.0,0.0,0.0,0.0,0.0,0.0,0.0,0.0,0.0,0.0,0.0,0.0,0.0,0.0,0.0,0.0,0.0,0.0,0.0,0.0,0.0,0.0,0.0,0.0,0.0,0.0,0.0,0.0,0.0,0.0,0.0,0.0,0.0,0.0,0.0,0.0,0.0,0.0,0.0,0.0,0.0,0.0,0.0,0.0,0.0,0.0,0.0,0.0,0.0,0.0,0.0,0.0,0.0,0.0,0.0,0.0,0.0,0.0,0.0,0.0,0.0,0.0,0.0,0.0,0.0,0.0,0.0,0.0,0.0,0.0,0.0,0.0,0.0,0.0,0.0,0.0,0.0,0.0,0.0,0.0,0.0,0.0,0.0,0.0,0.0,0.0,0.0,0.0,0.0,0.0,0.0,0.0,0.0,0.0,0.0,0.0,0.0,0.0,0.0,0.0,0.0,0.0,0.0,0.0,0.0,0.0,0.0,0.0,0.0,0.0,0.0,0.0,0.0,0.0,0.0,0.0,0.0,0.0,0.0,0.0,0.0,0.0,0.0,0.0,0.0,0.0,0.0,0.0,0.0,0.0,0.0,0.0,0.0,0.0,0.0,0.0,0.0,0.0,0.0,0.0,0.0,0.0,0.0,0.0,0.0,0.0,0.0,0.0,0.0,0.0,0.0,0.0,0.0,0.0,0.0,0.0,0.0,0.0,0.0,0.0,0.0,0.0,0.0,0.0,0.0,0.0,0.0,0.0,0.0,0.0,0.0,0.0,0.0,0.0,0.0,0.0,0.0,0.0,0.0,0.0,0.0,0.0,0.0,0.0,0.0,0.0,0.0,0.0,0.0,0.0,0.0,0.0,0.0,0.0,0.0,0.0,0.0,0.0,0.0,0.0,0.0,0.0,0.0,0.0,0.0,0.0,0.0,0.0,0.0,0.0,0.0,0.0,0.0,0.0,0.0,0.0,0.0,0.0,0.0,0.0,0.0,0.0,0.0,0.0,0.0,0.0,0.0,0.0,0.0,0.0,0.0,0.0,0.0,0.0,0.0,0.0,0.0,0.0,0.0,0.0,0.0,0.0,0.0,0.0,0.0,0.0,0.0,0.0,0.0,0.0,0.0,0.0,0.0,0.0,0.0,0.0,0.0,0.0,0.0,0.0,0.0,0.0,0.0,0.0,0.0,0.0,0.0,0.0,0.0,0.0,0.0,0.0,0.0,0.0,0.0,0.0,0.0,0.0,0.0,0.0,0.0,0.0,0.0,0.0,0.0,0.0,0.0,0.0,0.0,0.0,0.0,0.0,0.0,0.0,0.0,0.0,0.0,0.0,0.0,0.0,0.0,0.0,0.0,0.0,0.0,0.0,0.0,0.0,0.0,0.0,0.0,0.0,0.0,0.0,0.0,0.0,0.0,0.0,0.0,0.0,0.0,0.0,0.0,0.0,0.0,0.0,0.0,0.0,0.0,0.0,0.0,0.0,0.0,0.0,0.0,0.0,0.0,0.0,0.0,0.0,0.0,0.0,0.0,0.0,0.0,0.0,0.0,0.0,0.0,0.0,0.0,0.0,0.0,0.0,0.0,0.0,0.0,0.0,0.0,0.0,0.0,0.0,0.0,0.0,0.0,0.0,0.0,0.0,0.0,0.0,0.0,0.0,0.0,0.0,0.0,0.0,0.0,0.0,0.0,0.0,0.0,0.0,0.0,0.0,0.0,0.0,0.0,0.0,0.0,0.0,0.0,0.0,0.0,0.0,0.0,0.0,0.0,0.0,0.0,0.0,0.0,0.0,0.0,0.0,0.0,0.0,0.0,0.0,0.0,0.0,0.0,0.0,0.0,0.0,0.0,0.0,0.0,0.0,0.0,0.0,0.0,0.0,0.0,0.0,0.0,0.0,0.0,0.0,0.0,0.0,0.0,0.0,0.0,0.0,0.0,0.0,0.0,0.0,0.0,0.0,0.0,0.0,0.0,0.0,0.0,0.0,0.0,0.0,0.0,0.0,0.0,0.0,0.0,0.0,0.0,0.0,0.0,0.0,0.0,0.0,0.0,0.0,0.0,0.0,0.0,0.0,0.0,0.0,0.0,0.0,0.0,0.0,0.0,0.0,0.0,0.0,0.0,0.0,0.0,0.0,0.0,0.0,0.0,0.0,0.0,0.0,0.0,0.0,0.0,0.0,0.0,0.0,0.0,0.0,0.0,0.0,0.0,0.0,0.0,0.0,0.0,0.0,0.0,0.0,0.0,0.0,0.0,0.0,0.0,0.0,0.0,0.0,0.0,0.0,0.0,0.0,0.0,0.0,0.0,0.0,0.0,0.0,0.0,0.0,0.0,0.0,0.0,0.0,0.0,0.0,0.0,0.0,0.0,0.0,0.0,0.0,0.0,0.0,0.0,0.0,0.0,0.0,0.0,0.0,0.0,0.0,0.0,0.0,0.0,0.0,0.0,0.0,0.0,0.0,0.0,0.0,0.0,0.0,0.0,0.0,0.0,0.0,0.0,0.0,0.0,0.0,0.0,0.0,0.0,0.0,0.0,0.0,0.0,0.0,0.0,0.0,0.0,0.0,0.0,0.0,0.0,0.0,0.0,0.0,0.0,0.0,0.0,0.0,0.0,0.0,0.0,0.0,0.0,0.0,0.0,0.0,0.0,0.0,0.0,0.0,0.0,0.0,0.0,0.0,0.0,0.0,0.0,0.0,0.0,0.0,0.0,0.0,0.0,0.0,0.0,0.0,0.0,0.0,0.0,0.0,0.0,0.0,0.0,0.0,0.0,0.0,0.0,0.0,0.0,0.0,0.0,0.0,0.0,0.0,0.0,0.0,0.0,0.0,0.0,0.0,0.0,0.0,0.0,0.0,0.0,0.0,0.0,0.0,0.0,0.0,0.0,0.0,0.0,0.0,0.0,0.0,0.0,0.0,0.0,0.0,0.0,0.0,0.0,0.0,0.0,0.0,0.0,0.0,0.0,0.0,0.0,0.0,0.0,0.0,0.0,0.0,0.0,0.0,0.0,0.0,0.0,0.0,0.0,0.0,0.0,0.0,0.0,0.0,0.0,0.0,0.0,0.0,0.0,0.0,0.0,0.0,0.0,0.0,0.0,0.0,0.0,0.0,0.0,0.0,0.0,0.0,0.0,0.0,0.0,0.0,0.0,0.0,0.0,0.0,0.0,0.0,0.0,0.0,0.0,0.0,0.0,0.0,0.0,0.0,0.0,0.0,0.0,0.0,0.0,0.0,0.0,0.0,0.0,0.0,0.0,0.0,0.0,0.0,0.0,0.0,0.0,0.0,0.0,0.0,0.0,0.0,0.0,0.0,0.0,0.0,0.0,0.0,0.0,0.0,0.0,0.0,0.0,0.0,0.0,0.0,0.0,0.0,0.0,0.0,0.0,0.0,0.0,0.0,0.0,0.0,0.0,0.0,0.0,0.0,0.0,0.0,0.0,0.0,0.0,0.0,0.0,0.0,0.0,0.0,0.0,0.0,0.0,0.0,0.0,0.0,0.0,0.0,0.0,0.0,0.0,0.0,0.0,0.0,0.0,0.0,0.0,0.0,0.0,0.0,0.0,0.0,0.0,0.0,0.0,0.0,0.0,0.0,0.0,0.0,0.0,0.0,0.0,0.0,0.0,0.0,0.0,0.0,0.0,0.0,0.0,0.0,0.0,0.0,0.0,0.0,0.0,0.0,0.0,0.0,0.0,0.0,0.0,0.0,0.0,0.0,0.0,0.0,0.0,0.0,0.0,0.0,0.0,0.0,0.0,0.0,0.0,0.0,0.0,0.0,0.0,0.0,0.0,0.0,0.0,0.0,0.0,0.0,0.0,0.0,0.0,0.0,0.0,0.0,0.0,0.0,0.0,0.0,0.0,0.0,0.0,0.0,0.0,0.0,0.0,0.0,0.0,0.0,0.0,0.0,0.0,0.0,0.0,0.0,0.0,0.0,0.0,0.0,0.0,0.0,0.0,0.0,0.0,0.0,0.0,0.0,0.0,0.0,0.0,0.0,0.0,0.0,0.0,0.0,0.0,0.0,0.0,0.0,0.0,0.0,0.0,0.0,0.0,0.0,0.0,0.0,0.0,0.0,0.0,0.0,0.0,0.0,0.0,0.0,0.0,0.0,0.0,0.0,0.0,0.0,0.0,0.0,0.0,0.0,0.0,0.0,0.0,0.0,0.0,0.0,0.0,0.0,0.0,0.0,0.0,0.0,0.0,0.0,0.0,0.0,0.0,0.0,0.0,0.0,0.0,0.0,0.0,0.0,0.0,0.0,0.0,0.0,0.0,0.0,0.0,0.0,0.0,0.0,0.0,0.0,0.0,0.0,0.0,0.0,0.0,0.0,0.0,0.0,0.0,0.0,0.0,0.0,0.0,0.0,0.0,0.0,0.0,0.0,0.0,0.0,0.0,0.0,0.0,0.0,0.0,0.0,0.0,0.0,0.0,0.0,0.0,0.0,0.0,0.0,0.0,0.0,0.0,0.0,0.0,0.0,0.0,0.0,0.0,0.0,0.0,0.0,0.0,0.0,0.0,0.0,0.0,0.0,0.0,0.0,0.0,0.0,0.0,0.0,0.0,0.0,0.0,0.0,0.0,0.0,0.0,0.0,0.0,0.0,0.0,0.0,0.0,0.0,0.0,0.0,0.0,0.0,0.0,0.0,0.0,0.0,0.0,0.0,0.0,0.0,0.0,0.0,0.0,0.0,0.0,0.0,0.0,0.0,0.0,0.0,0.0,0.0,0.0,0.0,0.0,0.0,-0.4626,0.0,0.0,0.0,0.0,0.0,0.0,0.0,0.0,0.0,0.0,0.0,0.0,0.0,0.0,0.0,0.0,0.0,0.0,0.0,0.0,0.0,0.0,0.0,0.0,0.0,0.0,0.0,0.0,0.0,0.0,0.0,0.0,0.0,0.0,0.0,0.0,0.0,0.0,1.6666,1.7375,1.9069,2.1826,2.1007,1.9701,1.8009,0.0,0.0,0.0,0.0,0.0,0.0,0.0,0.0,0.0,0.0,0.0,0.0,0.0,0.0,0.0,0.0,0.0,0.0,0.0,0.0,0.0,0.0,0.0,0.0,0.0,0.0,0.0,0.0,0.0,0.0,0.0,0.0,0.0,0.0,0.0,0.0,0.0,0.0,0.0,0.0,0.0,0.0,0.0,0.0,0.0,0.0,0.0,0.0,0.0,0.0,0.0,0.0,0.0,0.0,0.0,0.0,0.0,0.0,0.0,0.0,0.0,0.0,0.0,0.0,0.0,0.0,0.0,0.0,0.0,0.0,0.0,-0.4215,0.0,0.0,0.0,0.0,0.0,0.0,0.0,0.0,0.0,0.0,0.0,0.0,0.0,0.0,0.0,0.0,0.0,0.0,0.0,0.0,0.0,0.0,0.0,2.042,2.0172,2.0226,2.0031,1.9704,0.0,0.0,0.0,0.0,0.0,0.0,1.7774,1.691,1.7089,1.835,1.9141,2.0918,2.3632,2.3777,2.2498,2.0091,1.9837,0.0,0.0,0.0,0.0,0.0,0.0,0.0,0.0,0.0,0.0,0.0,0.0,0.0,0.0,0.0,0.0,0.0,0.0,0.0,0.0,0.0,0.0,0.0,0.0,0.0,0.0,0.0,0.0,0.0,0.0,0.0,0.0,0.0,0.0,0.0,0.0,0.0,0.0,0.0,0.0,0.0,0.0,0.0,0.0,0.0,0.0,0.0,0.0,0.0,0.0,0.0,0.0,0.0,0.0,0.0,0.0,0.0,0.0,0.0,0.0,0.0,0.0,0.0,0.0,-0.2836,-0.2836,-0.285,-0.251,-0.196,-0.2833,-0.3094,-0.2869,0.0,0.0,0.0,0.0,0.0,0.0,0.0,0.0,0.0,0.0,0.0,0.0,0.0,0.0,0.0,0.0,0.0,0.0,0.0,0.0,0.0,0.0,2.0161,2.0355,2.0933,1.9824,1.9441,2.0161,0.0,0.0,0.0,0.0,0.0,1.7969,1.7314,1.775,1.9357,2.2347,2.4033,2.4541,2.5169,2.4897,2.3826,2.2254,2.1429,2.1065,0.0,0.0,0.0,0.0,0.0,0.0,0.0,0.0,0.0,0.0,0.0,0.0,0.0,0.0,0.0,0.0,0.0,0.0,0.0,0.0,0.0,0.0,0.0,0.0,0.0,0.0,0.0,0.0,0.0,0.0,0.0,0.0,0.0,0.0,0.0,0.0,0.0,0.0,0.0,0.0,0.0,0.1124,0.1149,0.0,0.0,0.0,0.0,0.0,0.0,0.0,0.0,0.0,0.0,0.0,0.0,0.0,0.0,-0.1276,-0.1277,-0.1276,-0.1344,-0.1377,-0.1393,-0.1394,-0.1427,-0.1353,-0.1254,-0.1393,0.0,-0.2476,-0.246,0.0,0.0,0.0,0.0,0.0,0.0,0.0,0.0,0.0,0.0,0.0,0.0,0.0,0.0,0.0,0.0,0.0,0.0,0.0,0.0,0.0,2.0873,2.1772,2.2954,2.3035,2.2744,2.2246,2.0757,0.0,0.0,0.0,1.7432,1.8104,1.7852,1.9339,2.2733,2.4566,2.6418,2.8348,2.8007,2.742,2.6611,2.6131,2.4437,2.1838,2.07,0.0,0.0,0.0,0.0,0.0,0.0,0.0,0.0,0.0,0.0,0.0,0.0,0.0,0.0,0.0,0.0,0.0,0.0,0.0,0.0,0.0,0.0,0.0,0.0,0.0,0.0,0.0,0.0,0.0,0.0,0.0,0.0,0.0,0.0,0.0,0.0,0.0,0.0,0.0,0.172,0.1693,0.1658,0.1679,0.1686,0.0,0.0,0.0,0.0,0.0,0.0,0.0,0.0,0.0,0.0329,-0.0268,-0.0617,-0.0563,-0.0985,-0.1127,-0.1127,-0.114,-0.1147,-0.1147,-0.116,-0.1159,-0.1147,-0.1147,-0.1352,-0.175,-0.1979,-0.2505,-0.3136,0.0,0.0,0.0,0.0,0.0,0.0,0.0,0.0,0.0,0.0,0.0,0.0,0.0,0.0,0.0,0.0,0.0,0.0,2.0803,2.2349,2.3883,2.5213,2.5846,2.5732,2.4734,2.2562,2.064,1.9158,1.7774,1.7501,1.8452,1.9449,2.1865,2.5782,2.657,2.8136,3.0411,2.9718,2.8941,2.8072,2.9136,2.7184,2.2919,2.2567,2.153,1.9951,0.0,0.0,0.0,0.0,0.0,0.0,0.0,0.0,0.0,0.0,0.0,0.0,0.0,0.0,0.0,0.0,0.0,0.0,0.0,0.0,0.0,0.0,0.0,0.0,0.0,0.0,0.0,0.0,0.0,0.0,0.0,0.0,0.0,0.0,0.0,0.0,0.0,0.2177,0.2,0.1894,0.1962,0.1989,0.0,0.0,0.0,0.0,0.0,0.0,0.1007,0.0778,0.0733,0.0892,0.014,-0.0287,-0.0221,-0.0883,-0.1182,-0.119,-0.1198,-0.1201,-0.1201,-0.1201,-0.1197,-0.1189,-0.1181,-0.1174,-0.1234,-0.1706,-0.192,-0.2037,-0.2565,-0.2894,0.0,-0.2818,-0.2918,-0.3153,0.0,0.0,0.0,0.0,0.0,0.0,0.0,0.0,0.0,0.0,0.0,2.0783,2.2224,2.4669,2.6512,2.7294,2.6762,2.6734,2.7531,2.3874,2.2014,2.276,2.0017,1.8684,1.9208,2.3026,2.5674,2.7001,2.8526,2.8913,2.8375,2.9039,2.8757,2.763,3.0007,2.9142,2.5775,2.435,2.3304,2.2409,1.8943,0.0,0.0,0.0,0.0,0.0,0.0,0.0,0.0,0.0,0.0,0.0,0.0,0.0,0.0,0.0,0.0,0.0,0.0,0.0,0.0,0.0,0.0,0.0,0.0,0.0,0.0,0.0,0.0,0.0,0.0,0.0,0.0,0.0,0.0,0.0,0.0,0.0,0.0,0.1888,0.21,0.0,0.0,0.0,0.0,0.2059,0.167,0.1624,0.2074,0.1306,0.0989,0.1451,0.0363,-0.0221,-0.0302,-0.0907,-0.1224,-0.1331,-0.1282,-0.1296,-0.1296,-0.1296,-0.128,-0.1329,-0.1222,-0.1193,-0.1166,-0.1234,-0.1641,-0.2159,-0.2225,-0.2559,-0.2898,-0.2381,-0.2105,-0.194,0.0,0.0,0.0,0.0,0.0,0.0,0.0,0.0,1.7091,1.9618,2.0689,2.2399,2.5558,2.747,2.8602,2.883,3.016,2.9555,2.6275,2.4902,2.3046,2.0452,1.939,2.003,2.2517,2.5638,2.8306,3.0372,3.0604,3.1336,3.2651,3.2168,3.1403,3.0543,3.1879,3.1049,2.8636,2.7648,2.614,2.4165,2.1457,1.9004,0.0,0.0,0.0,0.0,0.0,0.0,0.0,0.0,0.0,0.0,0.0,0.0,0.0,0.0,0.0,0.0,0.0,0.0,0.0,0.0,0.0,0.0,0.0,0.0,0.0,0.0,0.0,0.0,0.0,0.0,0.0,0.0,0.0,0.0,0.0,0.0,0.0,0.2062,0.2349,0.0,0.2158,0.2371,0.2469,0.2177,0.2043,0.2013,0.2319,0.1978,0.1952,0.2189,0.1409,0.1029,0.0972,-0.0081,-0.0651,-0.0657,-0.1077,-0.1332,-0.1332,-0.1332,-0.1326,-0.1315,-0.1304,-0.1282,-0.1254,-0.1254,-0.1364,-0.158,-0.158,-0.1704,-0.1818,-0.1623,-0.1463,-0.1431,0.0,0.0,0.0,0.0,0.0,0.0,0.0,0.0,1.6143,1.9371,2.0228,2.2111,2.6331,2.8126,2.9119,2.9301,3.0586,2.9825,2.6179,2.4323,2.2846,2.1686,2.2101,2.3393,2.5604,2.8381,3.0919,3.3267,3.2483,3.3249,3.5369,3.4333,3.3322,3.2404,3.3697,3.3022,3.0896,3.0851,2.9077,2.6051,2.3819,2.137,1.8755,0.0,0.0,0.0,0.0,0.0,0.0,0.0,0.0,0.0,0.0,0.0,0.0,0.0,0.0,0.0,0.0,0.0,0.0,0.0,0.0,0.0,0.0,0.0,0.0,0.0,0.0,0.0,0.0,0.0,0.0,0.0,0.0,0.0,0.0,0.0,0.3579,0.2937,0.3171,0.3174,0.2764,0.2995,0.2974,0.2546,0.2572,0.2622,0.2707,0.2733,0.2864,0.312,0.2546,0.2158,0.2207,0.0679,-0.0085,-0.0086,-0.0946,-0.1291,-0.1205,-0.1196,-0.1193,-0.1107,-0.1099,-0.1086,-0.1153,-0.1071,-0.1122,-0.1225,-0.1194,-0.1175,-0.1166,-0.1166,-0.1153,-0.1207,0.0,0.0,0.0,0.0,0.0,0.0,0.0,1.3801,1.3794,1.7348,1.8066,1.9921,2.4409,2.6535,2.7897,2.8584,2.774,2.7187,2.7276,2.2152,2.1513,2.69,2.8216,2.8645,2.8278,3.1336,3.3673,3.5247,3.4054,3.4375,3.5989,3.5157,3.413,3.3139,3.539,3.5006,3.2707,3.3787,3.2038,2.8246,2.5933,2.3421,2.0711,0.0,0.0,0.0,0.0,0.0,0.0,0.0,0.0,0.0,0.0,0.0,0.0,0.0,0.0,0.0,0.0,0.0,0.0,0.0,0.0,0.0,0.0,0.0,0.0,0.0,0.0,0.0,0.0,0.0,0.0,0.0,0.0,0.0,0.5824,0.5383,0.4888,0.4372,0.4442,0.4295,0.3798,0.3812,0.3675,0.329,0.3289,0.3332,0.3334,0.3406,0.3615,0.4118,0.3531,0.3228,0.3118,0.1388,0.0439,0.0447,-0.0806,-0.1256,-0.1076,-0.1055,-0.0871,-0.0696,-0.0596,-0.0759,-0.1012,-0.0759,-0.0843,-0.1256,-0.1249,-0.1197,-0.117,-0.117,-0.1168,-0.1314,0.0,0.0,0.0,0.0,0.0,0.0,1.5754,1.3712,1.41,1.9733,1.9599,2.1038,2.6405,2.6831,2.6382,2.552,2.5932,2.4468,2.0342,2.1196,2.3069,2.5708,2.7737,2.914,2.9925,3.3671,3.5104,3.3985,3.5214,3.605,3.6484,3.6347,3.6059,3.5694,3.6781,3.6507,3.5207,3.5466,3.4164,3.1613,2.8634,2.5722,2.2749,0.0,0.0,0.0,0.0,0.0,0.0,0.0,0.0,0.0,0.0,0.0,0.0,0.0,0.0,0.0,0.0,0.0,0.0,0.0,0.0,0.0,0.0,0.0,0.0,0.0,0.0,0.0,0.0,0.0,0.0,0.0,0.0,0.7021,0.5759,0.5984,0.6104,0.5445,0.5396,0.5221,0.4831,0.4551,0.4256,0.3868,0.3892,0.3936,0.3916,0.3941,0.407,0.4222,0.4049,0.397,0.3993,0.2926,0.2045,0.1431,0.0537,-0.0179,-0.0807,-0.0803,-0.0712,-0.0711,-0.0707,-0.0699,-0.0777,-0.0863,-0.094,-0.1091,-0.0972,-0.1114,-0.1262,-0.1241,-0.1218,-0.1196,0.0,0.0,0.0,0.0,0.0,0.0,1.5894,1.3231,1.3286,1.9441,1.8203,1.8885,2.452,2.4496,2.3739,2.2905,2.2147,1.9263,1.3467,1.7547,2.1364,2.3957,2.912,3.1875,3.1771,3.4929,3.6355,3.5927,3.6881,3.7885,3.8914,3.828,3.8138,3.842,3.8271,3.7962,3.7483,3.7176,3.6285,3.4842,3.1743,2.8199,2.4406,2.1044,1.8591,1.665,1.3748,1.2959,1.3112,1.215,0.0,0.0,0.0,0.0,0.0,0.0,0.0,0.0,0.0,0.0,0.0,0.0,0.0,0.0,0.0,0.0,0.0,0.0,0.0,0.0,0.0,0.0,0.0,0.0,0.7905,0.7742,0.6925,0.725,0.7443,0.6939,0.6823,0.6695,0.626,0.6111,0.565,0.5055,0.4976,0.4937,0.4687,0.4694,0.4809,0.505,0.5052,0.5052,0.5052,0.4129,0.3366,0.2683,0.1804,0.1078,0.053,0.0178,0.009,0.0,-0.0269,-0.0446,-0.0617,-0.0617,-0.07,0.0,0.0,0.0,0.0,0.0,-0.1161,-0.1211,0.0,0.0,0.0,0.0,0.0,0.0,1.6253,1.296,1.2356,1.7844,1.5751,1.5663,2.0684,2.0984,2.0714,2.0411,1.7549,1.3712,0.8979,1.4224,1.9313,2.3363,3.1748,3.5517,3.3748,3.5812,3.7558,3.8961,3.863,3.9641,4.1826,4.0424,4.0209,4.0891,3.9835,3.9363,3.9359,3.869,3.8114,3.7351,3.4406,3.0387,2.5865,2.3104,2.0586,1.8165,1.5041,1.3935,1.376,1.3112,0.0,0.0,0.0,0.0,0.0,0.0,0.0,0.0,0.0,0.0,0.0,0.0,0.0,0.0,0.0,0.0,0.0,0.0,0.0,0.0,0.0,0.0,0.0,0.0,0.833,0.8552,0.8774,0.8807,0.8709,0.8578,0.8491,0.8334,0.7901,0.7849,0.7453,0.6539,0.6374,0.6149,0.5608,0.0,0.0,0.0,0.0,0.6086,0.6086,0.5036,0.4287,0.3944,0.3014,0.244,0.2351,0.1597,0.1433,0.1524,0.0539,0.0,-0.0179,-0.009,-0.0269,-0.0714,-0.0859,-0.0999,-0.0974,-0.0875,-0.101,0.0,0.0,0.0,0.0,0.0,0.0,0.0,1.762,1.5323,1.4748,1.8486,1.7909,1.7911,1.9882,2.0307,1.9627,1.7614,1.5877,1.5305,1.6452,2.1744,2.6586,3.0461,3.4379,3.6237,3.5759,3.8461,3.8915,3.6966,3.9158,4.0469,4.096,4.1336,4.1618,4.1746,4.1248,4.0653,3.9946,3.8846,3.7691,3.6331,3.3442,3.0737,2.7985,2.3826,2.0813,1.8413,1.5684,1.4571,1.4274,1.3258,1.29,1.2826,1.2305,1.155,0.0,0.0,0.0,0.0,0.0,0.0,0.0,0.0,0.0,0.0,0.0,0.0,0.0,0.0,0.0,0.0,0.0,0.0,0.0,0.8533,0.8765,0.9034,0.9412,0.9464,0.9409,0.9405,0.9183,0.903,0.8889,0.8568,0.8302,0.8088,0.7446,0.6995,0.6932,0.6272,0.0,0.6086,0.6086,0.6086,0.6086,0.5894,0.5258,0.4398,0.0,0.0,0.276,0.2592,0.2598,0.2598,0.1524,0.1077,0.0987,0.009,-0.0359,-0.0447,-0.0699,-0.076,-0.0651,-0.0648,-0.0717,-0.0703,0.0,0.0,0.0,0.0,0.0,0.0,1.8076,1.6466,1.6066,1.8976,1.8261,1.7489,1.7426,1.743,1.6315,1.3598,1.0367,1.0462,1.5079,1.9508,2.4431,3.0004,3.4253,3.6419,3.6254,3.8028,3.8614,3.7959,4.0001,4.1099,4.1306,4.1705,4.2253,4.2873,4.2238,4.144,4.0563,3.9796,3.8591,3.6783,3.3267,3.0759,2.866,2.3758,2.07,1.8768,1.5998,1.4993,1.4705,1.3688,1.3331,1.3258,1.2673,1.2032,1.1539,0.0,0.0,0.0,0.0,0.0,0.0,0.0,0.0,0.0,0.0,0.0,0.0,0.0,0.0,0.9829,0.9597,0.0,0.9485,0.9642,0.9511,0.9408,0.9531,0.9734,0.98,0.98,0.9809,0.9728,0.9728,0.9622,0.9393,0.9107,0.874,0.8398,0.8093,0.7711,0.723,0.6843,0.6843,0.6649,0.626,0.6206,0.5894,0.5163,0.5163,0.4811,0.4144,0.3744,0.3583,0.3582,0.2598,0.2152,0.2061,0.0986,0.0538,0.0448,-0.0089,-0.0431,-0.0414,-0.049,-0.0481,-0.0628,0.0,0.0,0.0,0.0,0.0,0.0,0.0,1.7512,1.7185,1.8858,1.7917,1.6016,1.3157,1.2754,1.1361,0.8117,0.5112,0.6074,1.2227,1.6873,2.2297,2.8841,3.3788,3.6569,3.6967,3.7568,3.8442,3.9591,4.0745,4.1433,4.1671,4.178,4.2556,4.3785,4.2836,4.1946,4.11,4.0672,3.9346,3.7213,3.2915,3.0396,2.8493,2.3064,2.0237,1.8942,1.6366,1.5292,1.4964,1.4099,1.3643,1.3461,1.3018,1.2652,1.2255,1.157,1.1572,0.0,0.0,0.0,0.0,0.0,0.0,0.0,0.0,1.2119,1.1657,1.1581,1.131,1.1181,1.1347,1.1081,1.0761,1.0745,1.031,0.987,0.9705,0.9847,1.0038,1.0038,1.0145,1.0291,1.0329,1.0518,1.0435,1.0062,0.9883,0.9563,0.9015,0.8924,0.8524,0.7829,0.773,0.7332,0.6634,0.6423,0.6157,0.5937,0.5915,0.5793,0.5502,0.4889,0.4567,0.4478,0.3583,0.3047,0.2867,0.2062,0.1704,0.1614,0.0898,0.044,0.0255,-0.0083,-0.0322,-0.0471,0.0,0.0,0.0,0.0,0.0,0.0,0.0,0.0,1.8965,1.7403,1.7541,1.4491,0.5841,0.5386,0.3979,-0.0368,0.4079,0.9231,1.428,2.2907,2.952,3.3333,3.5076,3.7164,3.9693,4.0121,4.0189,3.9941,4.0915,4.1192,4.0858,4.1616,4.2655,4.3854,4.2914,4.2163,4.1562,4.0497,3.8651,3.5991,3.1426,2.9049,2.769,2.1733,1.9143,1.8531,1.6883,1.5635,1.469,1.4014,1.3279,1.26,1.2809,1.2505,1.1939,1.1558,1.1761,1.2018,1.1427,1.1606,1.2111,1.2814,1.2766,1.2656,0.0,1.2483,1.2119,1.1844,1.167,1.1588,1.1701,1.1976,1.1899,1.1073,1.1043,1.0859,1.0086,1.0024,1.0038,1.0038,1.0145,1.0343,1.0523,1.0735,1.0943,1.1049,1.0378,0.9899,0.9821,0.9225,0.8726,0.8623,0.7928,0.7531,0.7431,0.6715,0.62,0.6064,0.5956,0.5836,0.5714,0.5547,0.5555,0.5463,0.4567,0.3673,0.2867,0.2778,0.2688,0.2688,0.2598,0.2591,0.2303,0.0596,-0.0082,-0.0079,0.0,0.0,0.0,0.0,0.0,0.0,0.0,0.0,0.0,1.6615,1.7001,1.3818,0.4134,-0.0155,-0.363,-0.6879,0.1311,0.715,0.8384,1.9755,2.7317,2.9264,3.3147,3.5814,3.6971,3.9196,4.0102,3.9594,4.0722,4.0955,4.0356,4.12,4.2009,4.2778,4.2373,4.1477,4.0178,3.912,3.7015,3.4078,2.9682,2.7277,2.577,2.1006,1.8587,1.7542,1.6027,1.5063,0.0,1.2928,1.234,1.2124,1.1891,1.1938,1.1859,1.1255,1.1618,1.2153,1.179,1.214,1.2671,1.2758,1.3132,1.347,1.3551,1.3715,1.3697,1.3359,1.3379,1.346,1.3515,1.2853,1.2183,1.1983,1.1171,1.0381,1.0038,0.9852,0.9771,0.9771,0.9852,1.0036,1.0367,1.0697,1.0929,1.1014,1.0835,1.0708,1.0708,1.0404,1.001,0.9521,0.9122,0.8524,0.763,0.7198,0.6681,0.6083,0.5961,0.5844,0.5733,0.5733,0.5733,0.5644,0.5285,0.4926,0.4478,0.3941,0.3673,0.3673,0.3135,0.2935,0.2716,0.1361,0.0831,0.0733,0.0,0.0,0.0,0.0,0.0,0.0,0.0,0.0,0.0,0.0,1.5823,1.1883,0.0942,-0.7088,-1.1737,-1.1932,-0.4389,0.1349,0.363,1.3316,2.0536,2.3878,2.9665,3.3185,3.397,3.8098,3.9984,3.9466,4.0409,4.054,3.9888,4.0478,4.1127,4.1773,4.1173,4.0232,3.9056,3.7577,3.5385,3.2577,2.8491,2.5955,2.4216,2.0146,1.7794,1.6609,1.5274,1.4536,1.3926,1.2086,1.1587,1.1594,1.1266,1.143,1.1668,1.1203,1.1532,1.1992,1.2124,1.2491,1.2899,1.3124,1.3703,1.4307,1.4498,1.4798,1.4911,1.4673,1.4652,1.4727,1.4676,1.3668,1.2858,1.2962,1.1616,1.0467,1.0381,0.9942,0.9559,0.9559,0.9508,0.9677,0.9979,1.0494,1.083,1.0891,1.1085,1.1194,1.1194,1.1194,1.09,1.0314,1.0117,0.9422,0.8226,0.7976,0.7347,0.6461,0.6331,0.6023,0.5733,0.5733,0.5733,0.5733,0.5733,0.5733,0.5644,0.4926,0.4656,0.4656,0.3941,0.3624,0.3461,0.2539,0.2008,0.1656,0.0,0.0,0.0,0.0,0.0,0.0,0.0,0.0,0.0,0.0,0.0,0.0,0.0,-1.6614,-2.0503,-1.5334,-1.4022,-0.8597,0.2941,0.4641,0.9431,1.8896,2.478,2.919,3.2122,3.7702,4.0352,3.9881,3.9984,3.9797,3.9316,3.9354,4.0061,4.1233,3.9082,3.845,3.8844,3.6185,3.3955,3.188,2.8257,2.5673,2.3523,1.8795,1.6571,1.5838,1.5061,1.4214,1.3212,1.1945,1.1175,1.079,1.107,1.123,1.124,1.1539,1.1297,1.1247,1.2297,1.2491,1.2659,1.4183,1.453,1.48,1.5475,1.5396,1.5202,1.5057,1.4797,1.4607,1.4709,1.4475,1.4116,1.3872,1.2776,1.1757,1.1322,1.0279,0.9559,0.9559,0.946,0.9337,0.0,1.0097,1.0669,1.0882,1.1085,1.1194,1.1194,1.1194,1.1194,1.1194,1.0413,1.0019,0.992,0.9049,0.8112,0.7308,0.7158,0.6566,0.5733,0.5733,0.5733,0.5733,0.5733,0.5733,0.5733,0.5644,0.5644,0.5644,0.5644,0.5569,0.5276,0.4398,0.3474,0.2516,0.0,0.0,0.0,0.0,0.0,0.0,0.0,0.0,0.0,0.0,0.0,0.0,0.0,0.0,0.0,0.0,-0.9944,-0.5947,-0.4236,0.3689,0.946,1.2026,1.866,2.3753,2.6854,3.0978,3.4769,3.8154,3.8193,3.8756,3.9823,3.9607,3.985,4.0457,3.9491,3.8272,3.6791,3.4708,3.1967,2.8684,2.4389,2.1846,2.0147,1.6626,1.4746,1.3908,0.0,1.2533,1.1942,1.0875,1.0464,1.0464,1.0562,1.0594,1.064,1.0735,1.1026,1.1596,1.2523,1.3253,1.4042,1.4783,1.5348,1.5737,1.5975,1.6126,1.6032,1.5599,1.5475,1.5296,1.4873,1.4402,1.4028,1.394,1.3098,1.2425,1.2254,1.1786,1.1161,1.0429,1.0258,0.0,0.0,0.0,0.0,1.0466,1.0801,1.1057,1.1189,1.1194,1.1194,1.1194,1.0904,1.0511,1.0019,0.9657,0.9049,0.8207,0.7944,0.7427,0.6656,0.6471,0.6169,0.5733,0.5733,0.5733,0.5733,0.5733,0.5733,0.5725,0.5643,0.5499,0.5451,0.5076,0.4712,0.4123,0.0,0.0,0.0,0.0,0.0,0.0,0.0,0.0,0.0,0.0,0.0,0.0,0.0,0.0,0.0,0.0,0.0,-0.6929,-0.6945,-0.0167,0.4866,0.7081,1.3563,1.8389,2.1151,2.521,2.9391,3.3681,3.4606,3.6068,3.8001,3.8573,3.9195,3.9723,3.7613,3.6257,3.5349,3.172,2.8666,2.5853,2.1827,1.9242,1.75,1.495,1.3405,0.0,1.1367,1.0887,1.0672,1.011,0.9989,1.0053,1.0238,1.0428,1.0575,1.0745,1.1249,1.2033,1.3142,1.404,1.4864,1.5383,1.5975,1.6397,1.6397,1.6373,1.619,1.5541,1.5255,1.4992,1.4351,1.3967,1.381,1.4152,1.3539,1.3071,1.3262,1.2875,1.2234,1.1409,1.1231,1.0972,0.0,0.0,0.0,1.0448,1.0768,1.1057,1.1189,1.1194,1.1194,1.1194,1.1194,1.0998,1.0413,1.0413,0.9883,0.8958,0.8402,0.7876,0.7365,0.7173,0.6868,0.6435,0.6169,0.6083,0.6083,0.5822,0.5733,0.5725,0.5646,0.5561,0.5477,0.5398,0.5265,0.4959,0.0,0.0,0.0,0.0,0.0,0.0,0.0,0.0,0.0,0.0,0.0,0.0,0.0,0.0,0.0,0.0,0.0,0.0,-0.5469,-0.6403,-0.3794,0.3914,0.9358,1.3259,1.5476,2.0482,2.4347,2.6814,2.9327,3.1666,3.3826,3.602,3.7644,3.8501,3.3507,3.2467,3.4056,2.7506,2.4265,2.3394,2.0464,1.7921,1.5587,1.3598,1.2285,1.13,0.9872,0.9408,0.9548,0.9676,0.9618,0.963,1.0136,1.0645,1.1094,1.1479,1.1914,1.2557,1.4142,1.4808,1.5156,1.5984,1.6484,1.673,1.6714,1.6174,1.5578,1.4997,1.4299,1.3723,1.3403,1.3404,1.3726,1.4633,1.4159,1.3783,1.4413,1.3553,1.2801,1.2542,1.2332,1.2364,1.2517,0.0,0.0,1.0833,0.0,1.1184,1.1194,1.1194,1.1194,1.1194,1.1194,1.1194,1.1194,1.1194,1.0697,0.9647,0.873,0.8192,0.7933,0.7925,0.783,0.7834,0.7129,0.6868,0.6779,0.6083,0.5822,0.5733,0.5727,0.5578,0.5368,0.5363,0.5214,0.4875,0.0,0.0,0.0,0.0,0.0,0.0,0.0,0.0,0.0,0.0,0.0,0.0,0.0,0.0,0.0,0.0,0.0,0.0,-0.7291,-0.4785,-0.2351,-0.0153,0.4194,0.8579,1.2762,1.4503,1.7476,2.1907,2.3826,2.5901,2.819,2.9989,3.0844,3.0935,3.0125,2.8928,2.7364,2.4661,2.2227,1.9907,1.6635,1.4655,1.3316,1.166,1.0782,1.0328,0.9823,0.9676,0.967,0.9134,0.9332,0.9904,1.0424,1.083,1.1195,1.155,1.248,1.3655,1.4539,1.5335,1.5992,1.6427,1.6667,1.6667,1.6397,1.5991,1.5507,1.483,1.4348,1.3929,1.3589,1.3809,1.4152,1.4382,1.4811,1.5116,1.5286,1.5271,1.486,1.4042,1.4056,1.4,1.3407,1.351,0.0,0.0,1.2031,1.1038,1.1189,1.1194,1.1194,1.1194,1.1194,1.1194,1.1194,1.1194,1.1163,1.109,1.0681,1.0099,0.9361,0.9213,0.8877,0.8265,0.7742,0.757,0.757,0.7309,0.6959,0.6508,0.6412,0.6014,0.5358,0.5265,0.514,0.4943,0.0,0.0,0.0,0.0,0.0,0.0,0.0,0.0,0.0,0.0,0.0,0.0,0.0,0.0,0.0,0.0,0.0,0.0,0.0,-0.4117,-0.2013,-0.0459,0.1876,0.5104,0.9473,0.9832,1.1771,1.5701,1.8009,2.0275,2.2491,2.4688,2.5899,2.6181,2.5461,2.4553,2.342,2.1195,1.901,0.0,0.0,1.2631,1.1639,1.0591,1.0053,0.9862,0.9466,0.9396,0.96,0.9845,1.0124,1.0353,1.1069,1.1431,1.1723,1.2423,1.3361,1.4357,1.525,1.592,1.6484,1.6683,1.6619,1.6404,1.6055,1.5586,1.5022,1.4323,1.3902,1.3553,1.3203,1.3636,1.4011,1.4167,1.4992,1.5645,1.572,1.6029,1.6057,1.5433,1.5496,1.5539,1.5373,1.526,1.5217,0.0,1.3755,1.2592,1.2436,1.2344,1.2252,1.1878,1.1878,1.1878,1.1878,1.1878,1.1915,1.1786,1.1646,1.1227,1.0548,1.0425,1.0101,0.9657,0.0,0.8877,0.8877,0.8524,0.8173,0.7807,0.7483,0.6986,0.6503,0.5798,0.551,0.5323,0.0,0.0,0.0,0.0,0.0,0.0,0.0,0.0,0.0,0.0,0.0,0.0,0.0,0.0,0.0,0.0,0.0,0.0,0.0,0.0,-0.1951,0.1399,0.1554,0.311,0.6486,0.6718,0.766,0.9591,1.2641,1.5098,1.6896,1.9653,2.1473,2.2319,2.0246,1.983,2.0501,1.745,1.551,1.4273,1.2813,1.1539,1.045,0.0,0.9862,0.967,0.9069,0.9052,0.9606,1.1125,1.1254,1.0896,1.1927,1.2197,1.236,1.3643,1.426,1.4782,1.5929,1.65,1.673,1.673,1.6468,1.6103,1.5705,1.507,1.4371,1.3664,1.3251,1.2925,1.2623,1.3084,1.3632,1.3982,1.4887,1.5605,1.5858,1.6121,1.6464,1.6569,1.6691,1.6967,1.7543,1.6934,1.6536,1.6908,1.6062,1.5108,1.4064,1.4064,1.3698,1.2948,1.2829,1.2829,1.2861,1.2796,1.2457,1.2135,1.2102,1.1847,1.1408,1.1408,1.1408,1.1322,0.0,0.0,1.0356,0.974,0.9387,0.9287,0.8696,0.8354,0.8012,0.6898,0.6344,0.6122,0.0,0.0,0.0,0.0,0.0,0.0,0.0,0.0,0.0,0.0,1.2111,0.9168,0.0,0.0,0.0,0.0,0.0,0.0,0.0,0.0,0.0,0.3115,0.327,0.421,0.6335,0.7176,0.7622,0.7599,1.0166,1.156,1.1881,1.3994,1.5081,1.5241,1.5634,1.5671,1.5429,1.4294,1.3683,1.3308,1.1744,1.0876,1.043,1.0008,0.0,0.0,0.9414,0.9664,1.0309,1.1563,1.1546,1.1259,1.2603,1.2891,1.3004,1.4236,1.5011,1.566,1.6371,1.6683,1.673,1.673,1.6468,1.6039,1.5411,1.4712,1.4013,1.3314,1.2901,1.2701,1.2637,1.2901,1.329,1.3624,1.4323,1.5046,1.5682,1.6,1.6348,1.6621,1.7249,1.7644,1.7763,1.812,0.0,0.0,0.0,1.7203,1.4918,1.4823,1.4447,1.3692,1.2942,1.2756,1.3346,1.2554,1.2308,1.2689,1.2389,1.213,1.1843,1.1843,1.1843,1.1843,0.0,0.0,1.1149,1.0971,1.0621,1.0086,0.9966,0.9482,0.88,0.8602,0.8135,0.7541,0.0,0.0,0.0,0.0,0.0,0.0,0.0,1.8199,1.7014,1.5263,1.3576,1.0551,0.5345,0.3163,0.1241,0.0,0.0,0.0,0.0,0.0,0.0,0.3585,0.3665,0.4678,0.6872,0.7407,0.774,0.7948,0.0,0.9997,1.0278,1.1341,1.1976,1.2153,1.2937,1.3149,1.2948,1.2634,1.232,1.195,1.0919,1.0301,0.9989,1.0053,0.0,0.0,0.9926,1.0238,1.0805,1.1577,1.1798,1.197,1.3459,1.3641,1.3601,1.4858,1.5443,1.5833,1.654,1.673,1.669,1.6508,1.619,1.5697,1.4824,1.422,1.364,1.2957,1.2679,1.2621,1.2621,1.2853,1.3147,1.3298,1.391,1.4546,1.5062,1.5594,1.6134,1.6667,1.735,1.7842,1.8025,1.8518,1.8827,0.0,0.0,0.0,1.6445,1.5825,1.5378,1.5003,1.4007,1.3662,1.3975,1.317,1.2808,1.295,1.2821,1.2621,1.2357,1.2357,1.2357,1.2357,0.0,0.0,1.2015,1.2015,1.1837,1.1472,1.1182,1.081,1.035,0.9538,0.9011,0.8593,0.0,0.0,0.0,0.0,0.0,0.0,0.0,1.8564,1.762,1.6358,1.4546,1.1462,0.664,0.4939,0.3337,0.0,0.0,0.0,0.0,0.0,0.0,0.0,0.0,0.0,0.748,0.0,0.0,0.908,0.9453,0.0,0.0,0.0,0.0,0.0,1.1615,1.1872,1.1934,1.1864,1.1553,0.0,0.0,1.0117,0.0,0.0,0.0,0.0,0.0,1.0674,1.1101,1.161,1.2043,1.2641,1.3986,1.4032,1.392,1.5119,1.5515,1.5705,1.6333,1.6508,1.6444,1.6316,1.6057,1.5608,1.4533,1.4169,1.3778,1.2827,1.2683,1.2736,1.2621,1.279,1.3004,1.3076,1.3545,1.4069,1.4498,1.5173,1.5833,1.6532,1.7239,1.7803,1.8152,1.851,0.0,0.0,0.0,0.0,1.7971,1.6827,1.6296,1.6296,1.521,1.4691,1.4757,1.3931,1.3444,1.3291,1.3148,1.2916,1.2705,1.2705,1.2705,1.2705,0.0,0.0,0.0,1.2705,1.2705,1.2687,1.2146,1.1896,1.1755,1.0487,0.9905,0.967,0.0,0.0,0.0,0.0,0.0,0.0,0.0,1.8841,1.7517,1.683,1.4656,1.2576,1.1187,0.7819,0.5016,0.0,0.0,0.0,0.0,0.0,0.0,0.0,0.0,0.0,0.0,0.0,0.0,1.022,1.0982,0.0,0.0,0.0,0.0,0.0,0.0,1.2058,1.2498,1.1996,0.0,0.0,0.0,0.0,0.0,0.0,0.0,0.0,0.0,1.0989,1.1164,1.1933,1.2561,1.3091,1.3553,1.3492,1.3464,1.441,1.4975,1.5308,1.5674,1.5777,1.5923,1.6581,1.6512,1.6029,1.5291,1.5296,1.495,1.3013,1.3042,1.3277,1.2683,1.2653,1.2781,1.3036,1.3147,1.3529,1.4506,1.4982,1.5483,1.6174,1.6889,1.7453,1.7787,1.8144,1.8478,0.0,0.0,0.0,0.0,1.7675,1.7137,1.7137,1.5722,1.5189,1.537,1.4236,1.3761,1.398,1.3114,1.2729,1.2705,1.2705,1.2705,1.2705,0.0,0.0,0.0,1.2705,1.2705,1.2699,1.2589,1.2583,1.2547,1.2177,1.1682,1.1049,0.0,0.0,0.0,0.0,0.0,0.0,2.0339,1.9271,1.8161,1.7571,1.5965,1.4204,1.2538,1.0638,0.868,0.651,0.0,0.0,0.0,0.0,0.0,0.0,0.0,0.0,0.0,0.0,1.0387,1.1382,1.1346,0.0,0.0,0.0,0.0,0.0,0.0,1.2375,1.2567,1.2375,0.0,0.0,0.0,0.0,0.0,0.0,0.0,0.0,0.0,0.0,1.1512,1.1896,1.239,1.2798,1.2988,1.3081,1.3313,1.434,1.4744,1.4975,1.5531,1.6057,1.6388,1.647,1.6558,1.6342,1.5628,1.5414,1.4845,1.3447,1.3329,1.3329,1.2683,1.2621,1.2669,1.275,1.2774,1.306,1.3886,1.4315,1.4879,1.5777,1.6516,1.7167,0.0,0.0,0.0,0.0,0.0,0.0,0.0,1.7721,1.7249,1.7249,1.6089,1.5481,1.5604,1.4775,1.4375,1.4406,1.3698,1.3307,1.3307,1.2875,1.2705,1.2705,0.0,0.0,0.0,1.2705,1.2705,1.2705,1.2705,1.2705,1.2674,1.2409,1.2062,1.1644,0.0,0.0,0.0,0.0,0.0,1.9586,2.0237,1.9445,1.8564,1.7922,1.6762,1.5313,1.3556,1.2471,1.1137,0.9341,0.7528,0.0,0.0,0.0,0.0,0.0,0.0,0.0,0.0,0.0,1.0887,1.2305,1.1726,1.1984,0.0,0.0,1.2585,1.2858,0.0,0.0,0.0,0.0,0.0,0.0,0.0,0.0,0.0,0.0,0.0,0.0,0.0,0.0,0.0,0.0,0.0,1.2621,1.2621,1.2851,1.3412,1.4198,1.4463,1.4657,1.5577,1.6169,1.6573,1.6722,1.6842,1.6708,1.6169,1.5817,1.527,1.4063,1.3923,1.3812,1.3033,1.2858,1.2797,1.2621,1.2894,1.3225,1.3563,1.4375,1.5138,1.5796,1.6369,1.7017,0.0,1.8041,0.0,0.0,0.0,0.0,0.0,1.7437,1.7167,1.7278,1.6414,1.5982,1.5982,1.5318,1.4985,1.4985,1.4321,1.3984,1.3984,1.347,1.3215,0.0,0.0,0.0,0.0,1.2705,1.2705,1.2705,1.2705,1.2705,1.2674,1.2409,1.2198,1.1999,0.0,0.0,0.0,0.0,0.0,0.0,2.0146,1.9217,1.8296,1.7779,1.6723,1.5613,1.4673,1.2823,1.1729,1.1668,0.9492,0.0,0.0,0.0,0.0,0.0,0.0,0.0,0.0,0.0,1.1706,1.29,1.2585,1.2819,1.3576,1.3863,1.3808,1.3511,0.0,0.0,0.0,0.0,0.0,0.0,0.0,0.0,0.0,0.0,0.0,0.0,0.0,0.0,0.0,0.0,0.0,0.0,0.0,1.2981,1.3527,1.3919,1.4032,1.4385,1.5797,1.6032,1.6184,1.7628,1.7646,1.7217,1.687,1.688,1.6486,1.4849,1.4942,1.4991,1.3743,1.3511,1.3268,1.2683,1.3464,1.4077,1.3669,1.547,1.6738,1.6358,1.6604,1.7047,1.7696,0.0,0.0,0.0,0.0,0.0,0.0,0.0,1.6905,1.7262,1.6921,1.6648,1.6648,1.5982,1.565,1.565,1.4985,1.465,1.465,1.465,0.0,0.0,0.0,0.0,0.0,1.2705,1.2705,1.2705,1.2705,1.2705,1.2674,1.2409,1.2312,1.227,0.0,0.0,0.0,0.0,0.0,0.0,0.0,1.9317,1.8603,1.8501,1.7072,1.6056,1.6131,1.4235,1.3237,1.4027,1.0828,0.0,0.0,0.0,0.0,0.0,0.0,0.0,0.0,0.0,1.2077,1.29,1.2942,1.3171,1.3576,1.3863,1.3808,1.3511,1.3511,1.3511,0.0,0.0,0.0,0.0,0.0,0.0,0.0,0.0,0.0,0.0,0.0,0.0,0.0,0.0,0.0,0.0,0.0,0.0,0.0,1.4796,1.4843,1.4737,1.5064,1.574,1.6365,1.6384,1.6777,1.7053,1.6982,1.6734,1.6308,1.5323,1.5294,1.5177,1.435,1.4172,1.4112,1.3932,1.4159,1.4532,1.5,1.5846,1.6729,1.7487,1.8029,1.8285,0.0,0.0,0.0,0.0,0.0,0.0,0.0,0.0,1.6786,1.6905,1.6794,1.673,1.673,1.6484,1.6402,1.6402,1.5733,1.5401,1.5401,1.4901,0.0,0.0,0.0,0.0,0.0,1.3561,1.3392,1.3372,1.3098,1.322,1.336,1.3563,1.3369,1.2946,0.0,0.0,0.0,0.0,0.0,0.0,0.0,1.9337,1.8816,1.8235,1.7017,1.6289,1.6587,1.5113,1.4348,1.5037,1.2384,0.0,0.0,0.0,0.0,0.0,0.0,0.0,1.1111,1.1706,1.2305,1.29,1.3084,1.3454,1.3966,1.4247,1.4303,1.4222,1.3983,1.3872,0.0,0.0,0.0,0.0,0.0,0.0,1.2981,0.0,0.0,0.0,0.0,0.0,0.0,0.0,0.0,0.0,0.0,0.0,0.0,0.0,1.5487,1.5546,1.551,1.604,1.6607,1.651,1.6757,1.6987,1.6987,1.6694,1.6259,1.5836,1.5778,1.5594,1.4942,1.4824,1.4765,1.4529,1.4837,1.5177,1.5386,1.6561,1.7628,1.8458,0.0,0.0,0.0,0.0,0.0,0.0,0.0,0.0,0.0,0.0,1.7367,1.7683,1.7049,1.673,1.673,1.673,1.673,1.6648,1.6319,1.6072,1.6064,0.0,0.0,0.0,0.0,0.0,0.0,1.4237,1.4001,1.3895,1.3821,1.3834,1.3888,1.4228,1.4111,1.3864,0.0,0.0,0.0,0.0,0.0,0.0,0.0,1.936,1.8995,1.7263,1.6747,1.6459,1.6269,1.5595,1.5137,1.5084,0.0,0.0,0.0,0.0,0.0,0.0,0.0,0.0,1.1186,1.1781,1.2378,1.2966,1.3226,1.3789,1.4624,1.4944,1.5158,1.5352,1.4765,1.4469,1.4401,1.3957,1.3906,1.4121,1.4569,1.4264,0.0,0.0,0.0,0.0,0.0,0.0,0.0,0.0,0.0,0.0,0.0,0.0,0.0,0.0,0.0,0.0,0.0,1.6789,1.6707,1.7379,1.7255,1.6935,1.6935,1.6674,0.0,1.6384,1.6384,1.6202,1.5594,1.5468,1.5294,1.4706,1.5453,1.5914,1.5297,1.7496,1.9274,0.0,1.9732,0.0,0.0,0.0,0.0,0.0,0.0,0.0,0.0,0.0,0.0,1.9256,1.7764,1.6894,1.6812,1.6812,1.673,1.673,1.673,1.673,1.673,0.0,0.0,0.0,0.0,0.0,0.0,1.4789,1.4517,1.4265,1.4531,1.4475,1.4272,1.4641,1.4768,1.4706,0.0,0.0,0.0,0.0,0.0,0.0,0.0,0.0,0.0,0.0,1.6937,1.6745,1.7079,1.6066,1.5745,0.0,0.0,0.0,0.0,0.0,0.0,0.0,0.0,0.0,1.1781,1.2378,1.2966,1.3615,1.4268,1.4664,1.4615,1.5383,1.559,1.5352,1.4765,1.4282,1.3897,1.4314,1.4551,1.4678,1.4796,1.4737,0.0,0.0,0.0,0.0,1.5526,1.5342,0.0,0.0,0.0,0.0,0.0,0.0,0.0,0.0,1.6259,1.6405,1.6508,0.0,1.6382,1.6019,1.6252,1.6539,0.0,1.6456,1.6384,1.6384,1.6384,1.6374,1.6192,1.6134,1.6134,1.5961,1.6168,1.6473,1.697,1.8824,0.0,2.0657,2.0747,0.0,0.0,0.0,0.0,0.0,0.0,0.0,0.0,0.0,0.0,1.9256,1.8859,1.839,1.7683,1.7683,1.7367,1.673,1.673,1.673,1.673,0.0,0.0,0.0,0.0,0.0,0.0,1.5271,1.4918,1.4523,1.437,1.4406,1.4631,1.5263,1.5295,1.5109,0.0,0.0,0.0,0.0,0.0,0.0,0.0,0.0,0.0,0.0,0.0,0.0,0.0,0.0,0.0,0.0,0.0,0.0,0.0,0.0,0.0,0.0,0.0,1.2977,1.3135,1.3712,1.4151,1.4495,1.5036,1.534,1.5505,1.5747,1.589,1.5836,1.5284,1.4855,1.4601,1.5129,1.5439,1.5565,1.5786,0.0,0.0,0.0,0.0,0.0,1.6114,1.6046,0.0,1.6161,1.6218,1.6151,0.0,0.0,0.0,0.0,1.6534,1.6477,1.6477,1.6431,1.6316,1.5961,1.6134,1.6384,1.6384,1.6384,1.6384,1.6384,1.6384,1.6384,1.6384,1.6384,1.6384,1.6384,1.6384,1.6767,1.7874,1.8868,1.9893,2.0979,2.1114,0.0,0.0,0.0,0.0,0.0,0.0,0.0,0.0,0.0,0.0,0.0,2.006,1.9423,1.863,1.863,1.8399,1.7917,1.7917,1.7683,1.7286,0.0,0.0,0.0,0.0,0.0,1.596,1.5568,1.5211,1.4912,1.4881,1.4889,1.5011,1.5541,1.556,1.541,0.0,0.0,0.0,0.0,0.0,0.0,0.0,0.0,0.0,0.0,0.0,0.0,0.0,0.0,0.0,0.0,0.0,0.0,0.0,0.0,0.0,0.0,1.5387,1.5027,1.478,1.5215,1.5512,1.5707,1.5731,1.6121,1.6694,1.6348,1.6238,1.6352,1.5951,1.5728,1.5718,1.6073,1.6322,1.6467,1.6909,0.0,0.0,0.0,0.0,0.0,0.0,0.0,0.0,1.6874,1.6874,1.6807,1.6807,0.0,0.0,0.0,0.0,0.0,1.6797,1.6694,1.6602,1.6488,1.6483,1.6582,1.6612,1.6545,1.6488,1.6591,1.6545,1.6488,1.6488,1.6431,1.6452,1.6524,1.6659,1.7168,1.8383,1.8664,1.936,2.0917,0.0,0.0,0.0,0.0,0.0,0.0,0.0,0.0,0.0,0.0,0.0,0.0,2.1098,2.0382,1.9737,1.958,1.9423,1.9335,1.9335,1.8912,1.8072,1.7992,0.0,0.0,0.0,0.0,1.5602,1.5602,1.5404,1.5133,1.5404,1.5348,1.5141,1.5483,1.5602,1.5602,0.0,0.0,0.0,0.0,0.0,0.0,0.0,0.0,0.0,0.0,0.0,0.0,0.0,0.0,0.0,0.0,0.0,0.0,0.0,0.0,0.0,1.9333,1.6624,1.5547,1.6565,1.6156,1.639,1.7533,1.7205,1.7086,1.7207,1.7375,1.7063,1.6337,1.6508,1.6389,1.6073,1.6595,1.6965,1.7155,1.7211,0.0,0.0,0.0,0.0,0.0,0.0,0.0,0.0,1.7222,1.7088,1.6955,1.6955,0.0,0.0,0.0,0.0,0.0,1.7556,1.7501,1.7335,1.6751,1.6875,1.7238,1.7434,1.7134,1.6864,1.7401,1.7078,1.6761,1.6761,1.6637,1.6707,1.7105,1.784,1.8564,0.0,0.0,2.0571,0.0,0.0,0.0,0.0,0.0,0.0,0.0,0.0,0.0,0.0,0.0,0.0,0.0,0.0,2.1634,2.1711,2.0769,1.9982,1.9335,1.9335,1.9012,1.847,1.783,1.7243,0.0,0.0,0.0,1.5261,1.5261,1.5046,1.4728,1.4784,1.4768,1.4768,1.5125,1.5261,1.5261,0.0,0.0,0.0,0.0,0.0,0.0,0.0,0.0,0.0,0.0,0.0,0.0,0.0,0.0,0.0,0.0,0.0,0.0,0.0,0.0,2.0291,2.0613,1.9149,1.8466,1.8816,1.8198,1.8097,1.8695,1.7897,1.7805,1.8458,1.8148,1.7621,1.6969,1.6938,1.6955,1.7101,1.7134,1.7357,1.7689,0.0,0.0,0.0,0.0,0.0,0.0,0.0,0.0,0.0,0.0,1.7412,1.7556,1.7245,0.0,0.0,0.0,0.0,0.0,1.8135,1.8452,1.8481,1.7877,1.7398,1.713,1.7612,1.7512,1.7457,1.805,1.7941,1.7611,1.7346,1.7234,1.7218,1.7355,1.78,1.8364,1.9401,1.9832,0.0,0.0,0.0,0.0,0.0,0.0,0.0,0.0,0.0,0.0,0.0,0.0,0.0,0.0,0.0,2.1439,2.1512,2.0989,2.0571,2.0252,2.0017,1.9587,1.8882,1.8573,1.7979,0.0,0.0,1.6068,1.5804,1.5605,1.5433,1.5275,1.5275,1.5275,1.5292,1.5466,1.5532,1.5532,0.0,0.0,0.0,0.0,0.0,0.0,0.0,0.0,0.0,0.0,0.0,0.0,0.0,0.0,0.0,0.0,0.0,0.0,0.0,2.1014,2.1014,2.1128,2.114,2.1063,2.0784,2.0166,1.9854,2.003,1.9003,1.8897,1.9654,1.8988,1.8442,1.7957,1.7612,1.7733,1.8127,1.781,1.7963,1.8267,0.0,0.0,0.0,0.0,0.0,0.0,0.0,0.0,0.0,0.0,0.0,0.0,0.0,0.0,0.0,1.8093,1.8213,1.8429,1.8833,1.9227,1.9389,1.9035,1.8173,1.7567,1.8276,1.8265,1.8354,1.9071,1.9107,1.8854,1.8288,1.8258,1.8205,1.8005,1.8276,1.8873,1.9922,0.0,0.0,0.0,0.0,0.0,0.0,0.0,0.0,0.0,0.0,0.0,0.0,0.0,0.0,0.0,0.0,0.0,2.1101,2.0913,2.0952,2.1105,2.074,2.0155,1.9471,1.9256,1.8653,1.7605,1.7179,1.6794,1.6515,1.6175,1.6035,1.6175,1.6044,1.6035,1.6175,1.6044,1.6044,1.6175,0.0,0.0,0.0,0.0,0.0,0.0,0.0,0.0,0.0,0.0,0.0,0.0,0.0,0.0,0.0,0.0,0.0,0.0,0.0,2.0729,2.0668,2.126,2.132,2.1524,2.198,2.1318,2.1255,2.193,2.1209,2.0728,2.0404,2.004,1.9678,1.9262,1.8976,1.8881,1.8934,1.8881,1.8881,1.8881,1.8267,0.0,0.0,0.0,0.0,0.0,0.0,0.0,0.0,0.0,0.0,0.0,0.0,0.0,1.8827,1.8255,1.8845,1.9695,1.9695,1.9733,1.9745,1.9759,1.9473,1.9452,2.0266,2.0025,1.9982,2.1039,2.0883,2.0342,1.9768,1.9924,1.9944,1.9359,2.057,2.1537,0.0,0.0,0.0,0.0,0.0,0.0,0.0,0.0,0.0,0.0,0.0,0.0,0.0,0.0,0.0,0.0,0.0,0.0,2.1312,2.0663,2.0535,2.1002,2.097,2.0726,2.0223,1.9512,1.8903,1.8414,1.7657,1.7364,1.7267,1.6733,1.6872,1.7276,1.6733,1.6872,1.7198,1.6733,1.6872,1.7267,0.0,0.0,0.0,0.0,0.0,0.0,0.0,0.0,0.0,0.0,0.0,0.0,0.0,0.0,0.0,0.0,0.0,0.0,0.0,2.2142,2.1944,2.1926,2.1939,2.2033,2.2231,2.1884,2.1865,2.2101,2.1606,2.1128,2.0593,2.0354,1.9989,1.9519,1.9177,1.9198,1.95,1.9146,1.9198,1.9448,1.8869,1.8655,0.0,0.0,0.0,0.0,0.0,0.0,0.0,0.0,1.9198,1.9396,1.8815,1.9028,1.9436,1.9214,1.9475,1.9862,2.0283,2.0385,2.0385,2.0385,2.0271,2.0305,2.063,2.0216,2.0204,2.1745,2.1307,2.0534,1.9927,2.0183,2.0421,2.0148,2.0948,0.0,0.0,0.0,0.0,0.0,0.0,0.0,0.0,0.0,0.0,0.0,0.0,0.0,0.0,0.0,0.0,0.0,0.0,0.0,0.0,2.0312,2.0245,2.0428,2.0215,2.0052,1.9881,1.9593,1.9364,1.9198,1.8654,1.8442,1.8442,1.7959,1.7891,1.8094,1.7823,1.7891,1.8094,1.7823,1.7891,1.8094,0.0,0.0,0.0,0.0,0.0,0.0,0.0,0.0,0.0,0.0,0.0,0.0,0.0,0.0,0.0,0.0,0.0,0.0,2.2731,2.2602,2.2366,2.2033,2.1872,2.1792,2.1782,2.2064,2.2272,2.2433,2.2016,2.1461,2.0816,2.0719,2.0404,1.9926,1.9668,1.9759,2.0067,1.9708,1.9759,2.0016,1.95,1.9291,0.0,0.0,0.0,0.0,0.0,0.0,0.0,0.0,1.9759,1.9965,1.9448,1.9656,2.0067,1.9862,1.9914,2.0169,2.0599,2.0699,2.0699,2.0699,2.0843,2.1016,2.1166,2.0934,2.0987,2.2343,2.1877,2.1082,2.0706,2.1091,2.1492,0.0,2.1882,0.0,0.0,0.0,0.0,0.0,0.0,0.0,0.0,0.0,0.0,0.0,0.0,0.0,0.0,0.0,0.0,0.0,0.0,0.0,0.0,2.0388,2.0324,2.0085,1.9878,1.9747,1.9747,1.9747,1.9747,1.9747,1.9539,1.9407,1.9407,1.8911,1.8767,1.8767,1.8767,1.8844,1.8988,1.8844,1.8844,1.8988,0.0,0.0,0.0,0.0,0.0,0.0,0.0,0.0,0.0,0.0,0.0,0.0,0.0,0.0,0.0,0.0,0.0,0.0,2.22,2.1705,2.1407,2.1407,2.096,2.0718,2.0718,2.1751,2.2588,2.3113,2.2677,2.2013,2.1117,2.1262,2.1108,2.0699,2.0712,2.0712,2.0699,2.0699,2.0699,2.0649,2.0207,1.9991,1.9952,0.0,0.0,0.0,0.0,0.0,0.0,0.0,2.0699,2.0599,2.0016,2.022,2.0599,2.0016,2.022,2.0699,2.0699,2.0699,2.0699,2.0712,2.1093,2.1668,2.2297,2.2387,2.2557,2.3093,2.2766,2.2428,2.2415,2.2831,2.3223,2.321,0.0,0.0,0.0,0.0,0.0,0.0,0.0,0.0,0.0,0.0,0.0,0.0,0.0,0.0,0.0,0.0,0.0,0.0,0.0,0.0,0.0,2.1123,2.0764,2.014,2.014,2.0074,2.0085,2.0085,2.0085,2.0085,2.0085,2.0085,2.0074,1.9518,1.9309,1.9309,1.9309,1.9649,2.0009,1.9518,1.9649,2.0085,0.0,0.0,0.0,0.0,0.0,0.0,0.0,0.0,0.0,0.0,0.0,0.0,0.0,0.0,0.0,0.0,0.0,0.0,2.3481,2.3332,2.2953,2.2348,2.2158,2.2027,2.1756,2.2445,2.2709,2.2536,2.2161,2.1719,2.1117,2.1315,2.1159,2.0725,2.1067,2.1028,2.0699,2.0699,2.0762,2.0838,2.0675,2.0948,2.1236,0.0,0.0,0.0,0.0,0.0,0.0,0.0,0.0,0.0,2.0686,2.0785,2.0898,2.0686,2.0785,2.0898,2.0898,2.0861,2.093,2.1312,2.1433,2.1773,2.274,2.2662,2.2426,2.2609,2.3158,2.3341,2.2572,2.3171,0.0,0.0,0.0,0.0,0.0,0.0,0.0,0.0,0.0,0.0,0.0,0.0,0.0,0.0,0.0,0.0,0.0,0.0,0.0,0.0,0.0,0.0,0.0,0.0,2.1678,2.1491,2.1491,2.1008,2.0085,2.0085,2.0085,2.0085,2.0085,2.0085,2.0085,1.9944,1.9868,1.9868,1.9868,1.9944,2.0074,1.9933,1.9944,2.0085,0.0,0.0,0.0,0.0,0.0,0.0,0.0,0.0,0.0,0.0,2.3967,2.3994,0.0,0.0,0.0,0.0,0.0,0.0,0.0,2.3824,2.345,2.2935,2.2711,2.2594,2.2586,2.2902,2.2915,2.2491,2.2014,2.1458,2.0875,2.1261,2.1178,2.0725,2.1205,2.1266,2.0997,2.0861,2.0911,2.1184,2.1312,2.1472,2.1589,0.0,0.0,0.0,0.0,0.0,0.0,0.0,0.0,0.0,2.0997,2.0997,2.0997,2.0997,2.0997,2.0961,2.0961,2.0924,2.102,2.1574,2.1838,2.2219,2.3401,2.3162,2.2714,2.2727,2.3276,2.3537,2.2831,2.3485,0.0,0.0,0.0,0.0,0.0,0.0,0.0,0.0,0.0,0.0,0.0,0.0,0.0,0.0,0.0,0.0,0.0,0.0,0.0,0.0,0.0,0.0,0.0,0.0,0.0,2.2101,2.2101,2.1678,2.088,2.088,2.0764,2.0506,2.0205,2.0085,2.0085,2.0085,2.0085,2.0085,2.0085,2.0085,2.0085,2.0085,2.0085,2.0085,0.0,0.0,0.0,0.0,0.0,0.0,0.0,0.0,0.0,0.0,2.4245,2.4245,0.0,0.0,0.0,0.0,0.0,0.0,0.0,2.3636,2.3347,2.3303,2.2832,2.2788,2.326,2.326,2.3128,2.2876,2.2228,2.1475,2.0649,2.1282,2.1282,2.0848,2.1331,2.1512,2.1458,2.1122,2.1256,2.1705,2.2007,2.1839,2.1496,2.2083,0.0,0.0,0.0,0.0,0.0,0.0,0.0,0.0,2.1082,2.1082,2.1033,2.1082,2.101,2.0938,2.0987,2.1027,2.1149,2.1705,2.2287,2.3039,2.4112,2.3839,2.3289,2.3289,2.3302,2.3302,2.3302,2.3746,0.0,0.0,0.0,0.0,0.0,0.0,0.0,0.0,0.0,0.0,0.0,0.0,0.0,0.0,0.0,0.0,0.0,0.0,0.0,0.0,0.0,0.0,0.0,0.0,0.0,0.0,2.2286,2.2286,2.2298,2.2175,2.1741,2.1123,2.0506,2.0205,2.0205,2.0151,2.0085,2.0085,2.0085,2.0085,2.0085,2.0085,2.0085,2.0085,0.0,0.0,0.0,0.0,0.0,0.0,0.0,0.0,0.0,0.0,0.0,0.0,0.0,0.0,0.0,0.0,0.0,0.0,0.0,2.4695,2.4492,2.4204,2.3852,2.3724,2.3824,2.3824,2.3709,2.352,2.3036,2.2409,2.1623,2.2346,2.2366,2.1827,2.2394,2.24,2.1908,2.1602,2.1793,2.2296,2.2122,2.253,2.3165,2.2507,2.2625,0.0,0.0,0.0,0.0,0.0,0.0,0.0,2.1793,2.1664,2.1423,2.1793,2.1616,2.1388,2.1821,2.186,2.1974,2.2576,2.3472,2.4243,2.4496,2.4399,2.4249,2.4121,2.3961,2.3916,2.3916,2.4021,0.0,0.0,0.0,0.0,0.0,0.0,0.0,0.0,0.0,0.0,0.0,0.0,0.0,0.0,0.0,0.0,0.0,0.0,0.0,0.0,0.0,0.0,2.3865,2.3865,2.3806,0.0,2.3675,2.3675,2.3616,2.2604,2.2039,2.1865,2.1187,2.088,2.0816,2.0335,2.0085,2.0085,2.0085,2.0085,2.0085,2.0085,2.0085,2.0085,0.0,0.0,0.0,0.0,0.0,0.0,0.0,0.0,0.0,0.0,0.0,0.0,0.0,0.0,0.0,0.0,0.0,0.0,0.0,0.0,2.5346,2.4997,2.467,2.4482,2.4482,2.4549,2.4533,2.4292,2.4142,2.3492,2.2317,2.2968,2.2815,2.2142,2.2701,2.2765,2.2466,2.2156,2.2388,2.2873,2.2855,2.3091,2.3337,2.3077,2.3137,2.3247,2.2409,0.0,0.0,0.0,0.0,0.0,0.0,0.0,2.2156,2.2434,2.2296,2.2016,2.2077,2.2076,2.2133,2.249,2.3487,2.4361,2.4249,2.4477,2.4664,2.4536,2.4376,2.4157,2.4112,0.0,0.0,0.0,0.0,0.0,0.0,0.0,0.0,0.0,0.0,0.0,0.0,0.0,0.0,0.0,0.0,0.0,0.0,0.0,0.0,0.0,2.4112,0.0,2.4112,2.4112,2.4112,2.4112,2.4112,2.4112,2.4054,2.304,2.2592,2.2531,2.1865,2.1553,2.1553,2.1187,2.088,2.0571,2.0571,2.0388,2.0085,2.0085,2.0085,2.0085,0.0,0.0,0.0,0.0,0.0,0.0,0.0,0.0,0.0,0.0,0.0,0.0,0.0,0.0,0.0,0.0,0.0,0.0,0.0,0.0,0.0,2.554,2.523,2.5068,2.5005,2.5217,2.5201,2.5036,2.523,2.4664,2.3466,2.3593,2.3216,2.2498,2.2875,2.3024,2.3024,2.274,2.2934,2.3451,2.3653,2.3491,2.3171,2.3608,2.3536,2.3113,2.2979,2.2934,2.3024,2.3024,0.0,0.0,0.0,0.0,2.2934,2.2979,2.2889,2.2663,2.2342,2.2287,2.2337,2.2406,2.3266,2.4096,2.4096,2.4489,2.4869,2.4921,2.465,2.4305,0.0,0.0,0.0,0.0,0.0,0.0,0.0,0.0,0.0,0.0,0.0,0.0,0.0,0.0,0.0,0.0,0.0,0.0,0.0,0.0,2.4112,2.4112,2.4112,2.4112,2.4112,2.4112,2.4112,2.4112,2.4112,2.4112,2.4054,2.3531,2.328,2.322,2.2531,2.2286,2.2286,2.2163,2.1803,2.125,2.125,2.0944,2.0453,2.0453,2.0453,2.0453,0.0,0.0,0.0,0.0,0.0,0.0,0.0,0.0,0.0,0.0,2.546,2.5519,0.0,0.0,0.0,0.0,0.0,0.0,0.0,0.0,0.0,2.554,2.5465,2.5307,2.5005,2.5217,2.5371,2.5486,2.5696,2.5897,2.6062,2.4782,2.412,2.3994,2.3638,2.3551,2.3653,2.3216,2.3451,2.404,2.3612,2.3713,2.4094,2.3743,2.3814,2.4009,2.3201,2.3157,2.3508,2.3508,2.3246,0.0,0.0,0.0,2.2979,2.3377,2.3201,2.2934,2.329,2.3463,2.3579,2.363,2.3807,2.4072,2.4707,2.4941,2.5045,2.5411,2.4991,2.4549,0.0,0.0,0.0,0.0,0.0,0.0,0.0,0.0,0.0,0.0,0.0,0.0,0.0,0.0,0.0,0.0,0.0,0.0,0.0,2.4112,2.4112,2.4112,2.4112,0.0,2.4112,2.4112,2.4112,2.4112,2.4112,2.4112,2.4112,2.3995,2.3982,2.3923,2.328,2.2967,2.2895,2.2347,2.2039,2.199,2.199,2.1928,2.1854,2.1854,2.1854,2.1741,0.0,0.0,0.0,0.0,0.0,0.0,0.0,0.0,0.0,0.0,0.0,2.5872,0.0,0.0,0.0,0.0,0.0,0.0,0.0,0.0,0.0,2.6175,2.5944,2.5705,2.546,2.5663,2.5811,2.599,2.6043,2.6478,2.7197,2.6108,2.5462,2.5217,2.5035,2.4625,2.4094,2.3894,2.3909,2.4067,2.4147,2.423,2.4302,2.4313,2.4313,2.4261,2.3809,2.3824,2.3994,2.3994,2.3867,2.3724,2.3909,0.0,0.0,0.0,2.3867,2.3681,2.3595,2.3452,2.3276,2.3331,2.3612,2.394,2.4261,2.4876,2.5449,2.5631,2.545,0.0,0.0,0.0,0.0,0.0,0.0,0.0,0.0,0.0,0.0,0.0,0.0,0.0,0.0,0.0,0.0,0.0,0.0,0.0,2.4112,2.4157,2.4157,2.4112,2.4287,0.0,2.4112,2.4157,2.4203,2.4203,2.4203,2.4203,2.4203,2.4332,2.4287,2.4054,2.3793,2.3662,2.3662,2.3352,2.304,2.2761,2.2761,2.2592,2.2347,2.2347,2.2347,2.2347,0.0,0.0,0.0,0.0,0.0,0.0,0.0,0.0,0.0,0.0,0.0,0.0,0.0,0.0,0.0,0.0,0.0,0.0,0.0,0.0,0.0,2.6691,2.6436,2.6175,2.5924,2.6139,2.6297,2.6383,2.6512,2.705,2.7916,2.7509,2.7201,2.6945,2.6325,2.5554,2.4756,2.4595,2.4436,2.4369,2.4759,2.4775,2.4639,2.4942,2.4863,2.4599,2.4599,2.4599,2.4599,2.4599,2.4533,2.4451,2.4451,2.4385,0.0,0.0,0.0,2.4219,2.3867,2.3508,2.3246,2.3113,2.3434,2.3768,2.3975,2.4882,2.5731,0.0,0.0,0.0,0.0,0.0,0.0,0.0,0.0,0.0,0.0,0.0,0.0,0.0,0.0,0.0,0.0,0.0,0.0,0.0,0.0,0.0,2.465,2.458,2.4523,2.4434,2.4563,2.4505,2.4229,2.4319,2.4363,2.4363,2.4363,2.4363,2.4363,2.4549,2.4447,2.4229,2.4229,2.4229,2.4229,2.4229,2.3956,2.3623,2.3623,2.3446,2.3088,2.3088,2.3088,2.3088,0.0,0.0,0.0,0.0,0.0,0.0,0.0,0.0,0.0,0.0,0.0,0.0,2.6691,2.7023,2.7299,2.7299,2.7299,2.7299,2.7299,2.7299,2.7105,2.6742,2.6758,0.0,2.6193,2.6505,2.6657,2.6691,2.7314,2.795,2.8673,2.9071,2.942,2.9587,2.7106,2.6027,2.6061,2.5227,2.5059,2.5329,2.523,2.5291,2.5427,2.5465,2.5465,2.5427,2.5427,2.5427,2.5427,2.5427,2.5198,2.4863,2.4863,2.4614,2.4302,0.0,0.0,0.0,2.4261,2.4261,2.4135,2.3681,2.3581,2.3775,2.4388,2.5121,2.5794,2.6359,0.0,0.0,0.0,0.0,0.0,0.0,0.0,0.0,0.0,0.0,0.0,0.0,0.0,0.0,0.0,0.0,0.0,0.0,0.0,0.0,2.6079,2.5605,2.5342,2.5342,2.4878,2.462,2.4563,2.4563,2.4549,2.4549,2.4549,2.4549,2.4549,2.462,2.462,2.4563,2.4563,2.4563,2.4563,2.4563,2.4563,2.4549,2.4549,2.4492,2.4492,2.4492,2.4492,2.4434,0.0,0.0,0.0,0.0,0.0,0.0,0.0,0.0,0.0,0.0,0.0,0.0,0.0,2.6842,2.7023,2.7299,2.7362,2.7345,2.7345,2.739,2.7373,2.723,2.723,2.7373,2.7606,2.774,2.8064,2.8629,2.8698,2.9175,3.0036,3.0034,3.0234,3.0538,2.8909,2.7907,2.7434,2.6428,2.6005,2.5956,2.5697,2.5556,2.554,2.5799,2.5726,2.5503,2.5503,2.5503,0.0,0.0,0.0,0.0,0.0,2.5198,2.5059,2.4855,2.4815,2.4815,2.4815,2.4735,2.4639,2.4461,2.423,2.4112,2.4341,2.5255,2.6108,2.6367,0.0,0.0,0.0,0.0,0.0,0.0,0.0,0.0,0.0,0.0,0.0,0.0,0.0,0.0,0.0,0.0,0.0,0.0,0.0,0.0,2.6187,2.6162,2.6054,2.5918,2.5591,2.523,2.4734,2.462,2.462,2.4734,2.5104,2.5245,2.5258,2.5384,2.5384,2.5258,2.4991,2.4778,2.462,2.462,2.4677,2.4734,2.4734,2.4778,2.4835,2.4835,2.4835,2.4835,0.0,0.0,0.0,0.0,0.0,0.0,0.0,0.0,2.6505,2.6505,0.0,0.0,0.0,0.0,2.699,2.7299,2.7569,2.7771,2.7771,2.8091,2.8262,2.8262,2.8293,2.8488,2.8895,2.8685,2.8978,2.981,2.9558,2.9868,3.0785,3.0776,3.0891,3.1157,3.0437,2.9565,2.8527,2.7623,2.701,2.6678,2.6447,2.6175,2.5944,2.621,2.6139,2.5908,0.0,0.0,0.0,0.0,0.0,0.0,2.5689,2.5615,2.5465,2.5346,2.5285,2.5285,2.5285,2.523,2.5176,2.5176,2.4839,2.4492,2.4549,2.5292,2.6057,2.6318,0.0,0.0,0.0,0.0,0.0,0.0,0.0,0.0,0.0,0.0,0.0,0.0,0.0,0.0,0.0,0.0,0.0,0.0,0.0,0.0,2.6938,2.6849,2.6692,2.64,2.6229,2.592,2.5412,2.5356,2.5356,2.5412,2.5783,2.6,2.5986,2.6122,2.6122,2.5932,2.5687,2.5258,2.4734,2.4734,2.4778,2.4892,2.4892,2.4892,2.5005,2.5005,2.5005,2.5005,0.0,0.0,0.0,0.0,0.0,0.0,0.0,0.0,2.7299,2.7299,0.0,0.0,0.0,0.0,0.0,2.7414,2.8117,2.858,2.858,2.9373,2.9824,2.9824,2.9889,2.9939,2.9957,2.9334,2.94,3.0176,2.9863,3.0092,3.0872,3.131,3.1504,3.1504,3.1504,3.0751,2.94,2.8743,2.8089,2.7554,2.7537,2.7244,2.6759,2.6742,2.6725,2.6725,2.6725,2.6708,0.0,2.6725,0.0,0.0,2.6139,2.5835,2.554,2.5684,2.5738,2.5738,0.0,0.0,0.0,2.5701,2.5291,2.4942,2.5052,0.0,2.5503,0.0,0.0,0.0,0.0,0.0,0.0,0.0,0.0,0.0,0.0,0.0,0.0,0.0,0.0,0.0,0.0,0.0,0.0,0.0,0.0,2.8411,2.8411,2.7845,2.7312,2.673,2.673,2.673,2.6678,2.6678,2.6678,2.6678,2.673,2.673,2.673,2.673,2.673,2.673,2.673,2.6054,2.5061,2.5061,2.5061,2.5005,2.5005,2.5005,2.5005,2.5005,2.5005,2.5005,0.0,0.0,0.0,0.0,0.0,2.7299,2.7299,2.7299,2.7299,0.0,0.0,0.0,2.7362,2.8119,2.8947,2.975,3.0069,3.0241,3.0241,3.0507,3.0661,3.0661,3.0689,3.0977,3.1541,3.1373,3.1524,3.2062,3.1948,3.1908,3.1969,3.2109,3.2001,3.1785,3.1579,3.1172,3.0543,2.9883,2.9408,2.9025,2.8598,2.8426,2.8281,2.7723,2.752,0.0,0.0,2.7165,2.6776,0.0,2.7079,2.6539,0.0,2.6332,2.6101,2.6137,2.6137,2.6137,2.6137,0.0,0.0,0.0,0.0,0.0,0.0,0.0,0.0,0.0,0.0,0.0,0.0,0.0,0.0,0.0,0.0,0.0,0.0,0.0,0.0,0.0,0.0,0.0,0.0,0.0,0.0,0.0,2.8411,2.8411,2.8411,2.8235,2.786,2.7312,2.7312,2.7093,2.6678,2.6678,2.6678,2.6678,2.7093,2.7312,2.7312,2.7312,2.7312,2.7246,2.6886,2.652,2.6215,2.6215,2.6014,2.5674,2.5674,2.5397,2.5005,2.5005,2.5286,2.5674,0.0,0.0,0.0,0.0,0.0,2.733,2.733,2.7362,2.7466,0.0,0.0,0.0,2.8574,2.9337,3.0073,3.0738,3.1137,3.1345,3.1345,3.1727,3.1954,3.1954,3.1954,3.2172,3.2661,3.2353,3.2408,3.2795,3.2491,3.2367,3.2406,3.2406,3.2232,3.1894,3.1875,3.1634,3.1179,3.0946,3.0366,2.9683,2.9319,2.908,2.896,2.8484,2.8298,0.0,0.0,0.0,2.7182,2.73,2.7063,0.0,0.0,2.659,2.6469,2.6538,2.6555,2.6555,2.6555,2.6504,2.6453,2.6487,0.0,0.0,2.5351,2.5401,0.0,0.0,0.0,0.0,0.0,0.0,0.0,0.0,0.0,0.0,0.0,0.0,0.0,0.0,0.0,0.0,0.0,0.0,0.0,0.0,2.8411,2.8411,2.8411,2.8411,2.8235,2.7894,2.7894,2.7745,2.7429,2.7429,2.7429,2.7429,2.7745,2.7894,2.7894,2.7894,2.7894,2.7845,2.753,2.7429,2.7429,2.7429,2.6967,2.6229,2.6229,2.6014,2.5687,2.5687,2.5906,2.6229,0.0,0.0,2.6775,2.6775,2.7124,2.7451,2.7546,2.7598,2.7941,0.0,2.885,2.9271,3.0379,3.0776,3.101,3.1166,3.1827,3.2254,3.2254,3.2972,3.339,3.339,3.339,3.339,3.339,3.2746,3.2586,3.2908,3.2197,3.2062,3.2422,3.2406,3.2232,3.1984,3.2232,3.2037,3.1504,3.1671,3.1014,2.985,2.985,2.9635,2.9228,0.0,2.911,2.9008,2.8315,2.7992,2.7841,2.7182,2.6945,0.0,0.0,0.0,0.0,0.0,2.708,2.7029,2.7114,2.708,2.7012,2.7094,0.0,0.0,2.5924,2.5465,2.5132,0.0,0.0,0.0,0.0,0.0,0.0,0.0,0.0,0.0,0.0,0.0,0.0,0.0,0.0,0.0,0.0,0.0,2.8411,2.8411,2.8411,2.8411,2.8411,2.8411,2.8411,2.8411,2.8411,2.8411,2.8411,2.8411,2.8411,2.8411,2.8411,2.8411,2.8411,2.8411,2.8411,2.8411,2.8411,2.8411,2.8411,2.8411,2.776,2.6782,2.6782,2.673,2.6678,2.6678,2.673,2.6782,0.0,2.7137,2.7218,2.7233,2.7829,2.8291,2.8421,2.8958,2.9375,2.9565,2.9615,3.0166,3.1516,3.1833,3.2356,3.3444,3.3697,3.3771,3.3771,3.3938,3.403,3.403,3.403,3.403,3.403,3.3882,3.3703,3.3426,3.3146,3.2845,3.2539,3.2457,3.2371,3.2267,3.2108,3.1839,3.1579,3.1368,3.1106,3.0757,3.0836,3.0847,3.07,3.0108,2.9888,2.9871,2.9719,2.9262,2.8738,2.8586,2.8535,2.8535,0.0,0.0,0.0,2.8588,0.0,2.7757,2.8418,2.813,0.0,0.0,0.0,0.0,2.6412,2.6101,2.5901,0.0,0.0,0.0,0.0,0.0,0.0,0.0,0.0,0.0,0.0,0.0,0.0,0.0,0.0,0.0,0.0,0.0,2.8411,2.8411,2.8411,2.8411,2.8411,2.8411,2.8411,2.8411,2.8411,2.8411,2.8411,2.8411,2.8411,2.8411,2.8411,2.8411,2.8411,2.8411,2.8411,2.8411,2.8411,2.8411,2.8411,2.8411,2.7959,2.7363,2.7363,2.7093,2.6678,2.6678,2.699,2.7363,2.7327,2.7719,2.8028,2.8042,2.865,2.9201,2.9283,2.9597,3.0062,3.0674,3.1372,3.2108,3.282,3.3085,3.346,3.4136,3.4197,3.4197,3.4197,3.4197,3.4197,3.4197,3.4221,3.4245,3.4245,3.4269,3.4148,3.3807,3.3597,3.3291,3.2894,3.2722,3.2641,3.2641,3.2249,3.2038,3.193,3.1521,3.1308,3.123,3.1151,0.0,3.1157,3.0784,3.0649,3.0598,3.0243,2.9634,2.9011,2.9011,2.9011,0.0,0.0,2.9011,2.9011,0.0,2.8704,2.8484,0.0,0.0,0.0,2.856,0.0,0.0,0.0,2.6971,2.6659,2.5828,0.0,0.0,0.0,0.0,0.0,0.0,0.0,0.0,0.0,0.0,0.0,0.0,0.0,0.0,0.0,0.0,2.8411,2.8411,2.8411,2.8411,2.8411,2.8411,2.8411,2.8411,2.8411,2.8411,2.8411,2.8411,2.8411,2.8411,2.8411,2.8411,2.8411,2.8411,2.8411,2.8411,2.8411,2.8411,2.8411,2.8411,2.8235,2.7959,2.7959,2.7795,2.7545,2.7545,2.7695,2.7959,2.7709,2.8366,2.8937,2.8937,2.9547,3.0051,3.0149,3.0289,3.0768,3.18,3.2951,3.3734,3.3788,3.3998,3.4148,3.4197,3.4197,3.4197,3.4221,3.4221,3.4221,3.4245,3.4293,3.4316,3.4316,3.4363,3.4269,3.4049,3.3807,3.3541,3.3243,3.3024,3.2916,3.2884,3.2573,3.2352,3.2197,3.1765,3.1538,3.1423,0.0,3.1173,3.119,3.1252,3.1269,3.1123,3.0531,2.9922,2.9397,2.9397,2.9397,2.9397,2.9397,2.9397,0.0,0.0,0.0,0.0,0.0,0.0,0.0,0.0,0.0,2.9102,0.0,0.0,0.0,2.6435,2.6211,0.0,0.0,0.0,0.0,0.0,0.0,0.0,0.0,0.0,0.0,0.0,0.0,0.0,0.0,0.0,2.8668,2.8668,2.8668,2.8668,2.8668,2.8573,2.8525,2.8525,2.8444,2.8444,2.8525,2.8525,2.8573,2.8668,2.8573,2.8525,2.8525,2.8525,2.8525,2.8525,2.8653,2.87,2.87,2.87,2.8748,2.87,2.8525,2.8444,2.8444,2.846,2.8508,2.8508,2.8679,2.9181,2.9669,2.9735,3.0431,3.0989,3.1038,3.1668,3.226,3.2638,3.3069,3.3465,3.378,3.3834,3.3947,3.4173,3.4197,3.4221,3.4269,3.4293,3.4316,3.4363,3.4386,3.4386,3.4386,3.4404,3.4316,3.4173,3.386,3.3597,3.3361,3.3037,3.2916,3.2916,3.2852,3.2521,3.2039,3.1967,3.1674,0.0,3.1524,3.1449,0.0,3.1524,3.1449,3.119,3.1106,3.1021,3.0937,0.0,3.0937,3.0937,0.0,3.0937,3.0937,3.0937,0.0,0.0,0.0,0.0,0.0,0.0,3.0179,0.0,0.0,0.0,2.8921,2.7963,0.0,2.7641,2.6978,0.0,0.0,0.0,0.0,0.0,0.0,0.0,0.0,0.0,0.0,0.0,0.0,0.0,0.0,2.9633,2.9633,2.9633,2.9633,2.9273,2.9044,2.9044,2.8621,2.8621,2.8997,2.9044,2.9227,2.9633,2.9227,2.9044,2.9044,2.9044,2.9044,2.9044,2.954,2.9745,2.9745,2.9876,2.9919,2.9832,2.892,2.8573,2.8589,2.87,2.8747,2.8747,2.9659,3.0114,3.0637,3.0637,3.1303,3.1863,3.1897,3.2311,3.2669,3.2813,3.3273,3.3652,3.3762,3.3947,3.4099,3.4245,3.4245,3.4293,0.0,0.0,3.4363,3.4386,3.445,3.4473,3.4473,3.4495,3.4427,3.4245,3.3998,3.3762,3.3569,3.3298,3.3214,3.3165,3.2943,3.2586,3.2162,3.2162,3.1804,0.0,0.0,0.0,0.0,3.1582,3.1487,3.119,3.119,3.119,3.119,0.0,3.1329,0.0,0.0,0.0,0.0,0.0,0.0,0.0,0.0,0.0,0.0,0.0,0.0,0.0,3.0118,0.0,2.9742,0.0,0.0,0.0,0.0,0.0,0.0,0.0,2.8169,0.0,0.0,0.0,0.0,0.0,0.0,0.0,0.0,0.0,0.0,0.0,0.0,2.9793,2.9793,2.9617,2.9483,2.9483,2.9319,2.9319,2.9483,2.9483,2.9617,2.9793,2.9617,2.9512,2.9569,2.9569,2.9629,2.9701,2.9903,3.0031,3.0031,3.0074,3.0117,3.0091,2.9733,2.9393,2.9044,2.8873,2.8794,2.8794,3.0988,3.124,3.1577,3.1528,3.2036,3.2439,3.2439,3.2752,3.2939,3.2939,3.3476,3.3868,3.386,3.4303,3.453,3.4311,3.454,3.4601,0.0,0.0,3.445,3.445,3.4495,3.4517,3.4517,3.458,3.4495,3.4293,3.4099,3.3895,3.3698,3.3491,3.3393,3.3393,3.3099,3.2781,3.2453,3.2453,3.2003,3.1428,3.2401,3.2265,3.1504,3.1562,3.1449,3.1329,3.123,3.119,3.119,3.119,3.1428,0.0,3.1291,0.0,0.0,0.0,0.0,0.0,3.1329,0.0,0.0,0.0,0.0,0.0,0.0,0.0,0.0,0.0,0.0,0.0,0.0,0.0,2.9438,2.9438,0.0,2.8716,0.0,0.0,0.0,0.0,0.0,0.0,0.0,0.0,0.0,0.0,3.0267,0.0,3.0208,3.0123,3.0054,3.0011,2.9908,2.9908,3.0011,3.0054,3.014,3.0267,3.014,3.0107,3.0133,3.0133,3.0218,3.0302,3.0468,3.051,3.051,3.0551,3.0551,3.0551,3.0526,3.0234,2.9848,2.9409,2.9259,2.9259,3.2813,3.2684,3.2504,3.2387,3.2472,3.2606,3.2606,3.2988,3.3291,3.3291,3.3752,3.4074,0.0,0.0,0.0,0.0,0.0,3.5324,3.4551,0.0,3.4517,3.4602,3.4602,3.4602,0.0,3.4602,3.4495,3.4293,3.4099,3.3895,3.3698,3.3491,3.3393,3.3393,3.3393,3.3178,3.2763,3.2763,3.2368,3.175,3.2502,3.2568,3.2179,0.0,3.1428,3.1657,3.1329,0.0,0.0,3.119,3.1428,0.0,0.0,0.0,0.0,0.0,0.0,0.0,0.0,0.0,0.0,3.1787,0.0,0.0,0.0,0.0,3.229,0.0,0.0,0.0,0.0,2.9642,2.9506,2.9506,2.9489,0.0,0.0,0.0,0.0,0.0,0.0,0.0,0.0,0.0,0.0,0.0,3.1368,0.0,3.1257,3.0965,3.0707,3.0584,3.026,3.026,3.0584,3.0707,3.0982,3.144,3.0982,3.0764,3.0747,3.0747,3.0747,3.0804,3.1334,3.1542,3.1579,3.1709,3.1746,3.1709,3.124,3.1083,3.0988,3.0584,3.0435,3.0435,3.3024,3.2993,3.2898,3.2755,3.2787,3.2802,3.2802,3.3068,3.34,0.0,3.4402,0.0,0.0,3.6048,3.6166,0.0,0.0,3.5431,3.4617,3.458,0.0,0.0,3.4602,3.4602,0.0,3.4602,3.445,3.4099,3.4023,3.3815,3.3509,3.3422,3.3393,3.3393,3.3393,3.3178,3.2813,3.3099,0.0,0.0,0.0,3.2453,3.2912,0.0,0.0,3.1389,3.1487,3.1524,0.0,3.1841,3.2127,3.2368,3.2039,3.2162,3.2368,3.2039,3.2003,0.0,0.0,0.0,3.2535,3.2179,0.0,0.0,0.0,0.0,0.0,0.0,0.0,0.0,0.0,3.1709,3.1691,3.1691,3.1267,3.0861,0.0,0.0,0.0,0.0,0.0,0.0,0.0,0.0,0.0,3.1295,3.1291,3.1291,0.0,3.1201,3.114,3.1196,3.1078,3.1061,3.1196,3.1252,3.1329,3.1517,3.1346,3.1274,3.1334,3.1334,3.1372,3.1466,3.1671,3.1746,3.1763,3.18,3.18,3.1783,3.1634,3.1542,3.1466,3.0764,3.0518,3.0518,3.3196,3.3196,3.3135,3.2948,3.2948,0.0,0.0,0.0,0.0,0.0,3.5009,0.0,3.6022,0.0,3.6863,0.0,3.6104,3.582,3.5108,3.4727,0.0,3.4602,3.4517,0.0,3.4495,3.4495,3.4293,3.3895,3.3895,3.3726,3.3393,3.3393,3.3393,3.3393,3.3393,3.3256,3.3019,3.3286,3.3037,0.0,0.0,3.2535,0.0,0.0,3.1967,0.0,0.0,3.1932,3.1967,3.2196,3.2502,3.2731,3.2419,3.2535,3.2731,3.2401,3.2368,3.2468,3.2468,3.2749,0.0,0.0,3.2749,0.0,3.2619,0.0,0.0,0.0,0.0,0.0,0.0,0.0,3.2795,3.2795,3.2416,3.2005,0.0,3.1684,0.0,0.0,0.0,0.0,0.0,0.0,3.1466,3.1411,3.1406,3.1406,0.0,0.0,3.1521,3.1538,3.1576,3.1576,3.1538,3.1576,3.1631,3.1631,3.1631,3.1614,3.1671,3.1671,3.1709,3.18,3.18,3.18,3.18,3.18,3.18,3.18,3.18,3.18,3.1709,3.1179,3.0965,3.0965,3.3393,3.3393,3.3304,0.0,3.3024,0.0,0.0,0.0,3.4624,0.0,3.5563,3.6175,3.614,3.7059,3.7415,3.6734,3.6738,3.6528,3.5931,3.4951,0.0,0.0,3.4427,3.4316,3.4316,3.4293,3.4099,3.3726,3.3698,3.3605,3.3393,3.3393,3.3393,3.3393,3.3393,3.3393,3.3393,3.3393,3.3178,3.2844,3.2795,3.2795,3.2844,3.2795,0.0,3.2813,3.2453,3.2317,3.2317,3.2351,3.2586,3.2763,3.2435,3.2568,3.2763,3.2453,3.2568,3.2844,3.2844,3.3099,3.3304,3.2939,0.0,0.0,0.0,0.0,3.3575,0.0,0.0,0.0,0.0,0.0,3.2858,3.2858,3.2858,3.2608,3.1905,3.1798,0.0,0.0,0.0,0.0,0.0,3.202,3.1783,3.1654,3.1709,3.1709,0.0,0.0,0.0,3.1617,3.1746,3.1746,3.1617,3.1763,3.18,3.18,3.18,3.18,3.18,3.18,3.18,3.18,3.18,3.18,3.18,3.18,3.18,3.18,3.18,3.18,3.18,3.18,3.18,3.18,3.3393,3.3393,3.3364,0.0,3.3304,3.3334,0.0,0.0,0.0,0.0,3.6662,3.7683,3.8092,3.8701,3.8777,3.7959,3.7885,0.0,0.0,0.0,0.0,3.462,3.4539,3.4517,3.4517,3.4381,3.4173,3.3921,3.378,3.3605,3.3393,3.3393,3.3393,3.3393,3.3393,3.3393,3.3393,3.3393,3.3334,3.3208,3.2908,3.2988,0.0,0.0,3.2988,3.3178,3.2813,3.2666,3.2716,3.3006,3.3178,3.3226,3.3147,3.3178,3.3226,3.3147,3.3178,3.3256,3.3256,3.3316,3.3393,3.3327,3.3839,3.4189,0.0,0.0,0.0,0.0,0.0,0.0,0.0,0.0,0.0,3.355,3.355,3.3478,3.3277,0.0,0.0,3.3259,0.0,0.0,3.2684,3.2335,3.2073,3.2038,3.1746,3.1576,0.0,0.0,0.0,3.1746,3.18,3.1783,3.1746,3.18,3.18,3.18,3.18,3.18,3.18,3.18,3.18,3.18,3.18,3.18,3.18,3.18,3.18,3.18,3.18,3.18,3.18,3.18,3.18,3.18,3.3411,3.3393,0.0,3.3393,0.0,0.0,3.3918,0.0,0.0,3.5711,3.6826,0.0,3.8022,3.8298,3.8294,3.7894,3.7206,0.0,3.564,0.0,0.0,3.4377,3.4245,3.4197,3.4197,3.4099,0.0,3.3726,3.3615,3.3491,3.3393,3.3393,3.3393,3.3393,3.3393,3.3393,3.3393,3.3393,3.3393,3.3364,3.3129,0.0,0.0,3.3147,3.3208,3.3364,3.3129,3.3068,3.3099,3.3316,3.3393,3.3393,3.3393,3.3393,3.3393,3.3393,3.3647,3.3918,3.3918,3.419,3.4492,3.4516,3.4872,3.515,3.4765,3.5049,3.5279,0.0,0.0,0.0,0.0,0.0,0.0,3.3862,3.3807,3.3807,0.0,0.0,0.0,0.0,3.3465,0.0,0.0,3.2486,3.2144,3.2419,3.2073,0.0,0.0,0.0,0.0,0.0,3.2231,3.2179,3.202,3.202,3.1965,3.18,3.18,3.18,3.18,3.18,3.18,3.18,3.1965,3.202,3.202,3.2179,3.2144,3.202,3.202,3.2109,3.2231,3.2231,3.2038,3.18,3.3393,3.3393,0.0,0.0,0.0,0.0,0.0,3.486,0.0,3.5874,0.0,3.7189,3.7189,3.713,3.7166,3.7363,0.0,3.5128,3.5198,3.4393,3.3925,3.3998,3.3815,3.3753,3.3753,3.3726,3.3587,0.0,3.3393,3.3393,3.3393,3.3393,3.3393,3.3393,3.3393,3.3393,3.3393,3.3393,3.3393,3.3393,3.3393,3.3393,3.3393,3.3393,3.3393,3.3393,3.3393,3.3393,3.3393,3.3393,3.3393,3.3393,3.3393,3.3393,3.3393,3.3393,3.3973,3.4606,3.4606,3.5204,3.5802,3.589,3.5994,3.6079,3.6102,3.6216,3.6289,3.6303,3.6303,0.0,0.0,0.0,0.0,3.4247,0.0,0.0,0.0,0.0,0.0,0.0,0.0,0.0,0.0,3.2716,3.2249,3.2827,3.2553,0.0,0.0,0.0,0.0,0.0,3.2795,0.0,3.2386,0.0,3.2214,3.1929,3.1929,3.1929,3.1929,3.1929,3.1929,3.1965,3.2249,3.2386,3.2369,3.2684,3.2619,3.2386,3.2386,3.2519,3.2795,3.2795,3.2419,3.1929,3.3393,0.0,0.0,0.0,0.0,3.4824,3.5494,3.6146,3.6616,3.6761,3.7626,3.8245,3.8245,3.7826,3.7587,3.7645,3.6759,0.0,0.0,0.0,0.0,3.4035,3.3972,3.3947,3.3947,3.378,3.3671,0.0,3.3481,3.3393,3.3393,3.3393,3.3393,3.3393,3.3393,3.3393,3.3393,3.3393,0.0,3.3393,3.3393,3.3393,3.3393,3.3393,3.3393,3.3393,3.3393,3.3393,3.3393,3.3393,3.3393,3.3393,3.3393,3.3393,3.3393,3.3393,3.3973,3.4606,3.4606,3.5204,3.5833,3.5951,3.6474,3.6863,3.6373,3.6798,3.7074,3.6431,3.6303,3.6248,3.6101,0.0,0.0,0.0,0.0,0.0,0.0,0.0,0.0,0.0,0.0,0.0,0.0,0.0,3.3093,3.3184,0.0,0.0,0.0,0.0,0.0,0.0,0.0,0.0,0.0,0.0,0.0,3.2601,3.2601,3.2601,3.2601,3.2601,3.2601,3.2619,3.2684,3.2699,3.2716,3.2781,3.2763,3.2699,3.2699,3.2731,3.2795,3.2795,3.2749,3.2601,3.3936,0.0,0.0,0.0,0.0,0.0,0.0,3.7105,0.0,3.7065,3.7071,3.7116,3.7116,3.651,3.6076,3.6076,3.5373,3.4714,3.4302,3.4284,3.4101,3.3716,3.3698,0.0,3.3698,3.3605,3.3549,3.3549,0.0,3.3393,3.3393,3.3393,3.3393,3.3393,3.3393,3.3393,0.0,0.0,0.0,3.3393,3.3393,3.3393,3.3393,3.3393,3.3393,3.3393,3.3393,3.3393,3.3393,3.3393,3.3683,3.4027,3.4027,3.4317,3.4643,3.4685,3.5266,3.5882,3.5945,3.6526,3.7158,3.7265,3.7588,3.782,3.7594,3.7845,3.801,3.7624,3.7551,3.7422,3.7,3.6578,0.0,0.0,0.0,0.0,0.0,0.0,0.0,0.0,0.0,0.0,0.0,0.0,0.0,0.0,0.0,0.0,0.0,0.0,0.0,0.0,0.0,0.0,0.0,0.0,0.0,3.2795,3.2795,3.2795,3.2795,3.2795,3.2795,3.2795,3.2983,3.3063,3.3063,3.3063,3.3154,3.3302,3.3124,3.3184,3.3372,3.3372,3.34,3.3372,0.0,3.4141,0.0,0.0,3.553,0.0,3.6888,3.7667,3.7902,3.712,3.6598,3.6182,3.5856,3.524,3.4806,3.4624,3.3864,3.3393,3.3393,3.3393,3.3393,3.3393,3.3393,3.3393,3.3393,3.3393,3.3393,0.0,0.0,3.3393,3.3393,3.3393,3.3393,3.3393,0.0,0.0,0.0,0.0,3.3393,3.3393,3.3422,3.3422,3.3422,3.3422,3.3452,3.3452,3.3452,3.3452,3.3452,3.3452,3.3966,3.4619,3.4619,3.5181,3.5846,3.5921,3.6485,3.7121,3.7184,3.7781,3.8415,3.8478,3.851,3.8559,3.8658,3.8707,3.8707,3.8707,3.8707,3.8505,3.7863,3.7239,0.0,0.0,0.0,0.0,0.0,0.0,0.0,0.0,0.0,0.0,0.0,0.0,0.0,0.0,0.0,3.3522,3.3807,3.3807,0.0,0.0,0.0,0.0,3.3408,0.0,3.3273,0.0,3.3014,3.3014,3.3014,3.3014,3.3014,3.3014,3.3273,3.3408,3.3408,3.3437,3.3578,3.3788,3.355,3.3634,3.3921,3.3921,3.3947,3.3939,0.0,0.0,0.0,0.0,0.0,0.0,0.0,3.7667,3.7902,3.712,3.7558,3.7413,3.5965,3.5747,3.5403,3.4661,3.3864,3.3393,3.3393,3.3393,3.3393,3.3393,3.3393,3.3393,3.3393,3.3393,3.3393,0.0,0.0,3.3393,3.3393,3.3393,3.3393,0.0,0.0,0.0,0.0,3.3393,3.3393,3.3411,3.3481,3.3509,3.3509,3.3549,3.3577,3.3577,3.3577,3.3577,3.3577,3.3577,3.4076,3.4673,3.4673,3.5278,3.5964,3.5994,3.6577,3.7197,3.7215,3.7781,3.8415,3.8478,3.851,3.8559,3.8658,3.8707,3.8707,3.8707,3.8707,3.8689,3.8597,3.8524,3.8487,0.0,0.0,0.0,0.0,0.0,0.0,0.0,0.0,0.0,0.0,0.0,0.0,0.0,0.0,3.378,3.3807,3.3807,0.0,3.3807,0.0,3.3762,3.3734,3.3734,0.0,3.3707,3.3707,3.3707,3.3707,3.3707,3.3707,3.3707,3.3734,3.3734,3.3762,3.3815,3.3868,3.3895,3.3921,3.3972,3.3998,3.3998,3.3998,3.4109,0.0,0.0,0.0,0.0,0.0,0.0,0.0,3.7975,3.7902,3.712,3.7268,3.7214,3.658,3.6091,3.5494,3.4679,3.4317,3.3918,3.3429,3.3393,3.3393,3.3393,3.3393,3.3393,3.3393,3.3393,3.3422,0.0,0.0,0.0,0.0,3.352,0.0,0.0,0.0,3.3549,3.352,3.352,3.352,3.352,3.3549,3.3549,3.3549,3.3605,3.3605,3.3605,3.3605,3.3897,3.4316,3.4316,3.4845,3.549,3.549,3.6395,3.7466,3.7497,3.7716,3.8003,3.8071,3.8339,3.8578,3.8609,3.8609,3.864,3.8707,3.8707,3.8707,3.8707,3.8707,3.8707,3.8707,3.8707,3.875,0.0,0.0,0.0,0.0,0.0,0.0,0.0,0.0,0.0,0.0,0.0,3.3807,0.0,0.0,3.3807,3.3807,3.4266,0.0,3.4523,0.0,3.5293,3.5293,3.5293,3.5293,3.5293,3.5293,3.5293,3.5275,3.4761,3.4293,3.386,3.3834,3.386,3.3921,3.3895,3.3921,3.3972,3.3998,3.4023,3.4129,3.4648,3.4877,3.5013,3.6912,0.0,3.6495,0.0,3.7341,3.7522,3.8101,3.8192,3.7993,3.7413,3.7341,3.716,3.6689,3.6345,3.5729,3.4697,3.4606,3.4262,3.3447,3.3393,3.3393,3.3393,3.3393,0.0,3.3422,3.3422,3.3452,3.352,3.352,0.0,0.0,0.0,0.0,0.0,3.3633,3.3633,3.3605,3.3605,3.3605,3.3605,3.3633,3.3633,3.3633,3.3643,3.3807,3.4008,3.4008,3.4548,3.5243,3.5243,3.5791,3.6449,3.6419,3.7369,3.8496,3.8559,3.8559,3.859,3.8658,3.8707,3.8707,3.8707,3.8707,3.8707,3.8707,3.8707,3.8707,3.8707,3.8707,3.8707,3.8707,3.875,3.8881,0.0,0.0,0.0,0.0,0.0,0.0,0.0,0.0,0.0,0.0,0.0,0.0,0.0,0.0,0.0,0.0,0.0,0.0,0.0,0.0,0.0,0.0,0.0,3.6342,3.637,3.6313,3.6313,3.6352,3.5717,3.5156,3.4639,3.4604,3.451,3.4367,3.4341,3.4386,3.4419,3.4419,3.4617,3.4921,3.5577,3.5806,3.5962,3.6958,3.7089,3.7312,3.8062,3.8174,3.8174,3.8192,3.8192,3.8192,3.8174,3.8174,3.7576,3.6001,3.6508,3.6327,3.4751,3.4606,3.4262,3.3447,3.3393,3.3393,0.0,0.0,3.3422,3.3509,3.3509,3.352,3.3605,0.0,0.0,3.3605,0.0,0.0,3.3605,3.3671,3.3671,3.3605,3.3605,3.3605,3.3605,3.3671,3.3698,3.3698,3.378,3.4302,3.4972,3.4972,3.555,3.6285,3.6285,3.6817,3.7477,3.7418,3.7986,3.8707,3.8707,3.8707,3.8707,3.8707,3.8707,3.8707,3.8707,3.8707,3.8707,3.8707,3.8707,3.8707,3.8707,3.8707,3.8707,3.8707,3.8939,3.9101,3.9101,0.0,0.0,0.0,0.0,0.0,0.0,0.0,0.0,3.7051,0.0,0.0,0.0,0.0,0.0,0.0,0.0,0.0,3.6638,3.6752,0.0,3.6398,3.6398,3.6408,3.6518,3.637,3.637,3.6518,3.65,3.6481,3.6481,3.6481,3.6019,3.5299,3.5332,3.5377,3.5403,3.5454,3.5962,3.6668,3.6668,3.6668,3.6798,3.7885,3.7925,3.7965,3.8171,3.8192,3.8192,3.8192,3.8192,3.8192,3.8192,3.8192,3.7993,3.7486,3.7649,3.7377,0.0,3.6236,3.5892,0.0,3.4534,3.4226,3.4226,3.3701,3.3422,3.3509,3.3509,3.3549,3.3671,0.0,0.0,0.0,3.3753,3.3753,3.3726,3.3753,3.3753,3.3726,3.3726,3.3726,3.3726,3.3753,3.378,3.3835,3.4385,3.477,3.5064,3.5679,3.6413,3.711,3.711,3.7643,3.8303,3.8291,3.8475,3.8707,3.8707,3.8707,3.8707,3.8707,3.8707,3.8707,3.8707,3.8707,3.8707,3.8707,3.8707,3.8707,3.8707,3.8851,3.8979,3.8979,3.9192,3.9427,3.9623,0.0,0.0,0.0,0.0,0.0,0.0,0.0,0.0,0.0,3.7147,0.0,0.0,0.0,0.0,0.0,0.0,0.0,0.0,3.838,0.0,3.8584,3.8584,3.8608,3.8589,3.8584,3.8284,3.7807,3.7807,3.7416,3.6771,3.6721,3.6533,3.6244,3.6367,3.6385,3.6296,3.6465,3.6603,3.676,3.7318,3.7522,3.7634,3.8387,3.8354,3.8354,3.8241,3.8259,3.8225,3.8192,3.8192,3.8225,3.8241,3.8259,3.8241,3.8256,3.8274,0.0,3.7084,3.7011,0.0,3.5869,3.5374,3.5133,3.5133,3.4643,3.44,3.4488,0.0,0.0,3.4183,3.3872,3.3753,3.3807,3.3807,3.3807,3.3807,3.3807,3.3807,3.3807,3.3807,3.3807,3.3825,3.4137,3.4266,3.4339,3.5183,3.5679,3.6009,3.656,3.7257,3.7936,3.7936,3.8285,3.8707,3.8707,3.8707,3.8707,3.8707,3.8707,3.8707,3.8707,3.8707,3.8707,3.8707,3.8707,3.8707,3.8707,3.8707,3.8738,3.8822,3.8979,3.9129,3.9219,3.9477,3.9717,3.987,0.0,0.0,0.0,0.0,0.0,0.0,0.0,0.0,0.0,3.8383,0.0,0.0,0.0,0.0,0.0,0.0,0.0,3.8937,3.9491,0.0,3.9645,3.9622,3.9645,3.9668,3.9668,3.9403,3.889,3.8912,3.8565,3.8003,3.7939,3.7718,3.7403,3.7506,3.7483,3.7446,3.7551,3.7713,3.7928,3.8409,3.8596,3.8671,3.8465,3.8446,0.0,0.0,3.8307,0.0,3.8207,3.8207,3.8241,3.8307,3.8307,3.8322,3.8382,3.8382,3.8027,3.7156,0.0,0.0,0.0,3.6091,3.6067,3.6067,3.603,0.0,3.6095,3.5363,3.5007,3.5082,3.4339,3.3935,3.388,3.3954,3.3935,3.388,3.388,3.388,3.388,3.3825,3.3825,3.3954,3.4706,3.5027,3.5174,3.6046,3.6835,3.7526,3.7551,3.8065,3.8707,3.8707,3.8707,3.8707,3.8707,3.8707,3.8707,3.8707,3.8707,3.8707,3.8707,3.8689,3.8738,3.8738,3.8738,3.8719,3.8707,3.8689,3.881,3.9045,3.9129,3.9219,3.9483,3.9739,3.9935,3.9935,4.0138,4.031,4.031,0.0,0.0,0.0,0.0,0.0,0.0,4.0307,4.0017,0.0,0.0,0.0,0.0,0.0,0.0,4.0023,4.0101,4.0002,3.9754,3.9754,3.9797,3.984,3.984,3.9819,3.9754,3.9819,3.984,3.9819,3.9819,3.9383,3.8681,3.8702,3.8702,3.8681,3.8702,3.9176,3.9797,3.9797,3.9797,3.9797,0.0,0.0,3.8478,3.8401,3.8368,3.8368,3.8368,3.8336,3.8368,3.8368,3.8368,3.8401,3.8382,3.8382,3.831,3.8095,3.8077,3.7986,3.7835,3.7252,3.6924,3.6924,3.6322,3.6024,3.6095,3.5912,3.5868,3.5991,3.5807,3.5367,3.4715,3.5404,3.5349,3.4715,3.4715,3.4715,3.4688,3.4064,3.4156,3.4715,3.4917,3.5404,3.6083,3.689,3.7342,3.7599,3.8193,3.8542,3.8707,3.8707,3.8707,3.8707,3.8707,3.8707,3.8707,3.8707,3.8707,3.8707,3.8707,3.8851,3.9007,3.9007,3.9007,3.895,3.875,3.8851,3.9017,3.9073,3.9427,3.9739,3.9785,4.0017,4.0215,4.0215,4.0253,4.0308,4.0308,0.0,0.0,0.0,4.0381,4.0381,4.0379,4.0432,4.0353,0.0,0.0,0.0,0.0,0.0,4.0181,4.0396,4.0392,4.0372,4.0319,4.0319,4.0319,4.0336,4.0336,4.0319,4.0319,4.0336,4.025,4.012,4.012,3.9888,3.9534,3.9757,3.9698,3.9534,3.9737,3.9812,3.9797,3.9797,3.9797,3.9797,3.8609,3.859,3.8559,3.8446,3.8446,3.8446,3.8415,3.8382,3.8415,3.8446,3.8446,3.8446,3.8546,3.8546,3.8546,3.8546,3.8496,3.8446,3.8446,3.8094,3.7906,3.7906,3.7485,3.7229,3.7289,3.6923,3.6604,3.6303,3.6303,3.6064,3.5605,3.6083,3.6046,3.5605,3.5605,3.5605,3.5569,3.5128,3.5202,3.5642,3.5991,3.6431,3.6927,3.7734,3.8046,3.8102,3.8542,3.8707,3.8707,3.8707,3.8707,3.8707,3.8707,3.8707,3.8719,3.8851,3.8881,3.8881,3.8881,3.9073,3.9272,3.9272,3.9272,3.9245,3.9101,3.9183,3.9324,3.9452,3.9693,3.9935,4.0077,4.0196,4.0291,4.0291,4.0308,4.0307,4.0325,4.0379,0.0,4.0398,4.0398,4.0415,4.0432,4.0485,4.0499,4.0495,0.0,0.0,4.0489,4.0489,4.0508,4.0495,4.0508,4.0489,4.0489,4.0489,4.0489,4.0489,4.0489,4.0489,4.0489,4.0489,4.0441,4.0339,4.0339,4.025,4.012,4.0267,4.025,4.0138,4.0267,4.025,4.012,4.012,4.012,4.012,3.8707,3.8707,3.8658,3.8559,3.8541,3.851,3.8446,3.8465,3.8465,3.851,3.8541,3.8559,3.8707,3.8707,3.8707,3.8707,3.8609,3.8541,3.8541,3.8658,3.8707,3.8707,3.8707,3.8707,3.8707,3.8028,3.7331,3.6652,3.6652,3.6597,3.6468,3.6597,3.6597,3.6468,3.6468,3.6468,3.6468,3.6397,3.6415,3.6523,3.7261,3.764,3.7824,3.8493,3.878,3.8822,3.8822,3.8822,3.8822,3.8822,3.8822,3.8822,3.8822,3.8822,3.8881,3.9101,3.9192,3.9219,3.9165,3.935,3.9575,3.9575,3.9575,3.9551,3.9526,3.9532,3.9604,3.9851,3.9935,4.0017,4.0253,4.0291,4.0291,4.0307,4.0325,4.0342,4.0415,0.0,4.0413,4.0413,4.0413,4.0449,4.0482,4.0499,4.0495,4.0489,4.0489,0.0,0.0,4.0489,4.0489,4.0489,4.0489,4.0489,4.0489,4.0489,4.0489,4.0489,4.0489,4.0489,4.0489,4.0489,4.0489,4.0489,4.0489,4.0489,4.0489,4.0489,4.0489,4.0489,4.0489,4.0489,4.0489,4.0489,4.0489,4.0489,3.8707,3.8707,3.8707,3.8658,3.8658,3.8658,3.8676,3.8658,3.8658,3.8658,3.8658,3.8658,3.8707,3.8707,3.8707,3.8707,3.8658,3.8658,3.8658,3.8707,3.8707,3.8707,3.8707,3.8707,3.8707,3.8579,3.845,3.834,3.834,3.7973,3.7342,3.801,3.7955,3.7294,3.7294,3.7294,3.7287,3.685,3.6906,3.7342,3.7692,3.8266,3.8878,3.9008,3.9165,3.9376,3.9376,3.9376,3.9376,3.9376,3.9376,3.9376,3.9376,3.9376,3.9401,3.9427,3.9599,3.9717,3.9502,3.9628,3.9848,3.9848,3.9848,3.9785,3.9532,3.967,3.9848,3.9892,4.0077,4.0253,4.0291,4.0309,4.0289,4.0307,4.0396,4.0466,0.0,0.0,4.0473,4.0473,4.0473,4.0492,4.0508,4.0508,4.0508,4.0489,4.0489,4.0489,4.0489,4.0489,4.0489,4.0489,4.0489,4.0489,4.0489,4.0489,4.0489,4.0489,4.0489,4.0489,4.0489,4.0489,4.0489,4.0489,4.0489,4.0489,4.0489,4.0489,4.0489,4.0489,4.0489,4.0489,4.0489,4.0489,4.0489,4.0489,3.8707,3.8707,3.8707,3.8707,3.8707,3.8707,3.8707,3.8707,3.8707,3.8707,3.8707,3.8707,3.8707,3.8707,3.8707,3.8707,3.8707,3.8707,3.8707,3.8707,3.8707,3.8707,3.8707,3.8707,3.8707,3.8707,3.8707,3.8707,3.8707,3.8505,3.8138,3.8524,3.8505,3.8138,3.8138,3.821,3.8348,3.8081,3.8218,3.8579,3.8712,3.8988,3.9324,3.9324,3.9401,3.9502,3.9502,3.9502,3.9502,3.9502,3.9502,3.9502,3.9502,3.9502,3.9526,3.967,3.9807,3.9914,3.9933,4.0017,4.0118,4.0118,4.0118,4.0077,3.9954,4.0036,4.0118,4.0119,4.0215,4.0309,4.0364,4.0344,4.0362,4.0396,4.0449,0.0,0.0,4.0508,4.0489,4.0489,4.0489,4.0489,4.0489,4.0489,4.0489,4.0489,4.0489,4.0489,4.0489,4.0489,4.0489,4.0489,4.0489,4.0489,4.0489,4.0489,4.0489,4.0489,4.0489,4.0489,4.0489,4.0489,4.0489,4.0489,4.0489,4.0489,4.0489,4.0489,4.0489,4.0489,4.0489,4.0489,4.0489,4.0489,4.0489,4.0489,3.8707,3.8707,3.8707,3.8707,3.8707,3.8707,3.8707,3.8707,3.8707,3.8707,3.8707,3.8707,3.8707,3.8707,3.8707,3.8707,3.8707,3.8707,3.8707,3.8707,3.8707,3.8707,3.8707,3.8707,3.8707,3.8707,3.8707,3.8707,3.8707,3.8707,3.8707,3.8707,3.8707,3.8707,3.878,3.891,3.9101,3.9219,3.9376,3.9526,3.9575,3.958,3.958,3.958,3.9647,3.9693,3.9693,3.9693,3.9693,3.9693,3.9693,3.9693,3.9693,3.9693,3.9717,3.9935,3.9996,4.0038,4.0253,4.031,4.031,4.031,4.031,4.031,4.031,4.0291,4.0291,4.0307,4.0307,4.0325,4.0379,4.0415,4.0432,4.0502,0.0,0.0,0.0,4.0489,4.0489,4.0489,4.0489,4.0489,4.0489,4.0489,4.0489,4.0489,4.0489,4.0489,4.0489,4.0489,4.0489,4.0489,4.0489,4.0489,4.0489,4.0489,4.0489,4.0489,4.0489,4.0489,4.0489,4.0489,4.0489,4.0489,4.0489,4.0489,4.0489,4.0489,4.0489,4.0489,4.0489,4.0489,4.0489,4.0489,4.0489,4.0489,3.8707,3.8707,3.8707,3.8707,3.8707,3.8707,3.8707,3.8707,3.8707,3.8707,3.8707,3.8707,3.8707,3.8707,3.8707,3.8707,3.8707,3.8707,3.8707,3.8707,3.8707,3.8707,3.8707,3.8707,3.8707,3.8707,3.8707,3.8707,3.8707,3.8707,3.8707,3.8707,3.8707,3.8707,3.895,3.9073,3.9129,3.9647,3.9717,3.9508,3.9762,3.987,3.987,3.987,4.0017,4.0234,4.0234,4.0234,4.0234,4.0234,4.0234,4.0234,4.0234,4.0234,4.0234,4.0253,4.0272,4.0272,4.0291,4.031,4.031,4.031,4.031,4.031,4.031,4.0309,4.0307,4.0307,4.0362,4.0379,4.0398,4.0449,4.0502,4.0502,0.0,0.0,4.0489,4.0489,4.0489,4.0489,4.0489,4.0489,4.0489,4.0489,4.0489,4.0489,4.0489,4.0489,4.0489,4.0489,4.0489,4.0489,4.0489,4.0489,4.0489,4.0489,4.0489,4.0489,4.0489,4.0489,4.0489,4.0489,4.0489,4.0489,4.0489,4.0489,4.0489,4.0489,4.0489,4.0489,4.0489,4.0489,4.0489,4.0489,4.0489,4.0489,3.8707,3.8707,3.8707,3.8707,3.8707,3.8707,3.8707,3.8707,3.8707,3.8707,3.8707,3.8707,3.8707,3.8707,3.8707,3.8707,3.8707,3.8707,3.8707,3.8707,3.8707,3.8707,3.8707,3.8707,3.8707,3.8707,3.8707,3.8707,3.8707,3.8707,3.8707,3.8707,3.878,3.895,3.9045,3.9298,3.9623,3.9807,3.9954,4.0015,4.0098,4.0157,4.0157,4.0157,4.0196,4.031,4.031,4.031,4.031,4.031,4.031,4.031,4.031,4.031,4.0308,4.0345,4.0345,4.0345,4.0345,4.0328,4.0291,4.0309,4.029,4.0308,4.0345,4.0363,4.0379,4.0432,4.0449,4.0466,4.046,4.0476,4.0511,4.0511,0.0,4.0489,4.0489,4.0489,4.0489,4.0489,4.0489,4.0489,4.0489,4.0489,4.0489,4.0489,4.0489,4.0489,4.0489,4.0489,4.0489,4.0489,4.0489,4.0489,4.0489,4.0489,4.0489,4.0489,4.0489,4.0489,4.0489,4.0489,4.0489,4.0489,4.0489,4.0489,4.0489,4.0489,4.0489,4.0489,4.0489,4.0489,4.0489,4.0489,4.0489,4.0489,3.8707,3.8707,3.8707,3.8707,3.8707,3.8707,3.8707,3.8707,3.8707,3.8707,3.8707,3.8707,3.8707,3.8707,3.8707,3.8707,3.8707,3.8707,3.8707,3.8707,3.8707,3.8707,3.8707,3.8707,3.8707,3.8707,3.8719,3.884,3.884,3.8881,3.895,3.895,3.9045,3.9219,3.9324,3.9575,3.9914,3.9996,4.0118,4.031,4.031,4.031,4.031,4.031,4.0291,4.0291,4.0328,4.0328,4.0328,4.0328,4.0328,4.0328,4.0328,4.0327,4.0325,4.0398,4.0398,4.0398,4.0398,4.0363,4.0346,4.0344,4.0325,4.0325,4.0379,4.0415,4.0449,4.0502,4.0499,4.0495,4.0508,4.0489,4.0489,4.0489,4.0489,4.0489,4.0489,4.0489,4.0489,4.0489,4.0489,4.0489,4.0489,4.0489,4.0489,4.0489,4.0489,4.0489,4.0489,4.0489,4.0489,4.0489,4.0489,4.0489,4.0489,4.0489,4.0489,4.0489,4.0489,4.0489,4.0489,4.0489,4.0489,4.0489,4.0489,4.0489,4.0489,4.0489,4.0489,4.0489,4.0489,4.0489,4.0489,4.0489,4.0489,4.0489,3.8707,3.8707,3.8707,3.8707,3.8707,3.8707,3.8707,3.8707,3.8707,3.8707,3.8707,3.8707,3.8707,3.8707,3.8707,3.8707,3.8707,3.8707,3.8707,3.8707,3.8707,3.8707,3.8707,3.8707,3.8707,3.8707,3.8822,3.9101,3.9101,3.9245,3.9502,3.9502,3.9502,3.9508,3.9785,3.9914,3.9914,4.0176,4.031,4.031,4.031,4.031,4.0291,4.0308,4.0307,4.0307,4.0379,4.0398,4.0398,4.0398,4.0398,4.0398,4.0415,4.0415,4.0415,4.0415,4.0415,4.0415,4.0415,4.0415,4.0415,4.0415,4.0415,4.0415,4.0415,4.0449,4.0502,4.0502,4.0495,4.0489,4.0489,4.0489,4.0489,4.0489,4.0489,4.0489,4.0489,4.0489,4.0489,4.0489,4.0489,4.0489,4.0489,4.0489,4.0489,4.0489,4.0489,4.0489,4.0489,4.0489,4.0489,4.0489,4.0489,4.0489,4.0489,4.0489,4.0489,4.0489,4.0489,4.0489,4.0489,4.0489,4.0489,4.0489,4.0489,4.0489,4.0489,4.0489,4.0489,4.0489,4.0489,4.0489,4.0489,4.0489,4.0489,4.0489,3.8707,3.8707,3.8707,3.8707,3.8707,3.8707,3.8707,3.8707,3.8707,3.8707,3.8707,3.8707,3.8707,3.8707,3.8707,3.8707,3.8707,3.8707,3.8707,3.8707,3.8707,3.8707,3.8707,3.8707,3.8707,3.8707,3.8822,3.9101,3.9101,3.9245,3.9502,3.9502,3.9599,3.9785,3.9851,3.9996,4.0176,4.0272,4.0308,4.0308,4.0345,4.0363,4.0363,4.0362,4.0362,4.0379,4.0379,4.0398,4.0398,4.0398,4.0398,4.0415,4.0468,4.0466,4.0466,4.046,4.0476,4.0476,4.0476,4.0476,4.046,4.0466,4.0466,4.0466,4.046,4.0476,4.0492,4.0492,4.0508,4.0489,4.0489,4.0489,4.0489,4.0489,4.0489,4.0489,4.0489,4.0489,4.0489,4.0489,4.0489,4.0489,4.0489,4.0489,4.0489,4.0489,4.0489,4.0489,4.0489,4.0489,4.0489,4.0489,4.0489,4.0489,4.0489,4.0489,4.0489,4.0489,4.0489,4.0489,4.0489,4.0489,4.0489,4.0489,4.0489,4.0489,4.0489,4.0489,4.0489,4.0489,4.0489,4.0489,4.0489,4.0489,4.0489,4.0489,3.8707,3.8707,3.8707,3.8707,3.8707,3.8707,3.8707,3.8707,3.8707,3.8707,3.8707,3.8707,3.8707,3.8707,3.8707,3.8707,3.8707,3.8707,3.8707,3.8707,3.875,3.8851,3.8851,3.8851,3.8851,3.895,3.9156,3.9427,3.9427,3.9551,3.9826,3.9826,3.9895,4.0059,4.0059,4.0158,4.0346,4.0344,4.0325,4.0325,4.0379,4.0398,4.0415,4.0432,4.0432,4.0432,4.0447,4.0447,4.0447,4.0447,4.0447,4.0447,4.0479,4.0495,4.0495,4.0508,4.0489,4.0489,4.0489,4.0489,4.0508,4.0495,4.0495,4.0495,4.0508,4.0489,4.0489,4.0489,4.0489,4.0489,4.0489,4.0489,4.0489,4.0489,4.0489,4.0489,4.0489,4.0489,4.0489,4.0489,4.0489,4.0489,4.0489,4.0489,4.0489,4.0489,4.0489,4.0489,4.0489,4.0489,4.0489,4.0489,4.0489,4.0489,4.0489,4.0489,4.0489,4.0489,4.0489,4.0489,4.0489,4.0489,4.0489,4.0489,4.0489,4.0489,4.0489,4.0489,4.0489,4.0489,4.0489,4.0489,4.0489,4.0489,4.0489,4.0504,3.8707,3.8738,3.8738,3.8738,3.8738,3.8738,3.8738,3.8707,3.8707,3.8707,3.8707,3.8707,3.8707,3.8707,3.8707,3.8707,3.8707,3.8707,3.8707,3.8719,3.8833,3.9082,3.9137,3.9192,3.9192,3.9383,3.9628,3.9895,3.9914,4.0038,4.031,4.031,4.0309,4.0307,4.0307,4.0325,4.0415,4.0415,4.0415,4.0415,4.0415,4.0396,4.0432,4.0466,4.0502,4.0499,4.0492,4.0489,4.0489,4.0489,4.0489,4.0489,4.0489,4.0489,4.0489,4.0489,4.0489,4.0489,4.0489,4.0489,4.0489,4.0489,4.0489,4.0489,4.0489,4.0489,4.0489,4.0489,4.0489,4.0489,4.0489,4.0489,4.0489,4.0489,4.0489,4.0489,4.0489,4.0489,4.0489,4.0489,4.0489,4.0489,4.0489,4.0489,4.0489,4.0489,4.0489,4.0489,4.0489,4.0489,4.0489,4.0489,4.0489,4.0489,4.0489,4.0489,4.0489,4.0489,4.0489,4.0489,4.0489,4.0489,4.0489,4.0489,4.0489,4.0489,4.0489,4.0489,4.0489,4.0489,4.0489,4.0504,4.0504,4.0504,4.0504,4.0504,3.8707,3.8881,3.9017,3.9017,3.9017,3.9017,3.9017,3.8822,3.8707,3.8707,3.8707,3.8707,3.8707,3.8707,3.8707,3.8707,3.8707,3.8707,3.8707,3.8913,3.9036,3.909,3.9548,3.9816,3.9816,3.9595,3.9637,3.9899,3.9941,4.012,4.0381,4.0381,4.0381,4.0379,4.0379,4.0398,4.0415,4.0468,4.0485,4.0466,4.0495,4.0492,4.0492,4.0492,4.0492,4.0508,4.0489,4.0489,4.0489,4.0489,4.0489,4.0489,4.0489,4.0489,4.0489,4.0489,4.0489,4.0489,4.0489,4.0489,4.0489,4.0489,4.0489,4.0489,4.0489,4.0489,4.0489,4.0489,4.0489,4.0489,4.0489,4.0489,4.0489,4.0489,4.0489,4.0489,4.0489,4.0489,4.0489,4.0489,4.0489,4.0489,4.0489,4.0489,4.0489,4.0489,4.0489,4.0489,4.0489,4.0489,4.0489,4.0489,4.0489,4.0489,4.0489,4.0489,4.0489,4.0489,4.0489,4.0489,4.0489,4.0489,4.0489,4.0489,4.0489,4.0489,4.0489,4.0489,4.0489,4.0489,4.0489,4.0539,4.0573,4.0573,4.0583,4.0593,3.9584,3.9769,3.9989,4.0427,4.0483,4.0483,4.0483,4.0011,3.9658,3.9658,3.9324,3.9073,3.9073,3.9073,3.9082,3.9091,3.9091,3.9091,3.9127,3.9275,3.9389,3.951,3.984,4.0062,4.0177,4.0061,4.0022,4.0139,4.0177,4.0252,4.0398,4.0398,4.0415,4.0449,4.0449,4.0449,4.0444,4.0479,4.0495,4.0495,4.0508,4.0489,4.0489,4.0489,4.0489,4.0489,4.0489,4.0489,4.0489,4.0489,4.0489,4.0489,4.0489,4.0489,4.0489,4.0489,4.0489,4.0489,4.0489,4.0489,4.0489,4.0489,4.0489,4.0489,4.0489,4.0489,4.0489,4.0489,4.0489,4.0489,4.0489,4.0489,4.0489,4.0489,4.0489,4.0489,4.0489,4.0489,4.0489,4.0489,4.0489,4.0489,4.0489,4.0489,4.0534,4.0588,4.0534,4.0534,4.0588,4.0534,4.0489,4.0489,4.0564,4.0559,4.0489,4.0545,4.0607,4.0588,4.0534,4.0489,4.0489,4.0489,4.0489,4.0489,4.0489,4.0489,4.0489,4.0489,4.0489,4.0504,4.0539,4.0573,4.0607,4.0598,4.0626,4.0654,4.0804,4.0961,4.1237,4.1933,4.2065,4.2065,4.2065,4.1412,4.0917,4.0917,4.0221,3.9708,3.9708,3.9583,3.9513,3.9481,3.9505,3.9529,3.9599,3.9645,3.9797,4.0022,4.0062,4.0177,4.0413,4.0482,4.0466,4.0415,4.0432,4.0413,4.0413,4.0413,4.0449,4.0499,4.0499,4.0495,4.0489,4.0489,4.0489,4.0489,4.0489,4.0489,4.0489,4.0489,4.0489,4.0489,4.0489,4.0489,4.0489,4.0489,4.0489,4.0489,4.0489,4.0489,4.0489,4.0489,4.0489,4.0489,4.0489,4.0489,4.0489,4.0489,4.0489,4.0489,4.0489,4.0489,4.0489,4.0489,4.0489,4.0489,4.0489,4.0489,4.0489,4.0489,4.0489,4.0489,4.0489,4.0489,4.0489,4.0489,4.0489,4.0489,4.0489,4.0519,4.0574,4.0694,4.0615,4.0596,4.0699,4.061,4.0559,4.0559,4.0649,4.0662,4.0559,4.0662,4.073,4.073,4.0596,4.0559,4.0559,4.0559,4.0545,4.0534,4.0534,4.0519,4.0504,4.0515,4.053,4.0549,4.0598,4.0626,4.0626,4.0648,4.0688,4.0752,4.1781,4.1995,4.2219,4.2332,4.2351,4.2351,4.2351,4.2046,4.1818,4.1818,4.1067,4.0541,4.0541,3.9927,3.95,3.9505,3.9552,3.9599,3.9599,3.988,4.0061,4.0081,4.0321,4.0457,4.0492,4.0508,4.0495,4.0485,4.0495,4.0492,4.0492,4.0492,4.0492,4.0508,4.0508,4.0508,4.0489,4.0489,4.0489,4.0489,4.0489,4.0489,4.0489,4.0489,4.0489,4.0489,4.0489,4.0489,4.0489,4.0489,4.0489,4.0489,4.0489,4.0489,4.0489,4.0489,4.0489,4.0489,4.0489,4.0489,4.0489,4.0489,4.0489,4.0489,4.0489,4.0489,4.0489,4.0489,4.0489,4.0489,4.0489,4.0489,4.0489,4.0489,4.0489,4.0489,4.0489,4.0489,4.0489,4.0489,4.0489,4.0489,4.0489,4.0602,4.0681,4.0694,4.0738,4.0771,4.0791,4.0771,4.0771,4.0771,4.0781,4.0781,4.0771,4.0781,4.0791,4.0791,4.0771,4.0771,4.0771,4.0771,4.0738,4.0668,4.0668,4.0602,4.0504,4.0623,4.0667,4.0667,4.0684,4.0707,4.0779,4.0849,4.0878,4.0878,4.3027,4.3213,4.345,4.3947,4.4024,4.4024,4.4067,4.3561,4.319,4.3216,4.2474,4.1922,4.1922,4.122,4.0727,4.0728,4.0348,4.0101,4.0101,4.023,4.0321,4.0321,4.0441,4.0489,4.0489,4.0489,4.0508,4.0511,4.0508,4.0489,4.0489,4.0489,4.0489,4.0489,4.0489,4.0489,4.0489,4.0489,4.0489,4.0489,4.0489,4.0489,4.0489,4.0489,4.0489,4.0489,4.0489,4.0489,4.0489,4.0489,4.0489,4.0489,4.0489,4.0489,4.0489,4.0489,4.0489,4.0489,4.0489,4.0489,4.0489,4.0489,4.0489,4.0489,4.0489,4.0489,4.0489,4.0489,4.0489,4.0489,4.0489,4.0489,4.0489,4.0489,4.0912,4.1239,4.1239,4.1643,4.195,4.195,4.195,4.1979,4.1991,4.206,4.216,4.2305,4.2286,4.2295,4.2366,4.2285,4.2257,4.2257,4.2322,4.233,4.2257,4.233,4.2354,4.2349,4.2349,4.1801,4.079,4.079,4.0781,4.0762,4.0762,4.0722,4.0679,4.0732,4.0762,4.0762,4.079,4.0855,4.0929,4.0937,4.0964,4.0964]}]]